[[{"header":{"parameterUnit":"m.s-1","parameterCategory":1,"la1":31.0,"la2":29.5877,"lo1":-88.7671,"lo2":-86.6584,"dy":0.0162,"dx":0.0185,"nx":115,"ny":88,"refTime":"2023-06-06T12:00:00:Z","depth":0,"parameterNumber":2,"parameterNumberName":"U-component_of_WINDS"},"data":[0.0,0.0,0.0,0.0,0.0,0.0,0.0,0.0,0.0,0.0,0.0,0.0,0.0,0.0,0.0,0.0,0.0,0.0,0.0,0.0,0.0,0.0,0.0,0.0,0.0,0.0,0.0,0.0,0.0,0.0,0.0,0.0,0.0,0.0,0.0,0.0,0.0,0.0,0.0,0.0,0.0,0.0,0.0,0.0,0.0,0.0,0.0,0.0,0.0,0.0,0.0,0.0,0.0,0.0,0.0,0.0,0.0,0.0,0.0,0.0,0.0,0.0,0.0,0.0,0.0,0.0,0.0,0.0,0.0,0.0,0.0,0.0,0.0,0.0,0.0,0.0,0.0,0.0,0.0,0.0,0.0,0.0,0.0,0.0,0.0,0.0,0.0,0.0,0.0,0.0,0.0,0.0,0.0,0.0,0.0,0.0,0.0,0.0,0.0,0.0,0.0,0.0,0.0,0.0,0.0,0.0,0.0,0.0,0.0,0.0,0.0,0.0,0.0,0.0,0.0,0.0,0.0,0.0,0.0,0.0,0.0,0.0,0.0,0.0,0.0,0.0,0.0,0.0,0.0,0.0,0.0,0.0,0.0,0.0,0.0,0.0,0.0,0.0,0.0,0.0,0.0,0.0,0.0,0.0,0.0,0.0,0.0,0.0,0.0,0.0,0.0,0.0,0.0,0.0,0.0,0.0,0.0,0.0,0.0,0.0,0.0,0.0,0.0,0.0,0.0,0.0,0.0,0.0,0.0,0.0,0.0,0.0,0.0,0.0,0.0,0.0,0.0,0.0,0.0,0.0,0.0,0.0,0.0,0.0,0.0,0.0,0.0,0.0,0.0,0.0,0.0,0.0,0.0,0.0,0.0,0.0,0.0,0.0,0.0,0.0,0.0,0.0,0.0,0.0,0.0,0.0,0.0,0.0,0.0,0.0,0.0,0.0,0.0,0.0,0.0,0.0,0.0,0.0,0.0,0.0,0.0,0.0,0.0,0.0,0.0,0.0,0.0,0.0,0.0,0.0,0.0,0.0,0.0,0.0,0.0,0.0,0.0,0.0,0.0,0.0,0.0,0.0,0.0,0.0,0.0,0.0,0.0,0.0,0.0,0.0,0.0,0.0,0.0,0.0,0.0,0.0,0.0,0.0,0.0,0.0,0.0,0.0,0.0,0.0,0.0,0.0,0.0,0.0,0.0,0.0,0.0,0.0,0.0,0.0,0.0,0.0,0.0,0.0,0.0,0.0,0.0,0.0,0.0,0.0,0.0,0.0,0.0,0.0,0.0,0.0,0.0,0.0,0.0,0.0,0.0,0.0,0.0,0.0,0.0,0.0,0.0,0.0,0.0,0.0,0.0,0.0,0.0,0.0,0.0,0.0,0.0,0.0,0.0,0.0,0.0,0.0,0.0,0.0,0.0,0.0,0.0,0.0,0.0,0.0,0.0,0.0,0.0,0.0,0.0,0.0,0.0,0.0,0.0,0.0,0.0,0.0,0.0,0.0,0.0,0.0,0.0,0.0,0.0,0.0,0.0,0.0,0.0,0.0,0.0,0.0,0.0,0.0,0.0,0.0,0.0,0.0,0.0,0.0,0.0,0.0,0.0,0.0,0.0,0.0,0.0,0.0,0.0,0.0,0.0,0.0,0.0,0.0,0.0,0.0,0.0,0.0,0.0,0.0,0.0,0.0,0.0,0.0,0.0,0.0,0.0,0.0,0.0,0.0,0.0,0.0,0.0,0.0,0.0,0.0,0.0,0.0,0.0,0.0,0.0,0.0,0.0,0.0,0.0,0.0,0.0,0.0,0.0,0.0,0.0,0.0,0.0,0.0,0.0,0.0,0.0,0.0,0.0,0.0,0.0,0.0,0.0,0.0,0.0,0.0,0.0,0.0,0.0,0.0,0.0,0.0,0.0,0.0,0.0,0.0,0.0,0.0,0.0,0.0,0.0,0.0,0.0,0.0,0.0,0.0,0.0,0.0,0.0,0.0,0.0,0.0,0.0,0.0,0.0,0.0,0.0,0.0,0.0,0.0,0.0,0.0,0.0,0.0,0.0,0.0,0.0,0.0,0.0,0.0,0.0,0.0,0.0,0.0,0.0,0.0,0.0,0.0,0.0,0.0,0.0,0.0,0.0,0.0,0.0,0.0,0.0,0.0,0.0,0.0,0.0,0.0,0.0,0.0,0.0,0.0,0.0,0.0,0.0,0.0,0.0,0.0,0.0,0.0,0.0,0.0,0.0,0.0,0.0,0.0,0.0,0.0,0.0,0.0,0.0,0.0,0.0,0.0,0.0,0.0,0.0,0.0,0.0,0.0,0.0,0.0,0.0,0.0,0.0,0.0,0.0,0.0,0.0,0.0,0.0,0.0,0.0,0.0,0.0,0.0,0.0,0.0,0.0,0.0,0.0,0.0,0.0,0.0,0.0,0.0,0.0,0.0,0.0,0.0,0.0,0.0,0.0,0.0,0.0,0.0,0.0,0.0,0.0,0.0,0.0,0.0,0.0,0.0,0.0,0.0,0.0,0.0,0.0,0.0,0.0,0.0,0.0,0.0,0.0,0.0,0.0,0.0,0.0,0.0,0.0,0.0,0.0,0.0,0.0,0.0,0.0,0.0,0.0,0.0,0.0,0.0,0.0,0.0,0.0,0.0,0.0,0.0,0.0,0.0,0.0,0.0,0.0,0.0,0.0,0.0,0.0,0.0,0.0,0.0,0.0,0.0,0.0,0.0,0.0,0.0,0.0,0.0,0.0,0.0,0.0,0.0,0.0,0.0,0.0,0.0,0.0,0.0,0.0,0.0,0.0,0.0,0.0,0.0,0.0,0.0,0.0,0.0,0.0,0.0,0.0,0.0,0.0,0.0,0.0,0.0,0.0,0.0,0.0,0.0,0.0,0.0,0.0,0.0,0.0,0.0,0.0,0.0,0.0,0.0,0.0,0.0,0.0,0.0,0.0,0.0,0.0,0.0,0.0,0.0,0.0,0.0,0.0,0.0,0.0,0.0,0.0,0.0,0.0,0.0,0.0,0.0,0.0,0.0,0.0,0.0,0.0,0.0,0.0,0.0,0.0,0.0,0.0,0.0,0.0,0.0,0.0,0.0,0.0,0.0,0.0,0.0,0.0,0.0,0.0,0.0,0.0,0.0,0.0,0.0,0.0,0.0,0.0,0.0,0.0,0.0,0.0,0.0,0.0,0.0,0.0,0.0,0.0,0.0,0.0,0.0,0.0,0.0,0.0,0.0,0.0,0.0,0.0,0.0,0.0,0.0,0.0,0.0,0.0,0.0,0.0,0.0,0.0,0.0,0.0,0.0,0.0,0.0,0.0,0.0,0.0,0.0,0.0,0.0,0.0,0.0,0.0,0.0,0.0,0.0,0.0,0.0,0.0,0.0,0.0,0.0,0.0,0.0,0.0,0.0,0.0,0.0,0.0,0.0,0.0,0.0,0.0,0.0,0.0,0.0,0.0,0.0,0.0,0.0,0.0,0.0,0.0,0.0,0.0,0.0,0.0,0.0,0.0,0.0,0.0,0.0,0.0,0.0,0.0,0.0,0.0,0.0,0.0,0.0,0.0,0.0,0.0,0.0,0.0,0.0,0.0,0.0,0.0,0.0,0.0,0.0,0.0,0.0,0.0,0.0,0.0,0.0,0.0,0.0,0.0,0.0,0.0,0.0,0.0,0.0,0.0,0.0,0.0,0.0,0.0,0.0,0.0,0.0,0.0,0.0,0.0,0.0,0.0,0.0,0.0,0.0,0.0,0.0,0.0,0.0,0.0,0.0,0.0,0.0,0.0,0.0,0.0,0.0,0.0,0.0,0.0,0.0,0.0,0.0,0.0,0.0,0.0,0.0,0.0,0.0,0.0,0.0,0.0,0.0,0.0,0.0,0.0,0.0,0.0,0.0,0.0,0.0,0.0,0.0,0.0,0.0,0.0,0.0,0.0,0.0,0.0,0.0,0.0,0.0,0.0,0.0,0.0,0.0,0.0,0.0,0.0,0.0,0.0,0.0,0.0,0.0,0.0,0.0,0.0,0.0,0.0,0.0,0.0,0.0,0.0,0.0,0.0,0.0,0.0,0.0,0.0,0.0,0.0,0.0,0.0,0.0,0.0,0.0,0.0,0.0,0.0,0.0,0.0,0.0,0.0,0.0,0.0,0.0,0.0,0.0,0.0,0.0,0.0,0.0,0.0,0.0,0.0,0.0,0.0,0.0,0.0,0.0,0.0,0.0,0.0,0.0,0.0,0.0,0.0,0.0,0.0,0.0,0.0,0.0,0.4631,0.0,0.0,0.0,0.0,0.0,0.0,0.0,0.0,0.0,0.0,0.0,0.0,0.0,0.0,0.0,0.0,0.0,0.0,0.0,0.0,0.0,0.0,0.0,0.0,0.0,0.0,0.0,0.0,0.0,0.0,0.0,0.0,0.0,0.0,0.0,0.0,0.0,0.0,0.0,0.0,0.0,0.0,0.0,0.0,0.0,0.0,0.0,0.0,0.0,0.0,0.0,0.0,0.0,0.0,0.0,0.0,0.0,0.0,0.0,0.0,0.0,0.0,0.0,0.0,0.0,0.0,0.0,0.0,0.0,0.0,0.0,0.0,0.0,0.0,0.0,0.0,0.0,0.0,0.0,0.0,0.0,0.0,0.0,0.0,0.0,0.0,0.0,0.0,0.0,0.0,0.0,0.0,0.0,0.0,0.0,0.0,0.0,0.0,0.0,0.0,0.0,0.0,0.0,0.0,0.0,0.0,0.0,0.0,0.0,0.0,0.3208,0.337,0.3565,0.3791,0.4086,0.0,0.0,0.0,0.0,0.0,0.0,0.0,0.0,0.0,0.0,0.0,0.0,0.0,0.0,0.0,0.0,0.0,0.0,0.0,0.0,0.0,0.0,0.0,0.0,0.0,0.0,0.0,0.0,0.0,0.0,0.0,0.0,0.0,0.0,0.0,0.0,0.0,0.0,0.0,0.0,0.0,0.0,0.0,0.0,0.0,0.0,0.0,0.0,0.0,0.0,0.0,0.0,0.0,0.0,0.0,0.0,0.0,0.0,0.0,0.0,0.0,0.0,0.0,0.0,0.0,0.0,0.0,0.0,0.0,0.0,0.0,0.0,0.0,0.0,0.0,0.0,0.0,0.0,0.0,0.0,0.0,0.0,0.0,0.0,0.0,0.0,0.0,0.0,0.0,0.0,0.0,0.0,0.0,0.0,0.0,0.0,0.0,0.0,0.0,0.0,0.0,0.0,0.0,0.0,0.0,0.0,0.0,0.0,0.0,0.0,0.0,0.0,0.3035,0.3229,0.3501,0.0,0.0,0.0,0.0,0.0,0.0,0.0,0.0,0.0,0.0,0.0,0.0,0.0,0.0,0.0,0.0,0.0,0.0,0.0,0.0,0.0,0.0,0.0,0.0,0.0,0.0,0.0,0.0,0.0,0.0,0.0,0.0,0.0,0.0,0.0,0.0,0.0,0.0,0.0,0.0,0.0,0.0,0.0,0.0,0.0,0.0,0.0,0.0,0.0,0.0,0.0,0.0,0.0,0.0,0.0,0.0,0.0,0.0,0.0,0.0,0.0,0.0,0.0,0.0,0.0,0.0,0.0,0.0,0.0,0.0,0.0,0.0,0.0,0.0,0.0,0.0,0.0,0.0,0.0,0.0,0.0,0.0,0.0,0.0,0.0,0.0,0.0,0.0,0.0,0.0,0.0,0.0,0.0,0.0,0.0,0.0,0.0,0.0,0.0,0.0,0.0,0.0,0.0,0.0,0.0,0.0,0.0,0.0,0.0,0.0,0.2246,0.2474,0.2474,0.0,0.2968,0.0,0.0,0.0,0.0,0.0,0.0,0.0,0.0,0.0,0.0,0.0,0.0,0.0,0.0,0.0,0.0,0.0,0.0,0.0,0.0,0.0,0.0,0.0,0.0,0.0,0.0,0.0,0.0,0.0,0.0,0.0,0.0,0.0,0.0,0.0,0.0,0.0,0.0,0.0,0.0,0.0,0.0,0.0,0.0,0.0,0.0,0.0,0.0,0.0,0.0,0.0,0.0,0.0,0.0,0.0,0.0,0.0,0.0,0.0,0.0,0.0,0.0,0.0,0.0,0.0,0.0,0.0,0.0,0.0,0.0,0.0,0.0,0.0,0.0,0.0,0.0,0.0,0.0,0.0,0.0,0.0,0.0,0.0,0.0,0.0,0.0,0.0,0.0,0.0,0.0,0.0,0.0,0.0,0.0,0.0,0.0,0.0,0.0,0.0,0.0,0.0,0.0,0.0,0.0,0.0,0.0,0.0,0.0,0.0,0.0,0.1911,0.2178,0.2213,0.2211,0.0,0.0,0.0,0.0,0.0,0.0,0.0,0.0,0.0,0.0,0.0,0.0,0.0,0.0,0.0,0.0,0.0,0.0,0.0,0.0,0.0,0.0,0.0,0.0,0.0,0.0,0.0,0.0,0.0,0.0,0.0,0.0,0.0,0.0,0.0,0.0,0.0,0.0,0.0,0.0,0.0,0.0,0.0,0.0,0.0,0.0,0.0,0.0,0.0,0.0,0.0,0.0,0.0,0.0,0.0,0.0,0.0,0.0,0.0,0.0,0.0,0.0,0.0,0.0,0.0,0.0,0.0,0.0,0.0,0.0,0.0,0.0,0.0,0.0,0.0,0.0,0.0,0.0,0.0,0.0,0.0,0.0,0.0,0.0,0.0,0.0,0.0,0.0,0.0,0.0,0.0,0.0,0.0,0.0,0.0,0.0,0.0,0.0,0.0,0.0,0.0,0.0,0.0,0.0,0.0,0.0,0.0,0.0,0.0,0.0,0.161,0.1442,0.1475,0.1509,0.1475,0.1237,0.0,0.0,0.0,0.0,0.0,0.0,0.0,0.0,0.0,0.0,0.0,0.0,0.0,0.0,0.0,0.0,0.0,0.0,0.0,0.0,0.0,0.0,0.0,0.0,0.0,0.0,0.0,0.0,0.0,0.0,0.0,0.0,0.0,0.0,0.0,0.0,0.0,0.0,0.0,0.0,0.0,0.0,0.0,0.0,0.0,0.0,0.0,0.0,0.0,0.0,0.0,0.0,0.0,0.0,0.0,0.0,0.0,0.0,0.0,0.0,0.0,0.0,0.0,0.0,0.0,0.0,0.0,0.0,0.0,0.0,0.0,0.0,0.0,0.0,0.0,0.0,0.0,0.0,0.0,0.0,0.0,0.0,0.0,0.0,0.0,0.0,0.0,0.0,0.0,0.0,0.0,0.0,0.0,0.0,0.0,0.0,0.0,0.0,0.0,0.0,0.0,0.0,0.0,0.0,0.0,0.0,0.0,0.0,0.1709,0.1208,0.0673,0.0201,0.0201,0.0235,0.0,0.0,0.0,0.0,0.0,0.0,0.0,0.0,0.0,0.0,0.0,0.0,0.0,0.0,0.0,0.0,0.0,0.0,0.0,0.0,0.0,0.0,0.0,0.0,0.0,0.0,0.0,0.0,0.0,0.0,0.0,0.0,0.0,0.0,0.0,0.0,0.0,0.0,0.0,0.0,0.0,0.0,0.0,0.0,0.0,0.0,0.0,0.0,0.0,0.0,0.0,0.0,0.0,0.0,0.0,0.0,0.0,0.0,0.0,0.0,0.0,0.0,0.0,0.0,0.0,0.0,0.0,0.0,0.0,0.0,0.0,0.0,0.0,0.0,0.0,0.0,0.0,0.0,0.0,0.0,0.0,0.0,0.0,0.0,0.0,0.0,0.0,0.0,0.0,0.0,0.0,0.0,0.0,0.0,0.0,0.0,0.0,0.0,0.0,0.0,0.0,0.0,0.0,0.0,0.0,0.0,0.0,0.0,0.0,0.1939,0.0704,-0.0235,-0.0737,-0.1106,-0.1172,0.0,0.0,0.0,0.0,0.0,0.0,0.0,0.0,0.0,0.0,0.0,0.0,0.0,0.0,0.0,0.0,0.0,0.0,0.0,0.0,0.0,0.0,0.0,0.0,0.0,0.0,0.0,0.0,0.0,0.0,0.0,0.0,0.0,0.0,0.0,0.0,0.0,0.0,0.0,0.0,0.0,0.0,0.0,0.0,0.0,0.0,0.0,0.0,0.0,0.0,0.0,0.0,0.0,0.0,0.0,0.0,0.0,0.0,0.0,0.0,0.0,0.0,0.0,0.0,0.0,0.0,0.0,0.0,0.0,0.0,0.0,0.0,0.0,0.0,0.0,0.0,0.0,0.0,0.0,0.0,0.0,0.0,0.0,0.0,0.0,0.0,0.0,0.0,0.0,0.0,0.0,0.0,0.0,0.0,0.0,0.0,0.0,0.0,0.0,0.0,0.0,0.0,0.0,0.0,0.0,0.0,0.0,0.0,0.0,0.1677,0.0,-0.0811,-0.1475,-0.1927,-0.211,0.0,0.0,0.0,0.0,0.0,0.0,0.0,0.0,0.0,0.0,0.0,0.0,0.0,0.0,0.0,0.0,0.0,0.0,0.0,0.0,0.0,0.0,0.0,0.0,0.0,0.0,0.0,0.0,0.0,0.0,0.0,0.0,0.0,0.0,0.0,0.0,0.0,0.0,0.0,0.0,0.0,0.0,0.0,0.0,0.0,0.0,0.0,0.0,0.0,0.0,0.0,0.0,0.0,0.0,0.0,0.0,0.0,0.0,0.0,0.0,0.0,0.0,0.0,0.0,0.0,0.0,0.0,0.0,0.0,0.0,0.0,0.0,0.0,0.0,0.0,0.0,0.0,0.0,0.0,0.0,0.0,0.0,0.0,0.0,0.0,0.0,0.0,0.0,0.0,0.0,0.0,0.0,0.0,0.0,0.0,0.0,0.0,0.0,0.0,0.0,0.0,0.0,0.0,0.0,0.0,0.0,0.0,0.0,0.2526,0.0864,-0.0034,-0.103,-0.2091,-0.2347,-0.2449,0.0,0.0,0.0,0.0,0.0,0.0,0.0,0.0,0.0,0.0,0.0,0.0,0.0,0.0,0.0,0.0,0.0,0.0,0.0,0.0,0.0,0.0,0.0,0.0,0.0,0.0,0.0,0.0,0.0,0.0,0.0,0.0,0.0,0.0,0.0,0.0,0.0,0.0,0.0,0.0,0.0,0.0,0.0,0.0,0.0,0.0,0.0,0.0,0.0,0.0,0.0,0.0,0.0,0.0,0.0,0.0,0.0,0.0,0.0,0.0,0.0,0.0,0.0,0.0,0.0,0.0,0.0,0.0,0.0,0.0,0.0,0.0,0.0,0.0,0.0,0.0,0.0,0.0,0.0,0.0,0.0,0.0,0.0,0.0,0.0,0.0,0.0,0.0,0.0,0.0,0.0,0.0,0.0,0.0,0.0,0.0,0.0,0.0,0.0,0.0,0.0,0.0,0.0,0.0,0.0,0.0,0.0,0.0,0.0,0.1076,-0.0247,-0.1583,-0.2955,-0.3267,-0.3404,0.0,0.0,0.0,0.0,0.0,0.0,0.0,0.0,0.0,0.0,0.0,0.0,0.0,0.0,0.0,0.0,0.0,0.0,0.0,0.0,0.0,0.0,0.0,0.0,0.0,0.0,0.0,0.0,0.0,0.0,0.0,0.0,0.0,0.0,0.0,0.0,0.0,0.0,0.0,0.0,0.0,0.0,0.0,0.0,0.0,0.0,0.0,0.0,0.0,0.0,0.0,0.0,0.0,0.0,0.0,0.0,0.0,0.0,0.0,0.0,0.0,0.0,0.0,0.0,0.0,0.0,0.0,0.0,0.0,0.0,0.0,0.0,0.0,0.0,0.0,0.0,0.0,0.0,0.0,0.0,0.0,0.0,0.0,0.0,0.0,0.0,0.0,0.0,0.0,0.0,0.0,0.0,0.0,0.0,0.0,0.0,0.0,0.0,0.0,0.0,0.0,0.0,0.0,0.0,0.0,0.0,0.0,0.0,0.0,0.1427,-0.0139,-0.1842,-0.3701,-0.4007,-0.414,-0.4044,0.0,0.0,0.0,0.0,0.0,0.0,0.0,0.0,0.0,0.0,0.0,0.0,0.0,0.0,0.0,0.0,0.0,0.0,0.0,0.0,0.0,0.0,0.0,0.0,0.0,0.0,0.0,0.0,0.0,0.0,0.0,0.0,0.0,0.0,0.0,0.0,0.0,0.0,0.0,0.0,0.0,0.0,0.0,0.0,0.0,0.0,0.0,0.0,0.0,0.0,0.0,0.0,0.0,0.0,0.0,0.0,0.0,0.0,0.0,0.0,0.0,0.0,0.0,0.0,0.0,0.0,0.0,0.0,0.0,0.0,0.0,0.0,0.0,0.0,0.0,0.0,0.0,0.0,0.0,0.0,0.0,0.0,0.0,0.0,0.0,0.0,0.0,0.0,0.0,0.0,0.0,0.0,0.0,0.0,0.0,0.0,0.0,0.0,0.0,0.0,0.0,0.0,0.0,0.0,0.0,0.0,0.0,0.0,0.1761,0.029,-0.1697,-0.4325,-0.4528,-0.4571,0.0,0.0,0.0,0.0,0.0,0.0,0.0,0.0,0.0,0.0,0.0,0.0,0.0,0.0,0.0,0.0,0.0,0.0,0.0,0.0,0.0,0.0,0.0,0.0,0.0,0.0,0.0,0.0,0.0,0.0,0.0,0.0,0.0,0.0,0.0,0.0,0.0,0.0,0.0,0.0,0.0,0.0,0.0,0.0,0.0,0.0,0.0,0.0,0.0,0.0,0.0,0.0,0.0,0.0,0.0,0.0,0.0,0.0,0.0,0.0,0.0,0.0,0.0,0.0,0.0,0.0,0.0,0.0,0.0,0.0,0.0,0.0,0.0,0.0,0.0,0.0,0.0,0.0,0.0,0.0,0.0,0.0,0.0,0.0,0.0,0.0,0.0,0.0,0.0,0.0,0.0,0.0,0.0,0.0,0.0,0.0,0.0,0.0,0.0,0.0,0.0,0.0,0.0,0.0,0.0,0.0,0.0,0.0,0.0,0.203,0.1396,-0.0643,-0.4359,-0.4575,-0.461,0.0,0.0,0.0,0.0,0.0,0.0,0.0,0.0,0.0,0.0,0.0,0.0,0.0,0.0,0.0,0.0,0.0,0.0,0.0,0.0,0.0,0.0,0.0,0.0,0.0,0.0,0.0,0.0,0.0,0.0,0.0,0.0,0.0,0.0,0.0,0.0,0.0,0.0,0.0,0.0,0.0,0.0,0.0,0.0,0.0,0.0,0.0,0.0,0.0,0.0,0.0,0.0,0.0,0.0,0.0,0.0,0.0,0.0,0.0,0.0,0.0,0.0,0.0,0.0,0.0,0.0,0.0,0.0,0.0,0.0,0.0,0.0,0.0,0.0,0.0,0.0,0.0,0.0,0.0,0.0,0.0,0.0,0.0,0.0,0.0,0.0,0.0,0.0,0.0,0.0,0.0,0.0,0.0,0.0,0.0,0.0,0.0,0.0,0.0,0.0,0.0,0.0,0.0,0.0,0.0,0.0,0.0,0.0,0.6429,0.243,0.2934,0.1101,-0.3432,-0.4182,-0.4435,0.0,0.0,0.0,0.0,0.0,0.0,0.0,0.0,0.0,0.0,0.0,0.0,0.0,0.0,0.0,0.0,0.0,0.0,0.0,0.0,0.0,0.0,0.0,0.0,0.0,0.0,0.0,0.0,0.0,0.0,0.0,0.0,0.0,0.0,0.0,0.0,0.0,0.0,0.0,0.0,0.0,0.0,0.0,0.0,0.0,0.0,0.0,0.0,0.0,0.0,0.0,0.0,0.0,0.0,0.0,0.0,0.0,0.0,0.0,0.0,0.0,0.0,0.0,0.0,0.0,0.0,0.0,0.0,0.0,0.0,0.0,0.0,0.0,0.0,0.0,0.0,0.0,0.0,0.0,0.0,0.0,0.0,0.0,0.0,0.0,0.0,0.0,0.0,0.0,0.0,0.0,0.0,0.0,0.0,0.0,0.0,0.0,0.0,0.0,0.0,0.0,0.0,0.0,0.0,0.0,0.0,0.0,0.0,0.6882,0.313,0.4444,0.2939,-0.1679,-0.3367,-0.4121,0.0,0.0,0.0,0.0,0.0,0.0,0.0,0.0,0.0,0.0,0.0,0.0,0.0,0.0,0.0,0.0,0.0,0.0,0.0,0.0,0.0,0.0,0.0,0.0,0.0,0.0,0.0,0.0,0.0,0.0,0.0,0.0,0.0,0.0,0.0,0.0,0.0,0.0,0.0,0.0,0.0,0.0,0.0,0.0,0.0,0.0,0.0,0.0,0.0,0.0,0.0,0.0,0.0,0.0,0.0,0.0,0.0,0.0,0.0,0.0,0.0,0.0,0.0,0.0,0.0,0.0,0.0,0.0,0.0,0.0,0.0,0.0,0.0,0.0,0.0,0.0,0.0,0.0,0.0,0.0,0.0,0.0,0.0,0.0,0.0,0.0,0.0,0.0,0.0,0.0,0.0,0.0,0.0,0.0,0.0,0.0,0.0,0.0,0.0,0.0,0.0,0.0,0.0,0.0,0.0,0.0,0.0,0.0,0.6819,0.3794,0.4278,0.2985,-0.0352,-0.2317,-0.3239,0.0,0.0,0.0,0.0,0.0,0.0,0.0,0.0,0.0,0.0,0.0,0.0,0.0,0.0,0.0,0.0,0.0,0.0,0.0,0.0,0.0,0.0,0.0,0.0,0.0,0.0,0.0,0.0,0.0,0.0,0.0,0.0,0.0,0.0,0.0,0.0,0.0,0.0,0.0,0.0,0.0,0.0,0.0,0.0,0.0,0.0,0.0,0.0,-0.3541,0.0,0.0,0.0,0.0,0.0,0.0,0.0,0.0,0.0,0.0,0.0,0.0,0.0,0.0,0.0,0.0,0.0,0.0,0.0,0.0,0.0,0.0,0.0,0.0,0.0,0.0,0.0,0.0,0.0,0.0,0.0,0.0,0.0,0.0,0.0,0.0,0.0,0.0,0.0,0.0,0.0,0.0,0.0,0.0,0.0,0.0,0.0,0.0,0.0,0.0,0.0,0.0,0.0,0.0,0.0,0.0,0.0,0.0,0.0,0.6934,0.4605,0.4659,0.3426,0.0743,-0.0552,-0.1546,0.0,0.0,0.0,0.0,0.0,0.0,0.0,0.0,0.0,0.0,0.0,0.0,0.0,0.0,0.0,0.0,0.0,0.0,0.0,0.0,0.0,0.0,0.0,0.0,0.0,0.0,0.0,0.0,0.0,0.0,0.0,0.0,0.0,0.0,0.0,0.0,0.0,0.0,0.0,0.0,0.0,0.0,0.0,0.0,0.0,0.0,0.0,0.0,0.0,0.0,0.0,0.0,0.0,0.0,0.0,0.0,0.0,0.0,0.0,0.0,0.0,0.0,0.0,0.0,0.0,0.0,0.0,0.0,0.0,0.0,0.0,0.0,0.0,0.0,0.0,0.0,0.0,0.0,0.0,0.0,0.0,0.0,0.0,0.0,0.0,0.0,0.0,0.0,0.0,0.0,0.0,0.0,0.0,0.0,0.0,0.0,0.0,0.0,0.0,0.0,0.0,0.0,0.0,0.0,0.0,0.0,0.0,0.8526,0.7178,0.55,0.5246,0.4016,0.1709,0.1221,0.0286,-0.1204,0.0,0.0,0.0,0.0,0.0,0.0,0.0,0.0,0.0,0.0,0.0,0.0,0.0,0.0,0.0,0.0,0.0,0.0,0.0,0.0,0.0,0.0,0.0,0.0,0.0,0.0,0.0,0.0,0.0,0.0,0.0,0.0,0.0,0.0,0.0,0.0,0.0,0.0,-0.7404,-0.794,0.0,0.0,0.0,0.0,0.0,0.0,0.0,0.0,-0.6589,0.0,0.0,0.0,0.0,0.0,0.0,0.0,0.0,0.0,0.0,0.0,0.0,0.0,0.0,0.0,0.0,0.0,0.0,0.0,0.0,0.0,0.0,0.0,0.0,0.0,0.0,0.0,0.0,0.0,0.0,0.0,0.0,0.0,0.0,0.0,0.0,0.0,0.0,0.0,0.0,0.0,0.0,0.0,0.0,0.0,0.0,0.0,0.0,0.0,0.0,0.0,0.0,0.0,0.0,0.0,0.0,1.0369,0.8912,0.7594,0.6401,0.5696,0.4521,0.278,0.1942,0.1227,0.0712,0.0,0.0,0.0,0.0,0.0,0.0,0.0,0.0,0.0,0.0,0.0,0.0,0.0,0.0,0.0,0.0,0.0,0.0,0.0,0.0,0.0,0.0,0.0,0.0,0.0,0.0,0.0,0.0,0.0,0.0,0.0,0.0,0.0,0.0,0.0,0.0,0.0,0.0,0.0,-1.0012,-0.9876,0.0,0.0,0.0,0.0,0.0,0.0,0.0,0.0,-0.8212,0.0,0.0,0.0,0.0,0.0,0.0,0.0,0.0,0.0,0.0,0.0,0.0,0.0,0.0,0.0,0.0,0.0,0.0,0.0,0.0,0.0,0.0,0.0,0.0,0.0,0.0,0.0,0.0,0.0,0.0,0.0,0.0,0.0,0.0,0.0,0.0,0.0,0.0,0.0,0.0,0.0,0.0,0.0,0.0,0.0,0.0,0.0,0.0,0.0,0.0,0.0,0.0,0.0,0.0,0.0,1.0357,0.8998,0.7878,0.7038,0.6238,0.508,0.3523,0.2613,0.19,0.0,0.0,0.0,0.0,0.0,0.0,0.0,0.0,0.0,0.0,0.0,0.0,0.0,0.0,0.0,0.0,0.0,0.0,0.0,0.0,0.0,0.0,0.0,0.0,0.0,0.0,0.0,0.0,0.0,0.0,0.0,0.0,0.0,0.0,0.0,0.0,0.0,0.0,0.0,0.0,-1.1649,-1.1542,-1.0903,0.0,0.0,0.0,0.0,0.0,0.0,-1.0064,-0.9921,0.0,0.0,0.0,0.0,0.0,0.0,0.0,0.0,0.0,0.0,0.0,0.0,0.0,0.0,0.0,0.0,0.0,0.0,0.0,0.0,0.0,0.0,0.0,0.0,0.0,0.0,0.0,0.0,0.0,0.0,0.0,0.0,0.0,0.0,0.0,0.0,0.0,0.0,0.0,0.0,0.0,0.0,0.0,0.0,0.0,0.0,0.0,0.0,0.0,0.0,0.0,0.0,0.0,0.0,0.0,1.015,0.9098,0.8203,0.7513,0.6695,0.5592,0.4132,0.3203,0.2409,0.0,0.0,0.0,0.0,0.0,0.0,0.0,0.0,0.0,0.0,0.0,0.0,0.0,0.0,0.0,0.0,0.0,0.0,0.0,0.0,0.0,0.0,0.0,0.0,0.0,0.0,0.0,0.0,0.0,0.0,0.0,0.0,0.0,0.0,0.0,0.0,0.0,0.0,0.0,0.0,0.0,-1.3301,-1.2742,-1.2785,0.0,0.0,0.0,0.0,-1.1562,-1.1431,0.0,0.0,0.0,0.0,0.0,0.0,0.0,0.0,0.0,0.0,0.0,0.0,0.0,0.0,0.0,0.0,0.0,0.0,0.0,0.0,0.0,0.0,0.0,0.0,0.0,0.0,0.0,0.0,0.0,0.0,0.0,0.0,0.0,0.0,0.0,0.0,0.0,0.0,0.0,0.0,0.0,0.0,0.0,0.0,0.0,0.0,0.0,0.0,0.0,0.0,0.0,0.0,0.0,0.0,0.0,0.0,1.0049,0.9426,0.8687,0.7855,0.7002,0.598,0.483,0.3639,0.2807,0.0,0.0,0.0,0.0,0.0,0.0,0.0,0.0,0.0,0.0,0.0,0.0,0.0,0.0,0.0,0.0,0.0,0.0,0.0,0.0,0.0,0.0,0.0,0.0,0.0,0.0,0.0,0.0,0.0,0.0,0.0,0.0,0.0,0.0,0.0,0.0,0.0,0.0,0.0,0.0,0.0,-1.5359,-1.4808,-1.4579,-1.4292,0.0,0.0,-1.3064,-1.2662,-1.2585,0.0,0.0,0.0,0.0,0.0,0.0,0.0,0.0,0.0,0.0,0.0,0.0,0.0,0.0,0.0,0.0,0.0,0.0,0.0,0.0,0.0,0.0,0.0,0.0,0.0,0.0,0.0,0.0,0.0,0.0,0.0,0.0,0.0,0.0,0.0,0.0,0.0,0.0,0.0,0.0,0.0,0.0,0.0,0.0,0.0,0.0,0.0,0.0,0.0,0.0,0.0,0.0,0.0,0.0,0.0,1.0212,0.9492,0.9227,0.8692,0.7923,0.7268,0.6387,0.5245,0.3908,0.2972,0.0,0.0,0.0,0.0,0.0,0.0,0.0,0.0,0.0,0.0,0.0,0.0,0.0,0.0,0.0,0.0,0.0,0.0,0.0,0.0,0.0,0.0,0.0,0.0,0.0,0.0,0.0,0.0,0.0,0.0,0.0,0.0,0.0,0.0,0.0,0.0,0.0,0.0,0.0,0.0,0.0,0.0,-1.6852,-1.6338,0.0,0.0,0.0,-1.3558,-1.3208,0.0,0.0,0.0,0.0,0.0,0.0,0.0,0.0,0.0,0.0,0.0,0.0,0.0,0.0,0.0,0.0,0.0,0.0,0.0,0.0,0.0,0.0,0.0,0.0,0.0,0.0,0.0,0.0,0.0,0.0,0.0,0.0,0.0,0.0,0.0,0.0,0.0,0.0,0.0,0.0,0.0,0.0,0.0,0.0,0.0,0.0,0.0,0.0,0.0,0.0,0.0,0.0,0.0,0.0,0.0,0.0,0.0,0.8954,0.9056,0.8723,0.7968,0.7528,0.6725,0.5544,0.4145,0.0,0.0,0.0,0.0,0.0,0.0,0.0,0.0,0.0,0.0,0.0,0.0,0.0,0.0,0.0,0.0,0.0,0.0,0.0,0.0,0.0,0.0,0.0,0.0,0.0,0.0,0.0,-0.6268,0.0,0.0,0.0,0.0,0.0,0.0,0.0,0.0,0.0,0.0,0.0,0.0,0.0,0.0,-1.9031,-1.8636,-1.7959,-1.716,0.0,0.0,-1.3841,-1.35,-1.2842,-1.2388,0.0,0.0,0.0,0.0,0.0,0.0,0.0,0.0,0.0,0.0,0.0,0.0,0.0,0.0,0.0,0.0,0.0,0.0,0.0,0.0,0.0,0.0,0.0,0.0,0.0,0.0,0.0,0.0,0.0,0.0,0.0,0.0,0.0,0.0,0.0,0.0,0.0,0.0,0.0,0.0,0.0,0.0,0.0,0.0,0.0,0.0,0.0,0.0,0.0,0.0,0.0,0.0,0.0,0.0,0.9436,0.8578,0.9098,0.8959,0.8115,0.7752,0.6915,0.5617,0.4404,0.3262,0.0,0.0,0.0,0.0,0.0,0.0,0.0,0.0,0.0,0.0,0.0,0.0,0.0,0.0,0.0,0.0,0.0,0.0,0.0,0.0,0.0,0.0,0.0,0.0,0.0,0.0,0.0,0.0,0.0,0.0,0.0,0.0,0.0,0.0,0.0,0.0,0.0,0.0,0.0,0.0,0.0,-2.0492,-2.0009,-1.9236,-1.8189,0.0,-1.5098,-1.3905,-1.3637,-1.289,-1.2374,-1.2307,0.0,0.0,0.0,0.0,0.0,0.0,0.0,0.0,0.0,0.0,0.0,0.0,0.0,0.0,0.0,0.0,0.0,0.0,0.0,0.0,0.0,0.0,0.0,0.0,0.0,0.0,0.0,0.0,0.0,0.0,0.0,0.0,0.0,0.0,0.0,0.0,0.0,0.0,0.0,0.0,0.0,0.0,0.0,0.0,0.0,0.0,0.0,0.0,0.0,0.0,0.0,0.0,0.0,0.9526,0.9556,0.934,0.9213,0.9171,0.8069,0.6872,0.5624,0.4355,0.3256,0.0,0.0,0.0,0.0,0.0,0.0,0.0,0.0,0.0,0.0,0.0,0.0,0.0,0.0,0.0,0.0,0.0,0.0,0.0,0.0,0.0,0.0,0.0,0.0,0.0,0.0,0.0,0.0,-1.233,-1.3072,-1.3134,0.0,0.0,0.0,0.0,0.0,0.0,0.0,0.0,0.0,0.0,-2.1578,-2.0831,-2.0222,0.0,0.0,-1.491,-1.3398,-1.3034,-1.2295,-1.1647,-1.1365,-1.136,0.0,0.0,0.0,0.0,0.0,0.0,0.0,0.0,0.0,0.0,0.0,0.0,0.0,0.0,0.0,0.0,0.0,0.0,0.0,0.0,0.0,0.0,0.0,0.0,0.0,0.0,0.8848,0.8973,0.0,0.0,0.0,0.0,0.0,0.0,0.0,0.0,0.0,0.0,0.0,0.0,0.0,0.0,0.0,0.0,0.0,0.0,0.0,0.0,0.0,0.0,0.0,0.0,0.9584,1.0079,0.9417,0.9332,0.9812,0.8252,0.6798,0.5564,0.4354,0.3273,0.0,0.0,0.0,0.0,0.0,0.0,0.0,0.0,0.0,0.0,0.0,0.0,0.0,0.0,0.0,0.0,0.0,0.0,0.0,0.0,0.0,0.0,0.0,0.0,0.0,0.0,0.0,0.0,-1.4608,-1.5278,-1.529,0.0,0.0,0.0,0.0,0.0,0.0,0.0,0.0,0.0,0.0,-2.24,-2.1417,-2.0582,-1.9307,-1.7131,-1.4653,-1.2845,-1.239,-1.1538,-1.0912,-1.0681,0.0,0.0,0.0,0.0,0.0,0.0,0.0,0.0,0.0,0.0,0.0,0.0,0.0,0.0,0.0,0.0,0.0,0.0,0.0,0.0,0.0,0.0,0.0,0.0,0.0,0.0,0.0,0.7829,0.0,0.0,0.8416,0.0,0.0,0.0,0.0,0.0,0.0,0.0,0.0,0.0,0.0,0.0,0.0,0.0,0.0,0.0,0.0,0.0,0.0,0.0,0.0,0.0,0.0,0.9682,0.9933,0.9404,0.9277,0.9682,0.8203,0.6768,0.5446,0.4429,0.3385,0.2315,0.0,0.0,0.0,0.0,0.0,0.0,0.0,0.0,0.0,0.0,0.0,0.0,0.0,0.0,0.0,0.0,0.0,0.0,0.0,0.0,0.0,0.0,0.0,0.0,0.0,0.0,-1.5232,-1.6115,-1.6768,0.0,0.0,0.0,0.0,0.0,0.0,0.0,0.0,0.0,-2.392,-2.3575,-2.2898,-2.1826,-2.0169,-1.8462,-1.6794,-1.4278,-1.2292,-1.1688,-1.0821,-1.0298,0.0,0.0,0.0,0.0,0.0,0.0,0.0,0.0,0.0,0.0,0.0,0.0,0.0,0.0,0.0,0.0,0.0,0.0,0.0,0.0,0.0,0.0,0.0,0.0,0.0,0.0,0.0,0.5548,0.6045,0.0,0.0,0.0,0.0,0.0,0.0,0.0,0.0,0.0,0.0,0.0,-0.1828,-0.2547,0.0,0.0,0.0,0.0,0.0,0.0,0.0,0.0,0.0,0.0,0.0,0.0,1.1934,1.2706,1.1383,1.0766,1.09,0.8837,0.6988,0.5526,0.4538,0.3362,0.1877,0.0,0.0,0.0,0.0,0.0,0.0,0.0,0.0,0.0,0.0,0.0,0.0,0.0,0.0,0.0,0.0,0.0,0.0,0.0,0.0,0.0,0.0,0.0,0.0,0.0,-1.7145,0.0,0.0,0.0,0.0,0.0,0.0,0.0,0.0,0.0,0.0,-2.3811,-2.4164,-2.4201,-2.3668,-2.2772,-2.1383,-1.9695,-1.7859,0.0,0.0,0.0,0.0,0.0,0.0,0.0,0.0,0.0,0.0,0.0,0.0,0.0,0.0,-2.0283,-2.0573,-2.0914,-2.1244,-2.1492,0.0,0.0,0.0,0.0,0.0,0.0,0.0,0.0,0.0,0.0,0.0,0.0,0.0,0.0,0.3587,0.4343,0.4981,0.0,0.0,0.0,0.0,0.0,0.0,0.0,0.0,0.2667,0.0618,-0.1247,-0.2053,-0.2725,-0.3124,-0.2947,-0.2319,0.0,0.0,0.0,0.0,0.0,0.0,0.0,0.0,1.291,1.3864,1.2308,1.1494,1.153,0.9145,0.7164,0.5737,0.4438,0.3146,0.1827,0.0665,-0.0365,0.0,0.0,0.0,0.0,0.0,0.0,0.0,0.0,0.0,0.0,0.0,0.0,0.0,0.0,0.0,0.0,0.0,0.0,0.0,0.0,0.0,0.0,0.0,-1.9089,0.0,0.0,0.0,0.0,0.0,0.0,0.0,0.0,0.0,-2.4128,-2.4324,-2.4397,-2.4155,-2.3421,-2.2298,-2.0621,0.0,0.0,0.0,0.0,0.0,0.0,0.0,-0.8922,-0.9025,-1.0182,-1.1677,-1.3593,-1.5997,-1.8021,-1.9133,0.0,0.0,-2.0983,-2.1416,-2.1698,-2.1841,-2.2037,-2.2278,-2.247,-2.2918,-2.3268,0.0,0.0,0.0,0.0,-0.1279,0.0,0.0,0.0,0.0929,0.173,0.0,0.3401,0.0,0.0,0.0,0.0,1.049,0.9358,0.0,0.0,0.37,0.1628,-0.0267,-0.1113,-0.2005,-0.2943,-0.2545,-0.2233,-0.1784,-0.0089,0.205,0.0,0.0,0.0,0.0,0.0,1.2595,1.3395,1.2143,1.1505,1.161,0.9179,0.7299,0.6077,0.4157,0.2842,0.2222,0.105,-0.0091,-0.1281,-0.2068,0.0,0.0,0.0,0.0,0.0,0.0,0.0,0.0,0.0,0.0,0.0,0.0,0.0,0.0,0.0,0.0,0.0,0.0,0.0,0.0,-1.9954,0.0,0.0,0.0,0.0,0.0,0.0,0.0,0.0,0.0,-2.4897,-2.4532,-2.4484,-2.43,-2.381,0.0,0.0,0.0,0.0,-1.5532,-1.3424,-1.1523,-0.9857,-0.8633,-0.8248,-0.825,-0.893,0.0,0.0,-1.4989,-1.6451,-1.7578,-1.891,-1.9488,-2.0055,-2.0881,-2.1396,-2.1752,-2.1888,-2.1983,-2.2184,-2.2363,-2.2618,-2.2979,0.0441,0.0,0.0,0.0,0.0,-0.275,-0.2171,-0.1463,-0.0757,0.0223,0.1383,0.24,0.0,0.0,0.0,0.0,0.0,0.0,0.9376,0.7463,0.5353,0.3448,0.1717,0.0755,-0.0045,-0.0709,-0.0754,-0.0622,-0.04,0.0754,0.2195,0.3881,0.0,0.0,0.0,0.0,1.3867,1.4318,1.3569,1.264,1.1569,0.9784,0.7832,0.5739,0.4443,0.3427,0.2579,0.1643,0.054,-0.0638,-0.1798,0.0,0.0,0.0,0.0,0.0,0.0,0.0,0.0,0.0,0.0,0.0,0.0,0.0,0.0,0.0,0.0,0.0,0.0,0.0,-2.0309,-2.0663,-2.0907,0.0,0.0,0.0,0.0,0.0,0.0,0.0,0.0,0.0,-2.3644,-2.3699,-2.3592,0.0,0.0,-1.997,-1.7984,-1.5796,-1.3646,-1.1585,-0.9858,0.0,-0.732,-0.7157,-0.7396,-0.8156,-1.0291,-1.2623,-1.4641,-1.5933,-1.7013,-1.7895,-1.8519,-1.8877,-1.8975,-2.0062,-2.0917,-2.1097,-2.1146,-2.1279,-2.1527,-2.1759,-2.1801,0.2939,0.0869,-0.1013,-0.2083,-0.2566,-0.2119,-0.1634,-0.115,-0.0489,0.0134,0.0716,0.2092,0.3876,0.5967,0.8065,0.0,0.0,0.0,1.0128,0.8617,0.6753,0.5132,0.3805,0.2735,0.2077,0.1763,0.1322,0.1104,0.1152,0.1945,0.2902,0.4095,0.0,0.8608,1.1024,1.2827,1.3951,1.4397,1.4005,1.3144,1.1863,0.9882,0.7793,0.5662,0.468,0.3712,0.2778,0.1949,0.094,-0.0268,-0.1534,-0.2705,0.0,0.0,0.0,0.0,0.0,0.0,0.0,0.0,0.0,0.0,0.0,-1.2521,-1.3874,0.0,0.0,0.0,-1.9564,-2.0495,-2.1039,-2.1015,0.0,0.0,0.0,0.0,0.0,0.0,0.0,-2.3481,-2.3938,-2.3772,-2.233,-2.2021,-2.1882,-2.1555,-2.0123,-1.8324,-1.6182,0.0,-1.187,-0.9926,-0.843,-0.7202,-0.6423,-0.6498,-0.7052,-0.8209,-1.0279,-1.2264,-1.3669,-1.4736,-1.5567,-1.6218,-1.6714,-1.6938,-1.6717,-1.7557,-1.8596,-1.9336,-1.9496,-1.9532,-1.9733,-1.9852,-1.9836,0.6126,0.5103,0.2293,0.0612,-0.0087,0.0393,0.0658,0.0747,0.1191,0.1154,0.0892,0.2441,0.4572,0.7071,0.9253,0.0,1.1547,1.1014,1.0316,0.9499,0.7991,0.6812,0.5854,0.4764,0.4293,0.4353,0.347,0.2988,0.2906,0.3391,0.4085,0.5078,0.654,0.8274,1.0159,1.2012,1.3268,1.3861,1.3709,1.3206,1.2301,0.9674,0.7455,0.5879,0.492,0.3928,0.29,0.2103,0.1119,-0.0134,-0.1344,-0.2594,-0.3985,0.0,0.0,0.0,0.0,0.0,0.0,0.0,0.0,0.0,0.0,0.0,0.0,0.0,0.0,-1.9675,-2.0765,0.0,-2.1363,-2.1063,0.0,0.0,0.0,-2.2081,-2.1733,-2.31,-2.3643,-2.2468,0.0,0.0,-2.0751,-1.9826,-1.9382,-1.969,-1.8339,-1.6536,-1.4272,-1.2096,-1.012,-0.8332,-0.7188,-0.6298,-0.583,-0.616,-0.7091,-0.874,-1.0104,-1.1248,-1.2355,-1.3118,-1.3678,-1.4223,-1.4385,-1.446,-1.4405,-1.4442,-1.4934,-1.6495,-1.7098,-1.7273,-1.7364,-1.746,-1.7533,0.8828,0.8122,0.7254,0.5045,0.2127,0.2262,0.2397,0.2494,0.2727,0.2922,0.3204,0.4077,0.5902,0.848,0.9837,1.1014,1.2029,1.1529,1.1084,1.0623,0.9536,0.8508,0.7497,0.6729,0.6235,0.5944,0.5471,0.5169,0.5036,0.526,0.5777,0.6509,0.7643,0.8764,0.9906,1.1614,1.2834,1.3608,1.3729,1.3119,1.1709,1.0139,0.8593,0.7108,0.5847,0.4573,0.3287,0.2082,0.0937,-0.0179,-0.176,-0.3161,-0.4247,-0.5719,0.0,0.0,0.0,0.0,0.0,0.0,0.0,0.0,0.0,-1.6671,-1.7718,0.0,-1.9619,0.0,-2.1087,-2.1261,-2.099,-2.073,0.0,0.0,-2.0918,-2.1197,-2.1569,-2.2041,-2.2001,-2.1093,-2.086,-2.0267,-1.8973,-1.7974,-1.691,-1.5803,-1.5295,-1.4267,-1.2077,-1.0085,-0.8257,-0.6817,-0.5864,-0.5277,-0.5289,-0.6097,-0.727,-0.8407,-0.9566,-1.0583,-1.1351,-1.1911,-1.2359,-1.2494,-1.2527,-1.2338,-1.1822,-1.1714,-1.1696,-1.2025,-1.369,-1.5413,-1.5504,-1.5528,-1.548,1.1113,1.0641,1.0474,0.9043,0.6804,0.585,0.54,0.5391,0.5339,0.5421,0.555,0.6184,0.7524,0.9353,1.0209,1.1175,1.2108,1.1957,1.1684,1.1276,1.0446,0.9568,0.8617,0.8059,0.7619,0.7222,0.6902,0.6809,0.688,0.6897,0.72,0.7788,0.8609,0.9541,1.0505,1.1721,1.28,1.3702,1.3947,1.3451,1.2094,1.0866,0.9492,0.7881,0.6422,0.4935,0.3468,0.2046,0.0803,-0.0268,-0.1967,-0.3402,-0.45,-0.6033,-0.7634,0.0,0.0,0.0,0.0,0.0,0.0,0.0,0.0,0.0,0.0,0.0,-2.0235,-2.0811,-2.1015,-2.0974,-2.0571,-2.0285,-2.0213,-2.0296,-2.0147,-1.9991,-1.9818,-2.004,-1.9885,-1.9041,-1.8647,-1.8016,-1.6937,-1.5899,-1.4597,-1.2941,-1.2244,-1.1403,-1.0019,-0.8287,-0.6758,-0.5601,-0.4954,-0.4791,-0.5171,-0.6246,-0.7268,-0.8218,-0.9113,-0.9833,-1.0359,-1.057,-1.0674,-1.055,-1.0365,-1.0013,-0.945,-0.9312,-0.9193,-0.9159,-1.0248,-1.18,-1.2786,-1.3015,-1.292,1.3048,1.2755,1.2624,1.2378,1.1926,1.0034,0.8989,0.8554,0.8335,0.8097,0.7814,0.8415,0.9226,1.0108,1.0613,1.1318,1.215,1.2249,1.2062,1.1647,1.0999,1.0228,0.9427,0.8958,0.8562,0.8194,0.7931,0.7967,0.8314,0.8193,0.8411,0.8905,0.9617,1.0472,1.1569,1.2313,1.3175,1.4175,1.4372,1.3997,1.3001,1.1773,1.0237,0.8508,0.6816,0.5179,0.3554,0.2046,0.0758,-0.0358,-0.1967,-0.3431,-0.465,-0.616,-0.7827,0.0,-1.1245,0.0,0.0,0.0,0.0,0.0,0.0,0.0,0.0,-2.0432,-2.0564,-2.0778,-2.0745,-2.0538,-2.0147,-1.9767,-1.9546,-1.9475,-1.9185,-1.8597,-1.7605,-1.7807,-1.7702,-1.6825,-1.6254,-1.5638,-1.4913,-1.3843,-1.2474,-1.1014,-0.9643,-0.8664,-0.7998,-0.6793,-0.5588,-0.4743,-0.4467,-0.4794,-0.5662,-0.6477,-0.7297,-0.8212,-0.8778,-0.9106,-0.9445,-0.9326,-0.8981,-0.8629,-0.8239,-0.7726,-0.722,-0.715,-0.7103,-0.6912,-0.7294,-0.8176,-0.9813,-1.0372,-1.0304,1.4299,1.418,1.398,1.3749,1.3462,1.2826,1.1784,1.0532,1.0276,1.0055,0.9871,1.0142,1.0583,1.1137,1.144,1.1903,1.2395,1.2264,1.215,1.1982,1.1163,1.0549,1.0083,0.9328,0.888,0.8746,0.8405,0.85,0.8925,0.8903,0.9298,1.0094,1.0805,1.1645,1.2604,0.0,0.0,0.0,1.5241,1.4873,1.4002,1.2827,1.1267,0.9421,0.7625,0.0,0.4024,0.2399,0.0937,-0.0358,-0.1783,0.0,0.0,0.0,0.0,0.0,0.0,0.0,0.0,0.0,0.0,0.0,-1.9178,-1.9556,-2.0792,-2.0903,-2.073,-2.0285,-2.0131,-1.9907,-1.9588,-1.9155,-1.8731,-1.8328,-1.778,-1.7209,-1.6606,-1.6318,-1.5875,-1.5392,-1.471,-1.4109,-1.3454,-1.2289,-1.1006,-0.986,-0.8357,-0.7095,-0.63,-0.5599,-0.4899,-0.441,-0.4632,-0.523,-0.6147,-0.6899,-0.7658,-0.8359,-0.8794,-0.8949,-0.8942,-0.8613,-0.8103,-0.7456,-0.6778,-0.6193,-0.5487,-0.5294,-0.5316,-0.5144,-0.5305,-0.5995,-0.785,-0.8423,-0.8521,1.5128,1.5006,1.4773,1.449,0.0,1.3868,1.3219,1.2325,1.1791,1.1446,1.1266,1.1329,1.1568,1.1909,1.2138,1.2371,1.2585,1.2508,1.2324,1.2115,1.1357,1.0728,1.0177,0.937,0.8955,0.8835,0.854,0.876,0.9432,0.9495,0.9834,1.0462,1.1612,1.2718,1.3754,1.5147,1.5897,1.6039,1.6042,1.5679,1.4877,1.3716,1.2212,1.0343,0.8403,0.0,0.0,0.0,0.0,0.0,0.0,0.0,0.0,-0.5884,-0.7327,-0.8754,-1.0105,-1.1362,-1.2578,-1.4234,-1.5714,-1.6979,-1.7915,-1.8851,-1.9861,-1.9881,-1.9797,-1.9647,-1.9753,-1.9713,-1.9319,-1.8936,-1.8303,-1.7382,-1.6725,-1.6096,-1.5333,-1.4965,-1.4595,-1.4075,-1.3453,-1.2793,-1.2106,-1.1002,-0.9887,-0.8803,-0.7587,-0.6524,-0.5723,-0.5014,-0.452,-0.4463,-0.5173,-0.5934,-0.6743,-0.7545,-0.819,-0.8774,-0.8885,-0.8796,-0.8529,-0.7888,-0.7143,-0.6415,-0.5691,-0.5052,-0.4485,-0.4262,-0.422,-0.4163,-0.4313,-0.4803,-0.5906,-0.6503,-0.6887,1.5485,1.5335,1.5177,1.4907,1.454,1.4227,1.3927,1.3608,1.2931,0.0,0.0,1.2288,1.2365,1.2556,1.2668,1.2745,1.2745,1.2709,1.252,1.2223,1.1526,1.0884,1.025,0.9483,0.9078,0.8937,0.8716,0.9072,0.9908,1.0118,1.0502,1.1083,1.2191,1.3178,1.4123,1.551,1.6257,1.6324,1.6587,1.6347,1.5634,1.4484,1.299,1.124,0.925,0.7189,0.5162,0.3714,0.2056,0.0316,-0.1165,-0.2588,-0.3921,-0.5327,-0.6693,-0.7911,-0.9134,-1.0348,-1.1549,-1.2673,-1.3606,-1.4356,-1.6174,-1.7663,-1.8416,-1.8638,-1.8747,-1.8867,-1.9362,-1.9484,-1.9093,-1.8796,-1.8118,-1.679,-1.6125,-1.5353,-1.4376,-1.3935,-1.3637,-1.3117,-1.2545,-1.181,-1.1049,-1.0123,-0.9141,-0.814,-0.7283,-0.6426,-0.5778,-0.5071,-0.4686,-0.5005,-0.5821,-0.6691,-0.7393,-0.8196,-0.8817,-0.9103,-0.9011,-0.8696,-0.8151,-0.7334,-0.6506,-0.5884,-0.5054,-0.4449,-0.3892,-0.3773,-0.3711,-0.3633,-0.3909,-0.4194,-0.4411,-0.4975,-0.5546,1.4995,1.4847,1.5318,1.5255,1.4818,1.454,1.4195,1.3801,1.3323,1.3082,1.3053,1.2996,1.2984,1.3088,1.2937,1.2867,1.2867,1.2739,1.2597,1.2348,1.1555,1.1132,1.0911,1.0096,0.9641,0.9548,0.9406,0.9685,1.0291,1.0857,1.1731,1.273,1.2426,1.2101,1.2077,1.2594,1.367,1.5198,1.6452,1.6775,1.6106,1.5036,1.3676,1.2072,1.013,0.8106,0.5997,0.4223,0.2616,0.1078,-0.0472,-0.1898,-0.3191,-0.439,-0.5545,-0.6747,-0.7729,-0.8751,-0.9899,-1.0817,-1.1861,-1.3241,-1.4356,-1.5768,-1.7672,-1.8309,-1.8433,-1.8084,-1.8618,-1.887,-1.8508,-1.8512,-1.8162,-1.7219,-1.6201,-1.5311,-1.4607,-1.3748,-1.3025,-1.2662,-1.2017,-1.1322,-1.06,-0.9714,-0.8928,-0.8206,-0.7503,-0.6743,-0.6418,-0.5773,-0.5616,-0.5991,-0.674,-0.7495,-0.8143,-0.8837,-0.922,-0.9202,-0.9186,-0.8875,-0.8129,-0.7424,-0.6736,-0.6072,-0.5297,-0.4584,-0.3865,-0.3672,-0.3818,-0.3968,-0.4146,-0.4256,-0.4471,-0.4675,-0.4739,1.503,1.4878,1.5415,1.5389,1.4928,1.4529,1.3987,1.3458,1.3188,1.3238,1.3412,1.3357,1.3329,1.3295,1.3151,1.3012,1.2902,1.2774,1.2556,1.2259,1.1531,1.1103,1.0851,1.0059,0.9614,0.9581,0.9437,0.976,1.0546,1.1417,1.179,1.1546,1.0794,1.0769,1.1533,1.2984,1.4153,1.5041,1.568,1.615,1.6391,1.5359,1.4076,1.2545,1.0718,0.8792,0.6793,0.4998,0.3293,0.1794,0.029,-0.1101,-0.2259,-0.3382,-0.4476,-0.5529,-0.6296,-0.7052,-0.7694,-0.8781,-1.0061,-1.143,-1.2405,-1.358,-1.513,-1.6446,-1.7351,-1.7705,-1.8311,-1.8726,-1.8693,-1.8557,-1.8167,-1.7426,-1.6084,-1.5001,-1.439,-1.3451,-1.2715,-1.2421,-1.1877,-1.1213,-1.0498,-0.9766,-0.9089,-0.8471,-0.7922,-0.7697,-0.7797,-0.7744,-0.7475,-0.7216,-0.7797,-0.8498,-0.8984,-0.9573,-0.9872,-0.9829,-0.9501,-0.9004,-0.827,-0.752,-0.6696,-0.6007,-0.5472,-0.505,-0.4599,-0.4629,-0.4764,-0.4901,-0.4901,-0.5018,-0.5139,-0.5028,-0.4717,1.5116,1.4907,1.5479,1.5389,1.4824,1.4265,1.3668,1.311,1.2896,1.3042,1.3382,1.3327,1.3337,1.3397,1.3232,1.3019,1.2867,1.2703,1.2443,1.2092,1.157,1.1196,1.081,1.0068,0.9705,0.967,0.9546,0.9977,1.0862,1.16,1.0995,0.9392,0.8835,0.9154,1.0154,1.2508,1.3929,1.4422,1.474,1.5444,1.6461,1.5541,1.4321,1.2892,1.1194,0.9408,0.7591,0.5862,0.4196,0.2628,0.1243,-0.0103,-0.1285,-0.2309,-0.323,-0.4116,-0.4833,-0.5435,-0.5968,-0.7076,-0.8289,-0.9607,-1.0641,-1.1697,-1.2822,-1.4435,-1.5906,-1.7048,-1.7858,-1.8393,-1.8516,-1.8477,-1.8098,-1.7332,-1.5981,-1.4977,-1.4328,-1.3514,-1.286,-1.2599,-1.213,-1.161,-1.0797,-1.0198,-0.9646,-0.9057,-0.8761,-0.8908,-0.928,-0.9636,-0.9415,-0.8992,-0.9159,-0.9596,-0.9873,-1.0297,-1.0521,-1.0379,-0.9918,-0.9263,-0.8571,-0.7664,-0.6867,-0.6296,-0.6034,-0.6086,-0.6088,-0.5978,-0.6041,-0.6139,-0.6097,-0.604,-0.6097,-0.5834,-0.5245,1.5068,1.4842,1.5423,1.5263,1.4516,1.3724,1.332,1.308,1.2469,1.2465,1.2825,1.2769,1.2953,1.3312,1.3076,1.2832,1.2697,1.2591,1.2276,1.1945,1.1802,1.1529,1.1095,1.056,1.0266,1.0208,1.0184,1.065,1.1571,1.0783,0.9262,0.7275,0.7174,0.6974,0.6786,0.8744,1.0714,1.2473,1.3841,1.5148,1.6278,1.5477,1.4387,1.3088,1.1614,0.9998,0.8241,0.6861,0.5345,0.3767,0.2525,0.1284,-0.0055,-0.1004,-0.1843,-0.2566,-0.3231,-0.4004,-0.5103,-0.5971,-0.6926,-0.8047,-0.9408,-1.0637,-1.1702,-1.2923,-1.422,-1.5538,-1.6969,-1.766,-1.7373,-1.7844,-1.7864,-1.7076,-1.6136,-1.5416,-1.4884,-1.4297,-1.3762,-1.3427,-1.3048,-1.2582,-1.162,-1.11,-1.0545,-0.9847,-0.9902,-1.0147,-1.0454,-1.0906,-1.1208,-1.1053,-1.0859,-1.0626,-1.0804,-1.1019,-1.1019,-1.0589,-1.0391,-0.979,-0.8997,-0.856,-0.8243,-0.7173,-0.7077,-0.7532,-0.7888,-0.7775,-0.7182,-0.7446,-0.7337,-0.7139,-0.6979,-0.6754,-0.6209,1.4763,1.4516,1.5236,1.5066,1.4312,1.3476,1.2852,1.238,1.1641,1.1515,1.1808,1.159,1.2042,1.3006,1.2726,1.2514,1.2335,1.2035,1.1768,1.1468,1.1282,1.0981,1.0611,0.9972,0.9702,0.9804,0.9755,1.051,1.1391,0.9944,0.7951,0.6059,0.5134,0.5353,0.6844,0.927,1.1522,1.3584,1.5061,1.5805,1.5674,1.51,1.4132,1.2826,1.1611,1.0181,0.8533,0.7301,0.5991,0.443,0.3364,0.2259,0.1004,0.0112,-0.0726,-0.162,-0.2454,-0.3345,-0.4286,-0.5105,-0.6027,-0.716,-0.8426,-0.9677,-1.091,-1.2052,-1.322,-1.4441,-1.592,-1.6854,-1.6888,-1.7252,-1.7162,-1.6502,-1.57,-1.5054,-1.4761,-1.4181,-1.3755,-1.3638,-1.3471,-1.3168,-1.2533,-1.189,-1.14,-1.0976,-1.1074,-1.1362,-1.1814,-1.2213,-1.2463,-1.2614,-1.2418,-1.208,-1.176,-1.1773,-1.1634,-1.1296,-1.0985,-1.0394,-0.9839,-0.9378,-0.9005,-0.8243,-0.8427,-0.8859,-0.9636,-0.9296,-0.8757,-0.887,-0.8703,-0.8456,-0.8048,-0.7859,-0.7425,1.4459,1.441,1.4795,1.4603,1.3946,1.3009,1.2253,1.1613,1.0781,1.0536,1.075,1.0496,1.0938,1.1896,1.2033,1.1962,1.1737,1.1351,1.1051,1.0824,1.0519,1.0249,0.9913,0.9129,0.8888,0.9102,0.9177,0.96,1.0245,0.8936,0.6678,0.4323,0.3043,0.4118,0.7189,0.989,1.2316,1.438,1.5831,1.6047,1.5151,1.4578,1.3756,1.2537,1.1481,1.021,0.8717,0.7701,0.657,0.5192,0.4197,0.315,0.2063,0.1117,0.0056,-0.0951,-0.1844,-0.2626,-0.3461,-0.4281,-0.5269,-0.6465,-0.7694,-0.8905,-1.0147,-1.1316,-1.2414,-1.3469,-1.4674,-1.5639,-1.6411,-1.6499,-1.6363,-1.5906,-1.5169,-1.472,-1.4582,-1.4199,-1.4126,-1.4102,-1.4178,-1.3874,-1.3368,-1.2738,-1.218,-1.2027,-1.2223,-1.2497,-1.2938,-1.3288,-1.3552,-1.3716,-1.3668,-1.3314,-1.2603,-1.2407,-1.2309,-1.2066,-1.1739,-1.1335,-1.0823,-1.0403,-1.003,-0.9577,-0.9745,-0.9917,-1.0379,-1.0246,-0.9927,-0.9967,-0.9814,-0.9585,-0.9159,-0.8941,-0.8707,1.423,1.428,1.392,1.3551,1.3245,1.2127,1.1485,1.107,0.9903,0.952,0.9724,0.9595,0.9692,1.0031,1.0745,1.1099,1.0911,1.0537,1.0225,0.9914,0.9688,0.9412,0.9022,0.8236,0.7994,0.8256,0.8654,0.8079,0.6654,0.7221,0.5208,0.0976,0.1317,0.322,0.664,0.9528,1.198,1.4291,1.5526,1.5572,1.4606,1.396,1.324,1.2283,1.1276,1.0222,0.9107,0.8155,0.7161,0.6161,0.5148,0.411,0.296,0.1845,0.0615,-0.056,-0.1065,-0.1736,-0.2681,-0.362,-0.4613,-0.5821,-0.7168,-0.8392,-0.9488,-1.0732,-1.1837,-1.2683,-1.3269,-1.4143,-1.5331,-1.569,-1.5626,-1.524,-1.4909,-1.4714,-1.4655,-1.4765,-1.4958,-1.509,-1.5138,-1.4841,-1.4008,-1.3475,-1.3169,-1.3057,-1.3165,-1.3389,-1.3622,-1.4034,-1.4332,-1.4463,-1.4406,-1.4093,-1.3362,-1.303,-1.2924,-1.2648,-1.2357,-1.2113,-1.1725,-1.1327,-1.102,-1.0748,-1.0564,-1.0648,-1.0969,-1.093,-1.0564,-1.0497,-1.0673,-1.0477,-1.0011,-0.9856,-0.9709,1.2565,1.2456,1.2222,1.1926,1.156,1.0774,1.0308,0.9958,0.9062,0.8735,0.8844,0.8684,0.857,0.8525,0.8728,0.9178,0.964,0.9275,0.8916,0.867,0.8387,0.8102,0.7807,0.7113,0.6955,0.7297,0.7773,0.7195,0.585,0.6907,0.515,0.1274,0.1154,0.3759,0.7803,0.9961,1.2411,1.5439,1.5861,1.5271,1.4239,1.3596,1.2816,1.1845,1.1177,1.0214,0.8956,0.8432,0.757,0.6399,0.5443,0.4448,0.3404,0.2014,0.0841,-0.0056,-0.0785,-0.157,-0.2348,-0.3347,-0.4395,-0.5544,-0.6791,-0.8028,-0.9134,-1.0297,-1.1315,-1.2139,-1.2606,-1.3193,-1.373,-1.4308,-1.4554,-1.4294,-1.439,-1.446,-1.4592,-1.4902,-1.5215,-1.5503,-1.5763,-1.5588,-1.4826,-1.4525,-1.4337,-1.3904,-1.3988,-1.4201,-1.444,-1.476,-1.4994,-1.5137,-1.5017,-1.4737,-1.4392,-1.3789,-1.3415,-1.3165,-1.287,-1.244,-1.2016,-1.1686,-1.1349,-1.0955,-1.0875,-1.0703,-1.0772,-1.0962,-1.0732,-1.0805,-1.1,-1.1044,-1.0867,-1.0631,-1.054,1.0978,1.0811,1.0681,1.0487,1.0146,0.9624,0.9245,0.896,0.8274,0.7899,0.7819,0.7645,0.7387,0.7036,0.6786,0.6912,0.7512,0.7541,0.7473,0.7266,0.6935,0.6726,0.6522,0.5976,0.5905,0.6557,0.8067,0.7664,0.5838,0.6985,0.516,0.0869,0.1259,0.3833,0.7844,0.9824,1.239,1.5107,1.5637,1.5048,1.4059,1.3332,1.2505,1.1588,1.0979,1.0197,0.9042,0.8518,0.7778,0.6681,0.5698,0.4615,0.3293,0.2071,0.1065,0.0336,-0.0561,-0.1402,-0.2183,-0.313,-0.4233,-0.538,-0.6529,-0.7777,-0.8893,-0.9873,-1.0821,-1.1595,-1.1961,-1.2175,-1.2479,-1.2893,-1.3204,-1.3277,-1.354,-1.3875,-1.4254,-1.4567,-1.5005,-1.5472,-1.579,-1.5682,-1.5221,-1.5206,-1.4973,-1.4554,-1.4697,-1.496,-1.5101,-1.5293,-1.5486,-1.5602,-1.5476,-1.5222,-1.492,-1.4449,-1.4082,-1.3789,-1.3128,-1.2676,-1.2266,-1.1945,-1.1557,-1.1174,-1.0844,-1.0588,-1.0574,-1.0784,-1.0893,-1.0949,-1.1147,-1.122,-1.1239,-1.1377,-1.1208,0.9577,0.9399,0.946,0.9236,0.8938,0.8525,0.8313,0.7992,0.7456,0.6975,0.6702,0.6528,0.6107,0.5519,0.5107,0.471,0.4651,0.5373,0.582,0.5709,0.5406,0.5285,0.5214,0.4783,0.5046,0.5848,0.9282,0.9254,0.6474,0.727,0.5603,0.189,0.1419,0.3158,0.6325,0.8722,1.1281,1.3572,1.4737,1.4805,1.4075,1.3229,1.2358,1.1451,1.0714,1.0007,0.9354,0.849,0.772,0.7028,0.5923,0.4453,0.2852,0.2016,0.14,0.0561,-0.0393,-0.1233,-0.207,-0.3015,-0.4121,-0.5218,-0.6428,-0.7563,-0.857,-0.9503,-1.0354,-1.1108,-1.1266,-1.1298,-1.1638,-1.1761,-1.1922,-1.2329,-1.2599,-1.3054,-1.3722,-1.3976,-1.431,-1.5185,-1.561,-1.5504,-1.5274,-1.5312,-1.5308,-1.5177,-1.5232,-1.5457,-1.5499,-1.5676,-1.5782,-1.581,-1.5733,-1.562,-1.534,-1.5057,-1.4737,-1.4359,-1.3544,-1.2862,-1.2418,-1.2059,-1.1465,-1.1065,-1.0775,-1.0528,-1.0413,-1.0634,-1.0836,-1.0972,-1.1216,-1.1417,-1.1496,-1.1585,-1.1706,0.7409,0.7186,0.7164,0.7011,0.6804,0.6688,0.6554,0.6407,0.616,0.5862,0.5496,0.5314,0.4848,0.4198,0.3677,0.3187,0.27,0.278,0.3178,0.3845,0.3803,0.3719,0.3688,0.3561,0.4335,0.6163,0.8923,0.9715,0.8494,0.8171,0.6444,0.3797,0.1936,0.261,0.4858,0.6862,0.9274,1.2395,1.3674,1.4078,1.3865,1.3367,1.2531,1.142,1.0608,0.9907,0.9245,0.8488,0.7747,0.6969,0.5878,0.4453,0.2853,0.2075,0.1345,0.0448,-0.0168,-0.1009,-0.2071,-0.307,-0.4065,-0.5222,-0.6315,-0.745,-0.8468,-0.9298,-1.0022,-1.0677,-1.0783,-1.0941,-1.111,-1.1147,-1.1419,-1.1916,-1.2458,-1.2991,-1.3697,-1.4457,-1.5138,-1.5645,-1.6019,-1.5964,-1.5725,-1.5688,-1.5648,-1.5517,-1.5591,-1.578,-1.6001,-1.6027,-1.6077,-1.6119,-1.6025,-1.5931,-1.5653,-1.5379,-1.5068,-1.4642,-1.3891,-1.3114,-1.2632,-1.2032,-1.1466,-1.0959,-1.0671,-1.0519,-1.0404,-1.0442,-1.0689,-1.1027,-1.1284,-1.1463,-1.1651,-1.1819,-1.2052,0.5783,0.5432,0.5401,0.5252,0.5001,0.5054,0.5052,0.4987,0.5004,0.4793,0.4478,0.4463,0.3869,0.3005,0.2331,0.1733,0.1247,0.0713,0.0935,0.1734,0.2181,0.2316,0.2588,0.2853,0.3849,0.5815,0.832,0.9525,0.9458,0.8642,0.7163,0.4903,0.2291,0.1445,0.2826,0.4356,0.6683,0.9489,1.1758,1.3048,1.3297,1.3593,1.3108,1.1808,1.0825,1.0008,0.9246,0.8362,0.7557,0.6686,0.5433,0.3843,0.2293,0.1682,0.1066,0.028,-0.0336,-0.1065,-0.2295,-0.3076,-0.3958,-0.5058,-0.6098,-0.7182,-0.8196,-0.8984,-0.9677,-1.0201,-1.0565,-1.0777,-1.0926,-1.1023,-1.129,-1.18,-1.228,-1.2967,-1.3657,-1.4665,-1.5294,-1.5597,-1.5779,-1.5852,-1.5782,-1.5846,-1.5873,-1.5784,-1.5913,-1.6106,-1.6331,-1.6324,-1.6343,-1.6355,-1.6306,-1.6132,-1.5919,-1.5659,-1.5396,-1.4891,-1.4283,-1.3466,-1.2829,-1.2074,-1.1425,-1.0835,-1.0483,-1.0463,-1.0353,-1.0411,-1.0558,-1.093,-1.1335,-1.159,-1.1846,-1.2248,-1.2456,0.4636,0.4183,0.4119,0.3918,0.3656,0.3658,0.3697,0.3798,0.3841,0.3675,0.3497,0.3528,0.3021,0.192,0.1027,0.0402,-0.0089,-0.0536,-0.0715,-0.0357,0.0223,0.0937,0.165,0.2317,0.3362,0.4921,0.7375,0.902,0.9858,0.8929,0.7591,0.5701,0.2562,0.0346,0.0372,0.1489,0.3152,0.5467,0.9052,1.1211,1.2176,1.3568,1.3807,1.2527,1.1405,1.0332,0.9343,0.7969,0.7009,0.6369,0.4501,0.2843,0.1732,0.112,0.0561,-0.0112,-0.0617,-0.1457,-0.2465,-0.3078,-0.3798,-0.4844,-0.5828,-0.681,-0.7821,-0.8672,-0.942,-0.9995,-1.0462,-1.082,-1.1074,-1.1272,-1.1549,-1.1932,-1.2291,-1.2831,-1.3693,-1.4628,-1.5121,-1.5188,-1.5233,-1.5369,-1.5545,-1.5718,-1.5866,-1.6013,-1.6182,-1.6461,-1.6596,-1.6614,-1.6546,-1.6503,-1.6515,-1.6337,-1.6126,-1.5792,-1.5525,-1.5213,-1.4591,-1.385,-1.2999,-1.2233,-1.1631,-1.1008,-1.0719,-1.0625,-1.0566,-1.0736,-1.076,-1.0954,-1.135,-1.1748,-1.2135,-1.2476,-1.2788,0.3881,0.367,0.296,0.2421,0.2054,0.2086,0.2021,0.1985,0.2129,0.2031,0.1827,0.1741,0.1381,0.0626,-0.0134,-0.0716,-0.1163,-0.1564,-0.1787,-0.1876,-0.1742,-0.0804,0.0312,0.1247,0.2303,0.3668,0.5888,0.8278,1.0467,0.9178,0.8062,0.729,0.2858,-0.0245,-0.1515,-0.1458,-0.0387,0.1538,0.4988,0.8356,1.0774,1.2342,1.3329,1.36,1.2368,1.1027,0.967,0.7242,0.5821,0.5521,0.362,0.2063,0.1117,0.0392,-0.0168,-0.0673,-0.1234,-0.1739,-0.2297,-0.2853,-0.3627,-0.4673,-0.5557,-0.6591,-0.7664,-0.8458,-0.9204,-0.9892,-1.0419,-1.0879,-1.123,-1.1528,-1.2022,-1.2608,-1.2745,-1.3132,-1.3836,-1.4466,-1.4923,-1.5182,-1.5447,-1.557,-1.5697,-1.5824,-1.5957,-1.6138,-1.6312,-1.6534,-1.6718,-1.6846,-1.6778,-1.6778,-1.6735,-1.6552,-1.6293,-1.5963,-1.5697,-1.5463,-1.4873,-1.4194,-1.3312,-1.2394,-1.1964,-1.1506,-1.1704,-1.1714,-1.1534,-1.1529,-1.14,-1.1359,-1.1763,-1.2336,-1.2377,-1.2609,-1.302,0.3103,0.2381,0.1484,0.0768,0.0319,0.0319,0.0219,0.0153,0.0315,0.0369,0.0257,0.0308,0.0045,-0.0492,-0.1342,-0.179,-0.2013,-0.2458,-0.2682,-0.2812,-0.2943,-0.2227,-0.107,-0.0178,0.0797,0.2193,0.4287,0.6955,0.927,0.9059,0.8399,0.6864,0.3273,-0.0349,-0.3464,-0.4332,-0.4077,-0.2398,0.088,0.4824,0.912,1.1381,1.3476,1.4436,1.3685,1.1883,0.9316,0.664,0.4937,0.4065,0.2564,0.1228,0.0224,-0.0392,-0.0896,-0.1345,-0.1683,-0.1907,-0.224,-0.2686,-0.3351,-0.4233,-0.5171,-0.6206,-0.723,-0.819,-0.9044,-0.9829,-1.0352,-1.0922,-1.1423,-1.1873,-1.2372,-1.2818,-1.3137,-1.352,-1.4104,-1.4518,-1.4932,-1.5295,-1.5525,-1.5659,-1.5786,-1.5875,-1.6007,-1.6144,-1.6355,-1.6577,-1.6754,-1.6924,-1.7009,-1.696,-1.6827,-1.6644,-1.6337,-1.6007,-1.5703,-1.5468,-1.5002,-1.4344,-1.3771,-1.286,-1.2571,-1.2424,-1.264,-1.2715,-1.251,-1.2313,-1.2322,-1.2388,-1.2653,-1.2796,-1.2887,-1.3064,-1.3414,0.2247,0.0685,-0.0109,-0.0861,-0.1426,-0.1547,-0.1572,-0.1645,-0.1485,-0.1315,-0.11,-0.0844,-0.0981,-0.1477,-0.2192,-0.2684,-0.2594,-0.3129,-0.3437,-0.3656,-0.3869,-0.3504,-0.2662,-0.1954,-0.0973,0.0439,0.2632,0.5015,0.7071,0.825,0.8256,0.6597,0.3654,-0.0179,-0.3537,-0.6132,-0.726,-0.6149,-0.2966,0.1566,0.6542,0.9928,1.295,1.5192,1.4374,1.1794,0.8796,0.615,0.4263,0.2559,0.1394,0.0224,-0.0841,-0.1343,-0.1566,-0.1903,-0.1907,-0.1963,-0.2184,-0.252,-0.3022,-0.385,-0.473,-0.5716,-0.6797,-0.7868,-0.8883,-0.9769,-1.0348,-1.0968,-1.1673,-1.2175,-1.2529,-1.2876,-1.3185,-1.3658,-1.4233,-1.4645,-1.5006,-1.5379,-1.5474,-1.557,-1.5709,-1.5792,-1.5875,-1.6013,-1.6269,-1.6577,-1.6754,-1.6924,-1.696,-1.6996,-1.6863,-1.6686,-1.6386,-1.605,-1.5742,-1.5412,-1.4967,-1.4472,-1.4288,-1.366,-1.3362,-1.3275,-1.347,-1.3491,-1.3312,-1.3206,-1.3173,-1.3162,-1.3308,-1.3433,-1.3608,-1.3782,-1.4041,0.1072,-0.0435,-0.1167,-0.2269,-0.3341,-0.3328,-0.3294,-0.3397,-0.3112,-0.2773,-0.2513,-0.2184,-0.2054,-0.2101,-0.255,-0.2819,-0.308,-0.3571,-0.4098,-0.4753,-0.5012,-0.5127,-0.4674,-0.3972,-0.2867,-0.1576,-0.0,0.22,0.4334,0.5925,0.7177,0.7504,0.4011,0.0276,-0.2134,-0.5948,-0.8802,-0.8687,-0.6112,-0.1942,0.3211,0.8096,1.1982,1.467,1.3745,1.1542,0.8645,0.5844,0.3421,0.1555,0.0335,-0.0726,-0.1903,-0.224,-0.2295,-0.2352,-0.2241,-0.2185,-0.224,-0.2519,-0.2855,-0.3629,-0.4508,-0.5445,-0.6588,-0.7599,-0.8659,-0.9603,-1.0348,-1.1015,-1.1823,-1.2175,-1.2475,-1.2774,-1.3094,-1.3415,-1.391,-1.4384,-1.4794,-1.5062,-1.5249,-1.5385,-1.557,-1.5697,-1.5786,-1.5925,-1.6188,-1.6534,-1.6712,-1.6882,-1.6967,-1.6996,-1.6827,-1.665,-1.6349,-1.5963,-1.5603,-1.5385,-1.4975,-1.4715,-1.4523,-1.4327,-1.3991,-1.4053,-1.4289,-1.4203,-1.4058,-1.405,-1.4058,-1.3996,-1.3956,-1.4034,-1.42,-1.4444,-1.4471,0.0446,-0.0933,-0.2186,-0.3415,-0.4355,-0.4549,-0.4685,-0.4693,-0.4367,-0.3947,-0.3495,-0.3033,-0.2726,-0.2503,-0.2684,-0.2997,-0.3439,-0.4096,-0.4797,-0.545,-0.5838,-0.6127,-0.6407,-0.5879,-0.5038,-0.3761,-0.2346,-0.0468,0.1458,0.347,0.5014,0.6203,0.4605,0.1815,-0.155,-0.4522,-0.7077,-0.9412,-0.7878,-0.3952,0.1576,0.6741,1.2083,1.4779,1.4092,1.1482,0.8461,0.5663,0.3082,0.0887,-0.0557,-0.1675,-0.2742,-0.3026,-0.3022,-0.3077,-0.2798,-0.263,-0.2686,-0.2685,-0.2964,-0.3629,-0.44,-0.5332,-0.6369,-0.7444,-0.8448,-0.9451,-1.0245,-1.0981,-1.1787,-1.2081,-1.2328,-1.251,-1.2856,-1.319,-1.3615,-1.4145,-1.4616,-1.484,-1.4994,-1.5176,-1.5351,-1.5468,-1.5653,-1.5748,-1.6063,-1.6411,-1.6614,-1.6791,-1.6924,-1.6924,-1.6791,-1.6571,-1.6269,-1.5875,-1.5468,-1.5249,-1.5113,-1.4959,-1.4874,-1.4721,-1.4596,-1.4693,-1.48,-1.4957,-1.4905,-1.4871,-1.4856,-1.4856,-1.4812,-1.4777,-1.4781,-1.4931,-1.488,0.0232,-0.1169,-0.298,-0.4132,-0.4831,-0.5305,-0.5516,-0.5577,-0.5185,-0.4463,-0.4003,-0.3434,-0.295,-0.273,-0.2641,-0.2953,-0.3614,-0.4447,-0.519,-0.5879,-0.6313,-0.6732,-0.7056,-0.7085,-0.6813,-0.5681,-0.4519,-0.2998,-0.1218,0.1042,0.2636,0.3174,0.4927,0.2579,-0.1798,-0.2982,-0.4766,-0.8382,-0.7013,-0.3294,0.2364,0.729,1.2438,1.6371,1.4825,1.162,0.8466,0.5539,0.2868,0.0278,-0.1393,-0.2622,-0.3408,-0.3691,-0.3803,-0.3909,-0.3518,-0.3294,-0.3239,-0.3183,-0.3294,-0.3852,-0.4453,-0.5275,-0.6369,-0.7393,-0.8346,-0.9295,-1.0194,-1.0934,-1.1554,-1.1886,-1.2067,-1.221,-1.2569,-1.2958,-1.3334,-1.3858,-1.4228,-1.4564,-1.4713,-1.4851,-1.5028,-1.5198,-1.5385,-1.5653,-1.5925,-1.6237,-1.6442,-1.6607,-1.6748,-1.6754,-1.662,-1.6362,-1.6063,-1.5748,-1.534,-1.5153,-1.5068,-1.5028,-1.5074,-1.4988,-1.4852,-1.5095,-1.5242,-1.5326,-1.541,-1.5366,-1.5372,-1.5552,-1.5511,-1.5381,-1.5345,-1.5418,-1.534,0.0556,-0.113,-0.2731,-0.3932,-0.4797,-0.5415,-0.559,-0.5588,-0.5005,-0.4428,-0.3728,-0.3388,-0.2861,-0.2464,-0.2147,-0.2587,-0.3429,-0.4355,-0.5229,-0.5956,-0.6477,-0.7034,-0.745,-0.7686,-0.772,-0.7626,-0.6523,-0.5112,-0.3829,-0.1922,0.0154,0.1602,0.1543,-0.0254,-0.1105,-0.2526,-0.3966,-0.5762,-0.4315,-0.0615,0.3971,0.8577,1.2868,1.715,1.467,1.1388,0.8347,0.5265,0.2427,0.0056,-0.1728,-0.3124,-0.413,-0.4413,-0.4519,-0.4513,-0.4234,-0.4012,-0.3955,-0.3793,-0.3907,-0.4349,-0.495,-0.5605,-0.6532,-0.7495,-0.8504,-0.9454,-1.0395,-1.1226,-1.1381,-1.1723,-1.1977,-1.2126,-1.2372,-1.2671,-1.2958,-1.3286,-1.3652,-1.4087,-1.4326,-1.4523,-1.4662,-1.488,-1.5108,-1.5379,-1.5697,-1.5969,-1.6231,-1.6355,-1.6485,-1.6491,-1.6448,-1.615,-1.5848,-1.5531,-1.5216,-1.5017,-1.4932,-1.4937,-1.4937,-1.5028,-1.5119,-1.5159,-1.5289,-1.5445,-1.5546,-1.5659,-1.5742,-1.578,-1.5818,-1.5863,-1.5824,-1.5748,-1.5748,0.0933,-0.0475,-0.1849,-0.3061,-0.3989,-0.4557,-0.4778,-0.4689,-0.4111,-0.3495,-0.2883,-0.2313,-0.1829,-0.1431,-0.1208,-0.1783,-0.289,-0.4091,-0.4877,-0.5604,-0.6249,-0.6859,-0.7325,-0.761,-0.7859,-0.7769,-0.7207,-0.6596,-0.5885,-0.4327,-0.2386,-0.0827,-0.0163,-0.016,-0.134,-0.1372,-0.2802,-0.3069,-0.1577,0.1603,0.567,0.9971,1.4033,1.5257,1.3716,1.0262,0.6742,0.452,0.2045,-0.0111,-0.1896,-0.3291,-0.4294,-0.4961,-0.5179,-0.5171,-0.495,-0.4785,-0.4781,-0.4677,-0.4787,-0.5228,-0.566,-0.6204,-0.7017,-0.7928,-0.8873,-0.9825,-1.0454,-1.1129,-1.1289,-1.1628,-1.1778,-1.1923,-1.217,-1.2407,-1.2545,-1.2745,-1.3137,-1.3568,-1.3858,-1.4098,-1.4296,-1.4523,-1.4829,-1.5102,-1.5424,-1.5697,-1.5975,-1.61,-1.6182,-1.6132,-1.6094,-1.583,-1.5576,-1.5345,-1.508,-1.4886,-1.4789,-1.4754,-1.4759,-1.4851,-1.4903,-1.4949,-1.5159,-1.5367,-1.5608,-1.5671,-1.583,-1.5957,-1.5951,-1.5951,-1.605,-1.6057,-1.5977,0.1528,0.0444,-0.0667,-0.1728,-0.2693,-0.3132,-0.3265,-0.3175,-0.2645,-0.2031,-0.1465,-0.08,-0.0223,-0.0,-0.0089,-0.0623,-0.1909,-0.315,-0.4031,-0.4769,-0.5505,-0.6158,-0.6677,-0.6972,-0.7172,-0.7081,-0.6875,-0.7059,-0.6742,-0.5735,-0.4819,-0.3329,-0.0372,-0.0529,-0.3096,-0.165,-0.1646,-0.1109,-0.0072,0.3313,0.7215,1.1138,1.3961,1.4911,1.2106,0.8595,0.5595,0.3448,0.1662,-0.0223,-0.1842,-0.3294,-0.4348,-0.5122,-0.5616,-0.5773,-0.5666,-0.5668,-0.578,-0.5719,-0.5823,-0.6211,-0.6532,-0.702,-0.7664,-0.8564,-0.9454,-1.036,-1.0824,-1.1133,-1.1344,-1.1586,-1.1728,-1.1828,-1.2026,-1.2264,-1.23,-1.2452,-1.2662,-1.305,-1.3387,-1.3626,-1.3868,-1.4208,-1.4518,-1.4794,-1.5119,-1.534,-1.5614,-1.5748,-1.583,-1.578,-1.5691,-1.5468,-1.5289,-1.5147,-1.488,-1.4708,-1.461,-1.4569,-1.4575,-1.4627,-1.4673,-1.4713,-1.4937,-1.5193,-1.5435,-1.5715,-1.5842,-1.5969,-1.6001,-1.599,-1.5966,-1.591,-1.583,0.2736,0.1689,0.0847,-0.0044,-0.0705,-0.1101,-0.1234,-0.1145,-0.0616,-0.0088,0.0398,0.0931,0.142,0.1688,0.1554,0.0797,-0.0354,-0.1505,-0.2611,-0.3534,-0.4387,-0.5062,-0.5615,-0.5893,-0.592,-0.5842,-0.559,-0.6101,-0.6105,-0.5726,-0.5623,-0.4733,-0.4382,-0.4512,-0.4259,-0.3343,-0.2438,-0.1499,0.0491,0.3913,0.812,1.1323,1.2136,1.1283,0.944,0.7356,0.5294,0.3146,0.1111,-0.0279,-0.179,-0.3073,-0.407,-0.4792,-0.5506,-0.5941,-0.6268,-0.6438,-0.6601,-0.6699,-0.6797,-0.7128,-0.7393,-0.7774,-0.8514,-0.9242,-1.0127,-1.0761,-1.112,-1.1276,-1.1486,-1.1728,-1.1828,-1.1927,-1.2026,-1.2175,-1.2215,-1.2201,-1.2368,-1.2524,-1.2856,-1.3142,-1.343,-1.3821,-1.4208,-1.4482,-1.4759,-1.5028,-1.5204,-1.5385,-1.548,-1.5424,-1.5385,-1.5165,-1.4971,-1.4823,-1.4645,-1.4477,-1.4384,-1.4337,-1.4291,-1.4249,-1.4337,-1.4425,-1.4697,-1.4971,-1.521,-1.5486,-1.5804,-1.5981,-1.605,-1.5929,-1.5774,-1.5711,-1.5763,0.4199,0.324,0.253,0.2081,0.1762,0.1276,0.1055,0.1144,0.154,0.1895,0.2337,0.2865,0.3268,0.3406,0.3184,0.2429,0.1323,0.0221,-0.0974,-0.2101,-0.2936,-0.3659,-0.4246,-0.4726,-0.487,-0.4114,-0.3662,-0.3155,-0.3767,-0.458,-0.503,-0.5224,-0.5726,-0.601,-0.5808,-0.5742,-0.4633,-0.2682,0.0435,0.3951,0.6638,0.8194,0.864,0.781,0.6233,0.5049,0.3793,0.2162,0.0446,-0.0671,-0.1904,-0.2854,-0.3685,-0.4405,-0.5067,-0.5778,-0.6265,-0.664,-0.695,-0.7393,-0.7771,-0.8084,-0.8408,-0.8886,-0.9569,-1.0131,-1.0694,-1.1217,-1.1477,-1.1628,-1.1678,-1.1873,-1.1868,-1.1918,-1.1972,-1.1972,-1.2071,-1.2071,-1.2121,-1.2224,-1.2377,-1.271,-1.3045,-1.3435,-1.3821,-1.4057,-1.4378,-1.4656,-1.4794,-1.4932,-1.4977,-1.5023,-1.4989,-1.4908,-1.4748,-1.4553,-1.4368,-1.4192,-1.4057,-1.4004,-1.391,-1.391,-1.3957,-1.4145,-1.4378,-1.4656,-1.4937,-1.53,-1.5659,-1.5881,-1.6063,-1.5948,-1.5869,-1.604,-1.6031,0.5553,0.4841,0.4215,0.3972,0.3932,0.3437,0.3214,0.3301,0.3566,0.3874,0.4267,0.4785,0.5139,0.5062,0.4708,0.404,0.2985,0.2028,0.089,-0.0271,-0.1203,-0.1794,-0.2248,-0.2844,-0.2817,-0.2033,-0.1168,-0.0534,-0.0386,-0.1051,-0.2172,-0.42,-0.5466,-0.6603,-0.7574,-0.7847,-0.7226,-0.5367,-0.1758,0.1039,0.2851,0.3619,0.3846,0.3499,0.2918,0.2196,0.1549,0.0556,-0.0447,-0.1344,-0.1904,-0.263,-0.3297,-0.3962,-0.4625,-0.5391,-0.6046,-0.674,-0.7272,-0.7815,-0.8471,-0.8949,-0.9357,-0.9829,-1.0604,-1.0964,-1.1217,-1.1678,-1.1877,-1.1923,-1.1918,-1.2076,-1.2017,-1.1968,-1.1918,-1.1864,-1.1814,-1.1868,-1.1923,-1.2026,-1.218,-1.2328,-1.271,-1.3099,-1.3387,-1.3668,-1.3952,-1.4233,-1.4373,-1.4512,-1.461,-1.4656,-1.4662,-1.4627,-1.4436,-1.4239,-1.4051,-1.3858,-1.3721,-1.3626,-1.3568,-1.3525,-1.3631,-1.3821,-1.4051,-1.4384,-1.4708,-1.5114,-1.5519,-1.5786,-1.5988,-1.6059,-1.6077,-1.6206,-1.5995,0.657,0.6454,0.5675,0.5338,0.532,0.5189,0.5103,0.5053,0.5409,0.5666,0.5956,0.6593,0.6768,0.6606,0.6292,0.5628,0.4534,0.3808,0.2918,0.1981,0.1131,0.0581,0.0148,-0.005,-0.005,0.0651,0.1748,0.2769,0.3353,0.353,0.1084,-0.2123,-0.4147,-0.6323,-0.8164,-0.9344,-0.9645,-0.823,-0.5724,-0.4116,-0.2583,-0.1571,-0.0796,-0.043,-0.0491,-0.0387,0.0056,-0.0669,-0.123,-0.2017,-0.2128,-0.2294,-0.2906,-0.3519,-0.4181,-0.495,-0.5878,-0.6576,-0.7219,-0.8084,-0.8854,-0.9445,-1.001,-1.0502,-1.1167,-1.1477,-1.1832,-1.213,-1.2278,-1.2224,-1.2224,-1.2224,-1.2071,-1.1923,-1.1823,-1.1719,-1.1719,-1.1669,-1.1773,-1.1877,-1.2031,-1.213,-1.2278,-1.2666,-1.3007,-1.3291,-1.3483,-1.3763,-1.3994,-1.4134,-1.428,-1.4332,-1.4378,-1.4291,-1.4067,-1.3921,-1.3773,-1.3578,-1.3387,-1.3329,-1.3223,-1.3233,-1.3301,-1.3573,-1.3852,-1.4186,-1.4523,-1.4926,-1.5334,-1.5697,-1.5882,-1.5947,-1.5825,-1.5781,-1.545,0.7786,0.7749,0.7321,0.6763,0.6096,0.6226,0.6292,0.6368,0.6579,0.6952,0.7412,0.7792,0.8002,0.7912,0.7694,0.7214,0.6419,0.5796,0.4997,0.4217,0.347,0.3085,0.2792,0.2567,0.2497,0.3472,0.5023,0.6584,0.7351,0.6774,0.4902,0.17,-0.2233,-0.4725,-0.7089,-1.0763,-1.1867,-1.1376,-1.0078,-0.8731,-0.744,-0.6164,-0.5037,-0.4172,-0.3338,-0.2815,-0.2218,-0.2062,-0.2123,-0.2126,-0.2128,-0.2294,-0.2516,-0.3073,-0.3739,-0.4457,-0.5494,-0.6305,-0.7109,-0.8078,-0.9155,-1.0054,-1.0565,-1.107,-1.1573,-1.1877,-1.218,-1.2431,-1.2529,-1.2421,-1.2426,-1.2278,-1.2081,-1.1832,-1.1678,-1.1573,-1.1523,-1.1473,-1.1578,-1.1678,-1.1782,-1.1882,-1.2031,-1.2229,-1.2573,-1.291,-1.3055,-1.3243,-1.3472,-1.3652,-1.3758,-1.3858,-1.3858,-1.3858,-1.3678,-1.3583,-1.3488,-1.3291,-1.305,-1.2997,-1.2992,-1.3012,-1.3118,-1.3334,-1.3658,-1.4098,-1.4477,-1.4789,-1.5153,-1.5558,-1.5774,-1.592,-1.5709,-1.5477,-1.5289,0.8682,0.8606,0.8331,0.773,0.6989,0.7024,0.7112,0.7189,0.7314,0.7773,0.8439,0.8679,0.8837,0.8873,0.8825,0.8541,0.8033,0.7544,0.6981,0.6272,0.5684,0.5399,0.5192,0.5034,0.5,0.617,0.7989,0.9558,0.9295,0.8492,0.6792,0.3804,-0.0597,-0.4581,-0.8322,-1.2007,-1.4643,-1.3916,-1.2995,-1.1949,-1.0631,-0.9424,-0.8144,-0.69,-0.5862,-0.4743,-0.3879,-0.3284,-0.2682,-0.2406,-0.2184,-0.2128,-0.2351,-0.2686,-0.3297,-0.4125,-0.5058,-0.5928,-0.6779,-0.8184,-0.9472,-1.0312,-1.0875,-1.1377,-1.1828,-1.2126,-1.2328,-1.2534,-1.2583,-1.248,-1.2332,-1.2031,-1.1728,-1.1427,-1.1326,-1.1221,-1.1226,-1.1175,-1.1326,-1.1477,-1.1578,-1.1678,-1.1682,-1.1832,-1.2076,-1.2421,-1.2671,-1.2813,-1.2905,-1.304,-1.3084,-1.319,-1.3291,-1.3243,-1.319,-1.3152,-1.306,-1.2905,-1.2764,-1.2769,-1.2725,-1.2783,-1.29,-1.313,-1.3511,-1.3994,-1.443,-1.48,-1.5114,-1.5418,-1.5635,-1.5901,-1.5814,-1.5653,-1.5725,0.9072,0.8933,0.8498,0.8142,0.7769,0.7599,0.7482,0.7443,0.7742,0.8205,0.8781,0.9172,0.9399,0.9443,0.9527,0.9461,0.9348,0.9067,0.8691,0.8074,0.7675,0.7315,0.7076,0.6996,0.7448,0.8621,1.0222,1.1079,1.032,0.9899,0.8514,0.3962,-0.2027,-0.7564,-1.0835,-1.4646,-1.6174,-1.5478,-1.4457,-1.3443,-1.2366,-1.1215,-0.998,-0.8649,-0.7505,-0.6281,-0.5041,-0.4062,-0.335,-0.2686,-0.2239,-0.2072,-0.2127,-0.2519,-0.3131,-0.3904,-0.4836,-0.5647,-0.6384,-0.8629,-0.987,-1.0419,-1.0926,-1.1427,-1.1823,-1.2126,-1.2278,-1.2382,-1.2274,-1.2126,-1.1927,-1.1628,-1.1267,-1.1015,-1.0913,-1.0816,-1.0765,-1.0875,-1.1027,-1.1175,-1.1372,-1.1473,-1.1427,-1.1477,-1.1628,-1.1927,-1.218,-1.2328,-1.2372,-1.2417,-1.2452,-1.2559,-1.2662,-1.2662,-1.2657,-1.2671,-1.2627,-1.2524,-1.2475,-1.2475,-1.2578,-1.2681,-1.2827,-1.2989,-1.3453,-1.4057,-1.4488,-1.4863,-1.5204,-1.5507,-1.5697,-1.583,-1.5836,-1.5881,-1.5925,0.9873,0.9801,0.9207,0.8724,0.8271,0.7825,0.7579,0.7496,0.7787,0.816,0.8647,0.9088,0.9496,0.969,0.9887,0.9994,0.9949,1.0288,0.9966,0.9464,0.9358,0.9205,0.9027,0.9161,0.9792,1.1074,1.2529,1.2847,1.2132,1.0705,0.7593,0.2991,-0.5026,-1.1432,-1.4202,-1.6444,-1.6583,-1.5517,-1.4674,-1.3972,-1.3059,-1.2159,-1.1048,-0.9629,-0.838,-0.7103,-0.5703,-0.4615,-0.3683,-0.2907,-0.2349,-0.2128,-0.2183,-0.2519,-0.324,-0.4122,-0.5164,-0.6514,-0.775,-0.9445,-1.0096,-1.0482,-1.082,-1.1272,-1.1623,-1.1773,-1.1927,-1.1977,-1.1714,-1.1514,-1.1314,-1.0846,-1.0486,-1.0332,-1.0233,-1.0245,-1.0249,-1.0514,-1.0722,-1.0867,-1.107,-1.1015,-1.0968,-1.0761,-1.0858,-1.0956,-1.1158,-1.1523,-1.1623,-1.1669,-1.171,-1.1918,-1.2026,-1.2022,-1.2076,-1.218,-1.218,-1.2071,-1.2175,-1.2278,-1.2382,-1.2578,-1.2953,-1.3246,-1.371,-1.4172,-1.4638,-1.5051,-1.5385,-1.5641,-1.583,-1.5963,-1.5963,-1.605,-1.6106,1.0409,1.0351,0.9737,0.9191,0.8635,0.7995,0.7587,0.7419,0.7621,0.7946,0.8353,0.8801,0.9212,0.9571,0.9892,1.0088,1.0126,1.0596,1.0801,1.0403,1.0619,1.0516,1.0642,1.1065,1.1861,1.3086,1.3686,1.3858,1.1925,0.9596,0.476,-0.1953,-0.8652,-1.2454,-1.5077,-1.6096,-1.646,-1.5285,-1.434,-1.3589,-1.2861,-1.2066,-1.1216,-0.9894,-0.8649,-0.7433,-0.6081,-0.4886,-0.3792,-0.3015,-0.2516,-0.2184,-0.2351,-0.2798,-0.3573,-0.4562,-0.6025,-0.743,-0.8788,-0.9669,-1.0148,-1.0217,-1.0667,-1.1023,-1.1221,-1.1267,-1.1255,-1.1204,-1.1002,-1.069,-1.0427,-0.9961,-0.9707,-0.9499,-0.9555,-0.9514,-0.9784,-0.9995,-1.036,-1.0506,-1.0557,-1.0557,-1.0399,-1.0142,-0.9984,-1.0035,-1.0087,-1.0502,-1.0867,-1.0964,-1.1061,-1.1272,-1.1477,-1.1528,-1.1623,-1.1773,-1.1723,-1.1669,-1.1823,-1.2081,-1.2382,-1.2583,-1.3065,-1.3498,-1.3921,-1.4395,-1.4874,-1.5284,-1.5525,-1.578,-1.605,-1.6094,-1.6132,-1.6225,-1.6318,1.0603,1.0495,1.0021,0.9517,0.8901,0.8115,0.7507,0.7213,0.7405,0.7644,0.7976,0.8427,0.8797,0.9221,0.97,0.9936,1.01,1.0591,1.0866,1.1034,1.1163,1.1413,1.1949,1.2532,1.3577,1.4303,1.45,1.3618,1.0999,0.6467,0.0236,-0.5877,-0.9882,-1.2417,-1.3915,-1.4922,-1.5272,-1.4334,-1.3579,-1.2808,-1.2115,-1.1557,-1.0547,-0.9374,-0.8277,-0.7103,-0.5808,-0.4668,-0.368,-0.2961,-0.2407,-0.2408,-0.2635,-0.3201,-0.4133,-0.5433,-0.7157,-0.8293,-0.9215,-0.9933,-1.0037,-1.011,-1.036,-1.0667,-1.0765,-1.0702,-1.0592,-1.0324,-1.0068,-0.9699,-0.9384,-0.9026,-0.8666,-0.8666,-0.8718,-0.8886,-0.9155,-0.9524,-0.9888,-1.0043,-1.0095,-0.9988,-0.9669,-0.9409,-0.9256,-0.9208,-0.9312,-0.9577,-0.994,-1.03,-1.045,-1.071,-1.0867,-1.1027,-1.1175,-1.1322,-1.1423,-1.1423,-1.1723,-1.1977,-1.2278,-1.2627,-1.306,-1.3536,-1.4098,-1.4569,-1.5085,-1.5453,-1.5709,-1.5969,-1.6269,-1.6349,-1.6386,-1.6479,-1.6571,1.0317,1.0418,1.0137,0.9785,0.9235,0.8279,0.7541,0.7112,0.7154,0.7273,0.7471,0.7803,0.8215,0.8574,0.9164,0.9487,0.9922,1.0447,1.097,1.1237,1.1414,1.2161,1.2867,1.3659,1.5051,1.5768,1.5473,1.3547,0.9912,0.4579,-0.1508,-0.6897,-0.8918,-1.0445,-1.1608,-1.265,-1.2806,-1.2982,-1.2351,-1.1814,-1.1149,-1.0489,-0.9515,-0.8472,-0.741,-0.6288,-0.5214,-0.401,-0.3073,-0.2518,-0.2183,-0.2184,-0.2522,-0.3409,-0.4558,-0.6776,-0.8178,-0.9155,-0.9684,-0.9959,-1.0018,-0.9847,-0.9892,-0.994,-1.0039,-0.9984,-0.9766,-0.9447,-0.902,-0.8646,-0.828,-0.7975,-0.7765,-0.7765,-0.7928,-0.8253,-0.8573,-0.9001,-0.9364,-0.9521,-0.9573,-0.9361,-0.8991,-0.8834,-0.8679,-0.853,-0.8586,-0.8847,-0.9215,-0.9577,-0.9943,-1.0253,-1.0462,-1.062,-1.0722,-1.0871,-1.1074,-1.1226,-1.1578,-1.1923,-1.2278,-1.2622,-1.305,-1.3615,-1.4228,-1.4777,-1.5334,-1.5608,-1.5881,-1.6231,-1.6534,-1.6607,-1.6693,-1.682,-1.6954,0.9986,1.0205,1.0147,0.9827,0.9284,0.8447,0.778,0.7231,0.7031,0.6985,0.6972,0.7262,0.7592,0.7919,0.8508,0.8926,0.9217,0.9852,1.0456,1.0946,1.1371,1.2164,1.3101,1.4433,1.5972,1.6563,1.5658,1.3315,0.9372,0.3013,-0.3394,-0.5187,-0.6468,-0.7398,-0.8284,-0.8535,-0.9105,-1.0018,-1.057,-1.045,-0.9931,-0.9197,-0.8252,-0.7186,-0.6169,-0.5259,-0.4396,-0.324,-0.2461,-0.2128,-0.2015,-0.2183,-0.285,-0.4117,-0.5629,-0.7626,-0.8652,-0.9302,-0.9677,-0.9732,-0.9736,-0.958,-0.9263,-0.9159,-0.9103,-0.9047,-0.8827,-0.8557,-0.8019,-0.754,-0.7227,-0.6915,-0.6912,-0.6858,-0.7238,-0.7616,-0.8043,-0.8527,-0.8735,-0.8942,-0.8837,-0.8626,-0.8418,-0.8259,-0.8153,-0.8103,-0.8265,-0.8527,-0.8844,-0.9159,-0.958,-0.9951,-1.0106,-1.0265,-1.0415,-1.0671,-1.0922,-1.1226,-1.1473,-1.1873,-1.2224,-1.272,-1.32,-1.3805,-1.4449,-1.496,-1.5468,-1.5786,-1.61,-1.6448,-1.6827,-1.7031,-1.7157,-1.724,-1.7371,0.9588,0.9902,1.0023,0.9736,0.9226,0.8696,0.8115,0.7565,0.716,0.6781,0.6608,0.6813,0.7063,0.7308,0.7807,0.8222,0.859,0.9161,0.9853,1.0461,1.092,1.1783,1.3217,1.4685,1.5998,1.6144,1.4725,1.1886,0.8896,0.3161,-0.1869,-0.2973,-0.1925,-0.2784,-0.4827,-0.3916,-0.4678,-0.6886,-0.7952,-0.8316,-0.841,-0.7785,-0.6932,-0.579,-0.4924,-0.4165,-0.3514,-0.2683,-0.1734,-0.1791,-0.1903,-0.1958,-0.3562,-0.5099,-0.6763,-0.7838,-0.8817,-0.9194,-0.9409,-0.9409,-0.9253,-0.8995,-0.8685,-0.8368,-0.8262,-0.8259,-0.809,-0.7711,-0.7227,-0.6799,-0.6485,-0.6213,-0.6102,-0.6376,-0.6701,-0.7187,-0.767,-0.8099,-0.8424,-0.8527,-0.8418,-0.8153,-0.7943,-0.7785,-0.7833,-0.7783,-0.7943,-0.8209,-0.8633,-0.8949,-0.9316,-0.9744,-1.0007,-1.0261,-1.0462,-1.0718,-1.0972,-1.1221,-1.1523,-1.1873,-1.2278,-1.2818,-1.3306,-1.3952,-1.464,-1.5102,-1.5519,-1.5875,-1.6269,-1.6656,-1.7038,-1.7454,-1.7618,-1.77,-1.7821,0.8788,0.9257,0.9669,0.97,0.9408,0.9136,0.8639,0.8013,0.7565,0.7031,0.6532,0.6532,0.6575,0.6696,0.7101,0.7474,0.7848,0.8402,0.9197,0.983,1.0409,1.1457,1.3008,1.4375,1.5709,1.5356,1.3461,1.0051,0.5712,0.1689,-0.0602,-0.103,0.0655,0.0914,-0.127,-0.0,-0.0393,-0.3421,-0.4506,-0.5605,-0.618,-0.6453,-0.5996,-0.438,-0.3166,-0.2335,-0.1674,-0.0951,-0.0504,-0.0504,-0.0953,-0.2066,-0.4001,-0.5695,-0.6945,-0.7859,-0.8564,-0.8883,-0.8981,-0.8873,-0.8613,-0.8346,-0.7981,-0.7619,-0.7461,-0.7458,-0.7295,-0.6915,-0.6539,-0.6164,-0.5841,-0.562,-0.5508,-0.5891,-0.6273,-0.6812,-0.7348,-0.7729,-0.8058,-0.8055,-0.7943,-0.7732,-0.7521,-0.7467,-0.7515,-0.7619,-0.7726,-0.7993,-0.8633,-0.9057,-0.9413,-0.9836,-1.0106,-1.0364,-1.0565,-1.0867,-1.1171,-1.1473,-1.1773,-1.2076,-1.2426,-1.3007,-1.3583,-1.414,-1.4743,-1.5198,-1.5603,-1.6044,-1.6436,-1.6827,-1.7199,-1.7618,-1.7982,-1.8102,-1.8228,0.823,0.8818,0.943,0.9664,0.9567,0.9364,0.8918,0.8419,0.7927,0.7314,0.6699,0.6496,0.6285,0.6193,0.648,0.6722,0.7098,0.7675,0.8342,0.9017,0.9946,1.1035,1.2444,1.4029,1.5892,1.5897,1.3546,0.9719,0.3848,0.1777,0.0763,0.1391,0.3685,0.4863,0.2975,0.4069,0.3784,0.0213,-0.0758,-0.191,-0.3223,-0.3526,-0.3601,-0.2111,-0.1223,-0.0501,-0.0,0.0503,0.0616,0.0056,-0.084,-0.2345,-0.4059,-0.5485,-0.6578,-0.7388,-0.7981,-0.8352,-0.8234,-0.8072,-0.7759,-0.7439,-0.712,-0.665,-0.648,-0.6477,-0.6431,-0.6052,-0.5946,-0.557,-0.5572,-0.5407,-0.5515,-0.5843,-0.6223,-0.6707,-0.7139,-0.7574,-0.7738,-0.7735,-0.7678,-0.7625,-0.7521,-0.7571,-0.7676,-0.7943,-0.7996,-0.8243,-0.8778,-0.9368,-0.9673,-1.0032,-1.0403,-1.0616,-1.082,-1.1171,-1.1523,-1.1773,-1.2022,-1.2461,-1.29,-1.3334,-1.3858,-1.4368,-1.4834,-1.5244,-1.5641,-1.6132,-1.6607,-1.6996,-1.7413,-1.7774,-1.8142,-1.8425,-1.8549,0.7818,0.8496,0.919,0.959,0.9704,0.9492,0.9159,0.8784,0.8296,0.7682,0.7059,0.6614,0.6147,0.5936,0.5973,0.609,0.6419,0.6959,0.7523,0.8275,0.9239,1.0444,1.1877,1.3528,1.5019,1.5211,1.3457,0.9395,0.4461,0.3093,0.2973,0.4341,0.6578,0.8913,0.8073,0.843,0.842,0.4746,0.2902,0.2021,0.0989,-0.0111,-0.0443,-0.0056,0.0723,0.1281,0.1619,0.1677,0.1734,0.0615,-0.0783,-0.2455,-0.3729,-0.4939,-0.5819,-0.6635,-0.7015,-0.7224,-0.7165,-0.6843,-0.6635,-0.6315,-0.5996,-0.5775,-0.555,-0.55,-0.5452,-0.5401,-0.5238,-0.5352,-0.5354,-0.5409,-0.5572,-0.5845,-0.6277,-0.6657,-0.7036,-0.7413,-0.7467,-0.7521,-0.7571,-0.7518,-0.7622,-0.7729,-0.7943,-0.8262,-0.8573,-0.8869,-0.9228,-0.9766,-1.0241,-1.0596,-1.1011,-1.1171,-1.1226,-1.1523,-1.1918,-1.2071,-1.2368,-1.2847,-1.3329,-1.371,-1.4093,-1.4507,-1.4966,-1.5379,-1.5786,-1.6275,-1.6705,-1.7128,-1.7502,-1.7909,-1.8208,-1.8489,-1.8781,0.7655,0.8683,0.9172,0.9412,0.9554,0.959,0.9426,0.9092,0.8635,0.8009,0.7422,0.6846,0.6307,0.5726,0.5626,0.5707,0.5879,0.6331,0.6868,0.7578,0.8678,0.9886,1.1499,1.3431,1.3351,1.3274,1.2592,0.9336,0.716,0.5413,0.5279,0.7563,1.0106,1.1703,1.188,1.2082,1.1246,0.796,0.5919,0.4802,0.4292,0.3088,0.1717,0.2221,0.3176,0.3292,0.3239,0.2847,0.246,0.1341,-0.0391,-0.2065,-0.3287,-0.4224,-0.4995,-0.5603,-0.5984,-0.6032,-0.5921,-0.5651,-0.5382,-0.522,-0.4893,-0.4727,-0.4617,-0.4618,-0.4624,-0.4791,-0.4847,-0.5293,-0.5405,-0.562,-0.5782,-0.6166,-0.6601,-0.6874,-0.7201,-0.7359,-0.7464,-0.7568,-0.7619,-0.7723,-0.7934,-0.8096,-0.8421,-0.8738,-0.905,-0.9347,-0.9736,-1.0269,-1.0804,-1.1217,-1.1678,-1.1623,-1.1678,-1.2067,-1.2412,-1.2515,-1.2759,-1.3233,-1.3663,-1.3952,-1.4373,-1.4737,-1.5153,-1.5564,-1.5969,-1.6324,-1.6797,-1.7218,-1.759,-1.7956,-1.8254,-1.8521,-1.8774]},{"header":{"parameterUnit":"m.s-1","parameterCategory":1,"la1":31.0,"la2":29.5877,"lo1":-88.7671,"lo2":-86.6584,"dy":0.0162,"dx":0.0185,"nx":115,"ny":88,"refTime":"2023-06-06T12:00:00:Z","depth":0,"parameterNumber":3,"parameterNumberName":"V-component_of_WINDS"},"data":[0.0,0.0,0.0,0.0,0.0,0.0,0.0,0.0,0.0,0.0,0.0,0.0,0.0,0.0,0.0,0.0,0.0,0.0,0.0,0.0,0.0,0.0,0.0,0.0,0.0,0.0,0.0,0.0,0.0,0.0,0.0,0.0,0.0,0.0,0.0,0.0,0.0,0.0,0.0,0.0,0.0,0.0,0.0,0.0,0.0,0.0,0.0,0.0,0.0,0.0,0.0,0.0,0.0,0.0,0.0,0.0,0.0,0.0,0.0,0.0,0.0,0.0,0.0,0.0,0.0,0.0,0.0,0.0,0.0,0.0,0.0,0.0,0.0,0.0,0.0,0.0,0.0,0.0,0.0,0.0,0.0,0.0,0.0,0.0,0.0,0.0,0.0,0.0,0.0,0.0,0.0,0.0,0.0,0.0,0.0,0.0,0.0,0.0,0.0,0.0,0.0,0.0,0.0,0.0,0.0,0.0,0.0,0.0,0.0,0.0,0.0,0.0,0.0,0.0,0.0,0.0,0.0,0.0,0.0,0.0,0.0,0.0,0.0,0.0,0.0,0.0,0.0,0.0,0.0,0.0,0.0,0.0,0.0,0.0,0.0,0.0,0.0,0.0,0.0,0.0,0.0,0.0,0.0,0.0,0.0,0.0,0.0,0.0,0.0,0.0,0.0,0.0,0.0,0.0,0.0,0.0,0.0,0.0,0.0,0.0,0.0,0.0,0.0,0.0,0.0,0.0,0.0,0.0,0.0,0.0,0.0,0.0,0.0,0.0,0.0,0.0,0.0,0.0,0.0,0.0,0.0,0.0,0.0,0.0,0.0,0.0,0.0,0.0,0.0,0.0,0.0,0.0,0.0,0.0,0.0,0.0,0.0,0.0,0.0,0.0,0.0,0.0,0.0,0.0,0.0,0.0,0.0,0.0,0.0,0.0,0.0,0.0,0.0,0.0,0.0,0.0,0.0,0.0,0.0,0.0,0.0,0.0,0.0,0.0,0.0,0.0,0.0,0.0,0.0,0.0,0.0,0.0,0.0,0.0,0.0,0.0,0.0,0.0,0.0,0.0,0.0,0.0,0.0,0.0,0.0,0.0,0.0,0.0,0.0,0.0,0.0,0.0,0.0,0.0,0.0,0.0,0.0,0.0,0.0,0.0,0.0,0.0,0.0,0.0,0.0,0.0,0.0,0.0,0.0,0.0,0.0,0.0,0.0,0.0,0.0,0.0,0.0,0.0,0.0,0.0,0.0,0.0,0.0,0.0,0.0,0.0,0.0,0.0,0.0,0.0,0.0,0.0,0.0,0.0,0.0,0.0,0.0,0.0,0.0,0.0,0.0,0.0,0.0,0.0,0.0,0.0,0.0,0.0,0.0,0.0,0.0,0.0,0.0,0.0,0.0,0.0,0.0,0.0,0.0,0.0,0.0,0.0,0.0,0.0,0.0,0.0,0.0,0.0,0.0,0.0,0.0,0.0,0.0,0.0,0.0,0.0,0.0,0.0,0.0,0.0,0.0,0.0,0.0,0.0,0.0,0.0,0.0,0.0,0.0,0.0,0.0,0.0,0.0,0.0,0.0,0.0,0.0,0.0,0.0,0.0,0.0,0.0,0.0,0.0,0.0,0.0,0.0,0.0,0.0,0.0,0.0,0.0,0.0,0.0,0.0,0.0,0.0,0.0,0.0,0.0,0.0,0.0,0.0,0.0,0.0,0.0,0.0,0.0,0.0,0.0,0.0,0.0,0.0,0.0,0.0,0.0,0.0,0.0,0.0,0.0,0.0,0.0,0.0,0.0,0.0,0.0,0.0,0.0,0.0,0.0,0.0,0.0,0.0,0.0,0.0,0.0,0.0,0.0,0.0,0.0,0.0,0.0,0.0,0.0,0.0,0.0,0.0,0.0,0.0,0.0,0.0,0.0,0.0,0.0,0.0,0.0,0.0,0.0,0.0,0.0,0.0,0.0,0.0,0.0,0.0,0.0,0.0,0.0,0.0,0.0,0.0,0.0,0.0,0.0,0.0,0.0,0.0,0.0,0.0,0.0,0.0,0.0,0.0,0.0,0.0,0.0,0.0,0.0,0.0,0.0,0.0,0.0,0.0,0.0,0.0,0.0,0.0,0.0,0.0,0.0,0.0,0.0,0.0,0.0,0.0,0.0,0.0,0.0,0.0,0.0,0.0,0.0,0.0,0.0,0.0,0.0,0.0,0.0,0.0,0.0,0.0,0.0,0.0,0.0,0.0,0.0,0.0,0.0,0.0,0.0,0.0,0.0,0.0,0.0,0.0,0.0,0.0,0.0,0.0,0.0,0.0,0.0,0.0,0.0,0.0,0.0,0.0,0.0,0.0,0.0,0.0,0.0,0.0,0.0,0.0,0.0,0.0,0.0,0.0,0.0,0.0,0.0,0.0,0.0,0.0,0.0,0.0,0.0,0.0,0.0,0.0,0.0,0.0,0.0,0.0,0.0,0.0,0.0,0.0,0.0,0.0,0.0,0.0,0.0,0.0,0.0,0.0,0.0,0.0,0.0,0.0,0.0,0.0,0.0,0.0,0.0,0.0,0.0,0.0,0.0,0.0,0.0,0.0,0.0,0.0,0.0,0.0,0.0,0.0,0.0,0.0,0.0,0.0,0.0,0.0,0.0,0.0,0.0,0.0,0.0,0.0,0.0,0.0,0.0,0.0,0.0,0.0,0.0,0.0,0.0,0.0,0.0,0.0,0.0,0.0,0.0,0.0,0.0,0.0,0.0,0.0,0.0,0.0,0.0,0.0,0.0,0.0,0.0,0.0,0.0,0.0,0.0,0.0,0.0,0.0,0.0,0.0,0.0,0.0,0.0,0.0,0.0,0.0,0.0,0.0,0.0,0.0,0.0,0.0,0.0,0.0,0.0,0.0,0.0,0.0,0.0,0.0,0.0,0.0,0.0,0.0,0.0,0.0,0.0,0.0,0.0,0.0,0.0,0.0,0.0,0.0,0.0,0.0,0.0,0.0,0.0,0.0,0.0,0.0,0.0,0.0,0.0,0.0,0.0,0.0,0.0,0.0,0.0,0.0,0.0,0.0,0.0,0.0,0.0,0.0,0.0,0.0,0.0,0.0,0.0,0.0,0.0,0.0,0.0,0.0,0.0,0.0,0.0,0.0,0.0,0.0,0.0,0.0,0.0,0.0,0.0,0.0,0.0,0.0,0.0,0.0,0.0,0.0,0.0,0.0,0.0,0.0,0.0,0.0,0.0,0.0,0.0,0.0,0.0,0.0,0.0,0.0,0.0,0.0,0.0,0.0,0.0,0.0,0.0,0.0,0.0,0.0,0.0,0.0,0.0,0.0,0.0,0.0,0.0,0.0,0.0,0.0,0.0,0.0,0.0,0.0,0.0,0.0,0.0,0.0,0.0,0.0,0.0,0.0,0.0,0.0,0.0,0.0,0.0,0.0,0.0,0.0,0.0,0.0,0.0,0.0,0.0,0.0,0.0,0.0,0.0,0.0,0.0,0.0,0.0,0.0,0.0,0.0,0.0,0.0,0.0,0.0,0.0,0.0,0.0,0.0,0.0,0.0,0.0,0.0,0.0,0.0,0.0,0.0,0.0,0.0,0.0,0.0,0.0,0.0,0.0,0.0,0.0,0.0,0.0,0.0,0.0,0.0,0.0,0.0,0.0,0.0,0.0,0.0,0.0,0.0,0.0,0.0,0.0,0.0,0.0,0.0,0.0,0.0,0.0,0.0,0.0,0.0,0.0,0.0,0.0,0.0,0.0,0.0,0.0,0.0,0.0,0.0,0.0,0.0,0.0,0.0,0.0,0.0,0.0,0.0,0.0,0.0,0.0,0.0,0.0,0.0,0.0,0.0,0.0,0.0,0.0,0.0,0.0,0.0,0.0,0.0,0.0,0.0,0.0,0.0,0.0,0.0,0.0,0.0,0.0,0.0,0.0,0.0,0.0,0.0,0.0,0.0,0.0,0.0,0.0,0.0,0.0,0.0,0.0,0.0,0.0,0.0,0.0,0.0,0.0,0.0,0.0,0.0,0.0,0.0,0.0,0.0,0.0,0.0,0.0,0.0,0.0,0.0,0.0,0.0,0.0,0.0,0.0,0.0,0.0,0.0,0.0,0.0,0.0,0.0,0.0,0.0,0.0,0.0,0.0,0.0,0.0,0.0,0.0,0.0,0.0,0.0,0.0,0.0,0.0,0.0,0.0,0.0,0.0,0.0,0.0,0.0,0.0,0.0,0.0,0.0,0.0,0.0,0.0,0.0,0.0,0.0,0.0,0.0,0.0,-1.4688,0.0,0.0,0.0,0.0,0.0,0.0,0.0,0.0,0.0,0.0,0.0,0.0,0.0,0.0,0.0,0.0,0.0,0.0,0.0,0.0,0.0,0.0,0.0,0.0,0.0,0.0,0.0,0.0,0.0,0.0,0.0,0.0,0.0,0.0,0.0,0.0,0.0,0.0,0.0,0.0,0.0,0.0,0.0,0.0,0.0,0.0,0.0,0.0,0.0,0.0,0.0,0.0,0.0,0.0,0.0,0.0,0.0,0.0,0.0,0.0,0.0,0.0,0.0,0.0,0.0,0.0,0.0,0.0,0.0,0.0,0.0,0.0,0.0,0.0,0.0,0.0,0.0,0.0,0.0,0.0,0.0,0.0,0.0,0.0,0.0,0.0,0.0,0.0,0.0,0.0,0.0,0.0,0.0,0.0,0.0,0.0,0.0,0.0,0.0,0.0,0.0,0.0,0.0,0.0,0.0,0.0,0.0,0.0,0.0,0.0,-1.5092,-1.5047,-1.4992,-1.4926,-1.4859,0.0,0.0,0.0,0.0,0.0,0.0,0.0,0.0,0.0,0.0,0.0,0.0,0.0,0.0,0.0,0.0,0.0,0.0,0.0,0.0,0.0,0.0,0.0,0.0,0.0,0.0,0.0,0.0,0.0,0.0,0.0,0.0,0.0,0.0,0.0,0.0,0.0,0.0,0.0,0.0,0.0,0.0,0.0,0.0,0.0,0.0,0.0,0.0,0.0,0.0,0.0,0.0,0.0,0.0,0.0,0.0,0.0,0.0,0.0,0.0,0.0,0.0,0.0,0.0,0.0,0.0,0.0,0.0,0.0,0.0,0.0,0.0,0.0,0.0,0.0,0.0,0.0,0.0,0.0,0.0,0.0,0.0,0.0,0.0,0.0,0.0,0.0,0.0,0.0,0.0,0.0,0.0,0.0,0.0,0.0,0.0,0.0,0.0,0.0,0.0,0.0,0.0,0.0,0.0,0.0,0.0,0.0,0.0,0.0,0.0,0.0,0.0,-1.5088,-1.5028,-1.5017,0.0,0.0,0.0,0.0,0.0,0.0,0.0,0.0,0.0,0.0,0.0,0.0,0.0,0.0,0.0,0.0,0.0,0.0,0.0,0.0,0.0,0.0,0.0,0.0,0.0,0.0,0.0,0.0,0.0,0.0,0.0,0.0,0.0,0.0,0.0,0.0,0.0,0.0,0.0,0.0,0.0,0.0,0.0,0.0,0.0,0.0,0.0,0.0,0.0,0.0,0.0,0.0,0.0,0.0,0.0,0.0,0.0,0.0,0.0,0.0,0.0,0.0,0.0,0.0,0.0,0.0,0.0,0.0,0.0,0.0,0.0,0.0,0.0,0.0,0.0,0.0,0.0,0.0,0.0,0.0,0.0,0.0,0.0,0.0,0.0,0.0,0.0,0.0,0.0,0.0,0.0,0.0,0.0,0.0,0.0,0.0,0.0,0.0,0.0,0.0,0.0,0.0,0.0,0.0,0.0,0.0,0.0,0.0,0.0,0.0,-1.5255,-1.519,-1.519,0.0,-1.5092,0.0,0.0,0.0,0.0,0.0,0.0,0.0,0.0,0.0,0.0,0.0,0.0,0.0,0.0,0.0,0.0,0.0,0.0,0.0,0.0,0.0,0.0,0.0,0.0,0.0,0.0,0.0,0.0,0.0,0.0,0.0,0.0,0.0,0.0,0.0,0.0,0.0,0.0,0.0,0.0,0.0,0.0,0.0,0.0,0.0,0.0,0.0,0.0,0.0,0.0,0.0,0.0,0.0,0.0,0.0,0.0,0.0,0.0,0.0,0.0,0.0,0.0,0.0,0.0,0.0,0.0,0.0,0.0,0.0,0.0,0.0,0.0,0.0,0.0,0.0,0.0,0.0,0.0,0.0,0.0,0.0,0.0,0.0,0.0,0.0,0.0,0.0,0.0,0.0,0.0,0.0,0.0,0.0,0.0,0.0,0.0,0.0,0.0,0.0,0.0,0.0,0.0,0.0,0.0,0.0,0.0,0.0,0.0,0.0,0.0,-1.5291,-1.5255,-1.526,-1.5251,0.0,0.0,0.0,0.0,0.0,0.0,0.0,0.0,0.0,0.0,0.0,0.0,0.0,0.0,0.0,0.0,0.0,0.0,0.0,0.0,0.0,0.0,0.0,0.0,0.0,0.0,0.0,0.0,0.0,0.0,0.0,0.0,0.0,0.0,0.0,0.0,0.0,0.0,0.0,0.0,0.0,0.0,0.0,0.0,0.0,0.0,0.0,0.0,0.0,0.0,0.0,0.0,0.0,0.0,0.0,0.0,0.0,0.0,0.0,0.0,0.0,0.0,0.0,0.0,0.0,0.0,0.0,0.0,0.0,0.0,0.0,0.0,0.0,0.0,0.0,0.0,0.0,0.0,0.0,0.0,0.0,0.0,0.0,0.0,0.0,0.0,0.0,0.0,0.0,0.0,0.0,0.0,0.0,0.0,0.0,0.0,0.0,0.0,0.0,0.0,0.0,0.0,0.0,0.0,0.0,0.0,0.0,0.0,0.0,0.0,-1.5316,-1.5323,-1.532,-1.5326,-1.532,-1.5292,0.0,0.0,0.0,0.0,0.0,0.0,0.0,0.0,0.0,0.0,0.0,0.0,0.0,0.0,0.0,0.0,0.0,0.0,0.0,0.0,0.0,0.0,0.0,0.0,0.0,0.0,0.0,0.0,0.0,0.0,0.0,0.0,0.0,0.0,0.0,0.0,0.0,0.0,0.0,0.0,0.0,0.0,0.0,0.0,0.0,0.0,0.0,0.0,0.0,0.0,0.0,0.0,0.0,0.0,0.0,0.0,0.0,0.0,0.0,0.0,0.0,0.0,0.0,0.0,0.0,0.0,0.0,0.0,0.0,0.0,0.0,0.0,0.0,0.0,0.0,0.0,0.0,0.0,0.0,0.0,0.0,0.0,0.0,0.0,0.0,0.0,0.0,0.0,0.0,0.0,0.0,0.0,0.0,0.0,0.0,0.0,0.0,0.0,0.0,0.0,0.0,0.0,0.0,0.0,0.0,0.0,0.0,0.0,-1.5295,-1.5353,-1.5405,-1.538,-1.538,-1.5369,0.0,0.0,0.0,0.0,0.0,0.0,0.0,0.0,0.0,0.0,0.0,0.0,0.0,0.0,0.0,0.0,0.0,0.0,0.0,0.0,0.0,0.0,0.0,0.0,0.0,0.0,0.0,0.0,0.0,0.0,0.0,0.0,0.0,0.0,0.0,0.0,0.0,0.0,0.0,0.0,0.0,0.0,0.0,0.0,0.0,0.0,0.0,0.0,0.0,0.0,0.0,0.0,0.0,0.0,0.0,0.0,0.0,0.0,0.0,0.0,0.0,0.0,0.0,0.0,0.0,0.0,0.0,0.0,0.0,0.0,0.0,0.0,0.0,0.0,0.0,0.0,0.0,0.0,0.0,0.0,0.0,0.0,0.0,0.0,0.0,0.0,0.0,0.0,0.0,0.0,0.0,0.0,0.0,0.0,0.0,0.0,0.0,0.0,0.0,0.0,0.0,0.0,0.0,0.0,0.0,0.0,0.0,0.0,0.0,-1.5238,-1.5355,-1.5379,-1.5344,-1.5341,-1.5317,0.0,0.0,0.0,0.0,0.0,0.0,0.0,0.0,0.0,0.0,0.0,0.0,0.0,0.0,0.0,0.0,0.0,0.0,0.0,0.0,0.0,0.0,0.0,0.0,0.0,0.0,0.0,0.0,0.0,0.0,0.0,0.0,0.0,0.0,0.0,0.0,0.0,0.0,0.0,0.0,0.0,0.0,0.0,0.0,0.0,0.0,0.0,0.0,0.0,0.0,0.0,0.0,0.0,0.0,0.0,0.0,0.0,0.0,0.0,0.0,0.0,0.0,0.0,0.0,0.0,0.0,0.0,0.0,0.0,0.0,0.0,0.0,0.0,0.0,0.0,0.0,0.0,0.0,0.0,0.0,0.0,0.0,0.0,0.0,0.0,0.0,0.0,0.0,0.0,0.0,0.0,0.0,0.0,0.0,0.0,0.0,0.0,0.0,0.0,0.0,0.0,0.0,0.0,0.0,0.0,0.0,0.0,0.0,0.0,-1.5623,0.0,-1.5477,-1.5673,-1.5417,-1.5255,0.0,0.0,0.0,0.0,0.0,0.0,0.0,0.0,0.0,0.0,0.0,0.0,0.0,0.0,0.0,0.0,0.0,0.0,0.0,0.0,0.0,0.0,0.0,0.0,0.0,0.0,0.0,0.0,0.0,0.0,0.0,0.0,0.0,0.0,0.0,0.0,0.0,0.0,0.0,0.0,0.0,0.0,0.0,0.0,0.0,0.0,0.0,0.0,0.0,0.0,0.0,0.0,0.0,0.0,0.0,0.0,0.0,0.0,0.0,0.0,0.0,0.0,0.0,0.0,0.0,0.0,0.0,0.0,0.0,0.0,0.0,0.0,0.0,0.0,0.0,0.0,0.0,0.0,0.0,0.0,0.0,0.0,0.0,0.0,0.0,0.0,0.0,0.0,0.0,0.0,0.0,0.0,0.0,0.0,0.0,0.0,0.0,0.0,0.0,0.0,0.0,0.0,0.0,0.0,0.0,0.0,0.0,0.0,-1.5509,-1.6491,-1.5752,-1.5718,-1.644,-1.5704,-1.5244,0.0,0.0,0.0,0.0,0.0,0.0,0.0,0.0,0.0,0.0,0.0,0.0,0.0,0.0,0.0,0.0,0.0,0.0,0.0,0.0,0.0,0.0,0.0,0.0,0.0,0.0,0.0,0.0,0.0,0.0,0.0,0.0,0.0,0.0,0.0,0.0,0.0,0.0,0.0,0.0,0.0,0.0,0.0,0.0,0.0,0.0,0.0,0.0,0.0,0.0,0.0,0.0,0.0,0.0,0.0,0.0,0.0,0.0,0.0,0.0,0.0,0.0,0.0,0.0,0.0,0.0,0.0,0.0,0.0,0.0,0.0,0.0,0.0,0.0,0.0,0.0,0.0,0.0,0.0,0.0,0.0,0.0,0.0,0.0,0.0,0.0,0.0,0.0,0.0,0.0,0.0,0.0,0.0,0.0,0.0,0.0,0.0,0.0,0.0,0.0,0.0,0.0,0.0,0.0,0.0,0.0,0.0,0.0,0.0,-1.642,-1.6199,-1.6438,-1.7199,-1.7003,-1.6548,0.0,0.0,0.0,0.0,0.0,0.0,0.0,0.0,0.0,0.0,0.0,0.0,0.0,0.0,0.0,0.0,0.0,0.0,0.0,0.0,0.0,0.0,0.0,0.0,0.0,0.0,0.0,0.0,0.0,0.0,0.0,0.0,0.0,0.0,0.0,0.0,0.0,0.0,0.0,0.0,0.0,0.0,0.0,0.0,0.0,0.0,0.0,0.0,0.0,0.0,0.0,0.0,0.0,0.0,0.0,0.0,0.0,0.0,0.0,0.0,0.0,0.0,0.0,0.0,0.0,0.0,0.0,0.0,0.0,0.0,0.0,0.0,0.0,0.0,0.0,0.0,0.0,0.0,0.0,0.0,0.0,0.0,0.0,0.0,0.0,0.0,0.0,0.0,0.0,0.0,0.0,0.0,0.0,0.0,0.0,0.0,0.0,0.0,0.0,0.0,0.0,0.0,0.0,0.0,0.0,0.0,0.0,0.0,0.0,-1.4167,-1.5888,-1.7167,-1.7992,-1.7707,-1.7244,-1.6685,0.0,0.0,0.0,0.0,0.0,0.0,0.0,0.0,0.0,0.0,0.0,0.0,0.0,0.0,0.0,0.0,0.0,0.0,0.0,0.0,0.0,0.0,0.0,0.0,0.0,0.0,0.0,0.0,0.0,0.0,0.0,0.0,0.0,0.0,0.0,0.0,0.0,0.0,0.0,0.0,0.0,0.0,0.0,0.0,0.0,0.0,0.0,0.0,0.0,0.0,0.0,0.0,0.0,0.0,0.0,0.0,0.0,0.0,0.0,0.0,0.0,0.0,0.0,0.0,0.0,0.0,0.0,0.0,0.0,0.0,0.0,0.0,0.0,0.0,0.0,0.0,0.0,0.0,0.0,0.0,0.0,0.0,0.0,0.0,0.0,0.0,0.0,0.0,0.0,0.0,0.0,0.0,0.0,0.0,0.0,0.0,0.0,0.0,0.0,0.0,0.0,0.0,0.0,0.0,0.0,0.0,0.0,0.0,-1.025,-1.4743,-1.7624,-1.8736,-1.7994,-1.7519,0.0,0.0,0.0,0.0,0.0,0.0,0.0,0.0,0.0,0.0,0.0,0.0,0.0,0.0,0.0,0.0,0.0,0.0,0.0,0.0,0.0,0.0,0.0,0.0,0.0,0.0,0.0,0.0,0.0,0.0,0.0,0.0,0.0,0.0,0.0,0.0,0.0,0.0,0.0,0.0,0.0,0.0,0.0,0.0,0.0,0.0,0.0,0.0,0.0,0.0,0.0,0.0,0.0,0.0,0.0,0.0,0.0,0.0,0.0,0.0,0.0,0.0,0.0,0.0,0.0,0.0,0.0,0.0,0.0,0.0,0.0,0.0,0.0,0.0,0.0,0.0,0.0,0.0,0.0,0.0,0.0,0.0,0.0,0.0,0.0,0.0,0.0,0.0,0.0,0.0,0.0,0.0,0.0,0.0,0.0,0.0,0.0,0.0,0.0,0.0,0.0,0.0,0.0,0.0,0.0,0.0,0.0,0.0,0.0,-0.8972,-1.2019,-1.5514,-1.9459,-1.943,-1.902,0.0,0.0,0.0,0.0,0.0,0.0,0.0,0.0,0.0,0.0,0.0,0.0,0.0,0.0,0.0,0.0,0.0,0.0,0.0,0.0,0.0,0.0,0.0,0.0,0.0,0.0,0.0,0.0,0.0,0.0,0.0,0.0,0.0,0.0,0.0,0.0,0.0,0.0,0.0,0.0,0.0,0.0,0.0,0.0,0.0,0.0,0.0,0.0,0.0,0.0,0.0,0.0,0.0,0.0,0.0,0.0,0.0,0.0,0.0,0.0,0.0,0.0,0.0,0.0,0.0,0.0,0.0,0.0,0.0,0.0,0.0,0.0,0.0,0.0,0.0,0.0,0.0,0.0,0.0,0.0,0.0,0.0,0.0,0.0,0.0,0.0,0.0,0.0,0.0,0.0,0.0,0.0,0.0,0.0,0.0,0.0,0.0,0.0,0.0,0.0,0.0,0.0,0.0,0.0,0.0,0.0,0.0,0.0,-0.2324,-0.5758,-1.0668,-1.5273,-1.9465,-1.9887,-1.9802,0.0,0.0,0.0,0.0,0.0,0.0,0.0,0.0,0.0,0.0,0.0,0.0,0.0,0.0,0.0,0.0,0.0,0.0,0.0,0.0,0.0,0.0,0.0,0.0,0.0,0.0,0.0,0.0,0.0,0.0,0.0,0.0,0.0,0.0,0.0,0.0,0.0,0.0,0.0,0.0,0.0,0.0,0.0,0.0,0.0,0.0,0.0,0.0,0.0,0.0,0.0,0.0,0.0,0.0,0.0,0.0,0.0,0.0,0.0,0.0,0.0,0.0,0.0,0.0,0.0,0.0,0.0,0.0,0.0,0.0,0.0,0.0,0.0,0.0,0.0,0.0,0.0,0.0,0.0,0.0,0.0,0.0,0.0,0.0,0.0,0.0,0.0,0.0,0.0,0.0,0.0,0.0,0.0,0.0,0.0,0.0,0.0,0.0,0.0,0.0,0.0,0.0,0.0,0.0,0.0,0.0,0.0,0.0,0.0421,-0.1825,-0.9866,-1.5664,-1.8724,-1.9596,-2.003,0.0,0.0,0.0,0.0,0.0,0.0,0.0,0.0,0.0,0.0,0.0,0.0,0.0,0.0,0.0,0.0,0.0,0.0,0.0,0.0,0.0,0.0,0.0,0.0,0.0,0.0,0.0,0.0,0.0,0.0,0.0,0.0,0.0,0.0,0.0,0.0,0.0,0.0,0.0,0.0,0.0,0.0,0.0,0.0,0.0,0.0,0.0,0.0,0.0,0.0,0.0,0.0,0.0,0.0,0.0,0.0,0.0,0.0,0.0,0.0,0.0,0.0,0.0,0.0,0.0,0.0,0.0,0.0,0.0,0.0,0.0,0.0,0.0,0.0,0.0,0.0,0.0,0.0,0.0,0.0,0.0,0.0,0.0,0.0,0.0,0.0,0.0,0.0,0.0,0.0,0.0,0.0,0.0,0.0,0.0,0.0,0.0,0.0,0.0,0.0,0.0,0.0,0.0,0.0,0.0,0.0,0.0,0.0,0.3216,-0.0928,-0.7227,-1.2931,-1.7916,-1.8872,-1.9617,0.0,0.0,0.0,0.0,0.0,0.0,0.0,0.0,0.0,0.0,0.0,0.0,0.0,0.0,0.0,0.0,0.0,0.0,0.0,0.0,0.0,0.0,0.0,0.0,0.0,0.0,0.0,0.0,0.0,0.0,0.0,0.0,0.0,0.0,0.0,0.0,0.0,0.0,0.0,0.0,0.0,0.0,0.0,0.0,0.0,0.0,0.0,0.0,-2.1448,0.0,0.0,0.0,0.0,0.0,0.0,0.0,0.0,0.0,0.0,0.0,0.0,0.0,0.0,0.0,0.0,0.0,0.0,0.0,0.0,0.0,0.0,0.0,0.0,0.0,0.0,0.0,0.0,0.0,0.0,0.0,0.0,0.0,0.0,0.0,0.0,0.0,0.0,0.0,0.0,0.0,0.0,0.0,0.0,0.0,0.0,0.0,0.0,0.0,0.0,0.0,0.0,0.0,0.0,0.0,0.0,0.0,0.0,0.0,0.2203,-0.0822,-0.783,-1.3367,-1.7015,-1.8068,-1.9107,0.0,0.0,0.0,0.0,0.0,0.0,0.0,0.0,0.0,0.0,0.0,0.0,0.0,0.0,0.0,0.0,0.0,0.0,0.0,0.0,0.0,0.0,0.0,0.0,0.0,0.0,0.0,0.0,0.0,0.0,0.0,0.0,0.0,0.0,0.0,0.0,0.0,0.0,0.0,0.0,0.0,0.0,0.0,0.0,0.0,0.0,0.0,0.0,0.0,0.0,0.0,0.0,0.0,0.0,0.0,0.0,0.0,0.0,0.0,0.0,0.0,0.0,0.0,0.0,0.0,0.0,0.0,0.0,0.0,0.0,0.0,0.0,0.0,0.0,0.0,0.0,0.0,0.0,0.0,0.0,0.0,0.0,0.0,0.0,0.0,0.0,0.0,0.0,0.0,0.0,0.0,0.0,0.0,0.0,0.0,0.0,0.0,0.0,0.0,0.0,0.0,0.0,0.0,0.0,0.0,0.0,0.0,0.4997,0.0016,-0.1131,-0.9464,-1.4857,-1.6611,-1.7467,-1.8709,-2.0423,0.0,0.0,0.0,0.0,0.0,0.0,0.0,0.0,0.0,0.0,0.0,0.0,0.0,0.0,0.0,0.0,0.0,0.0,0.0,0.0,0.0,0.0,0.0,0.0,0.0,0.0,0.0,0.0,0.0,0.0,0.0,0.0,0.0,0.0,0.0,0.0,0.0,0.0,-1.9543,-1.9289,0.0,0.0,0.0,0.0,0.0,0.0,0.0,0.0,-2.3559,0.0,0.0,0.0,0.0,0.0,0.0,0.0,0.0,0.0,0.0,0.0,0.0,0.0,0.0,0.0,0.0,0.0,0.0,0.0,0.0,0.0,0.0,0.0,0.0,0.0,0.0,0.0,0.0,0.0,0.0,0.0,0.0,0.0,0.0,0.0,0.0,0.0,0.0,0.0,0.0,0.0,0.0,0.0,0.0,0.0,0.0,0.0,0.0,0.0,0.0,0.0,0.0,0.0,0.0,0.0,0.0,1.4206,0.4991,-0.0249,-0.1259,-0.9622,-1.514,-1.7307,-1.7736,-1.872,-2.0378,0.0,0.0,0.0,0.0,0.0,0.0,0.0,0.0,0.0,0.0,0.0,0.0,0.0,0.0,0.0,0.0,0.0,0.0,0.0,0.0,0.0,0.0,0.0,0.0,0.0,0.0,0.0,0.0,0.0,0.0,0.0,0.0,0.0,0.0,0.0,0.0,0.0,0.0,0.0,-2.0302,-2.0249,0.0,0.0,0.0,0.0,0.0,0.0,0.0,0.0,-2.5087,0.0,0.0,0.0,0.0,0.0,0.0,0.0,0.0,0.0,0.0,0.0,0.0,0.0,0.0,0.0,0.0,0.0,0.0,0.0,0.0,0.0,0.0,0.0,0.0,0.0,0.0,0.0,0.0,0.0,0.0,0.0,0.0,0.0,0.0,0.0,0.0,0.0,0.0,0.0,0.0,0.0,0.0,0.0,0.0,0.0,0.0,0.0,0.0,0.0,0.0,0.0,0.0,0.0,0.0,0.0,1.3997,0.5117,-0.0206,-0.1304,-0.9514,-1.4859,-1.6753,-1.7482,-1.8467,0.0,0.0,0.0,0.0,0.0,0.0,0.0,0.0,0.0,0.0,0.0,0.0,0.0,0.0,0.0,0.0,0.0,0.0,0.0,0.0,0.0,0.0,0.0,0.0,0.0,0.0,0.0,0.0,0.0,0.0,0.0,0.0,0.0,0.0,0.0,0.0,0.0,0.0,0.0,0.0,-1.9875,-1.9791,-1.9771,0.0,0.0,0.0,0.0,0.0,0.0,-2.3566,-2.4556,0.0,0.0,0.0,0.0,0.0,0.0,0.0,0.0,0.0,0.0,0.0,0.0,0.0,0.0,0.0,0.0,0.0,0.0,0.0,0.0,0.0,0.0,0.0,0.0,0.0,0.0,0.0,0.0,0.0,0.0,0.0,0.0,0.0,0.0,0.0,0.0,0.0,0.0,0.0,0.0,0.0,0.0,0.0,0.0,0.0,0.0,0.0,0.0,0.0,0.0,0.0,0.0,0.0,0.0,0.0,1.4495,0.5413,0.0054,-0.1257,-0.9343,-1.4569,-1.6271,-1.7284,-1.8299,0.0,0.0,0.0,0.0,0.0,0.0,0.0,0.0,0.0,0.0,0.0,0.0,0.0,0.0,0.0,0.0,0.0,0.0,0.0,0.0,0.0,0.0,0.0,0.0,0.0,0.0,0.0,0.0,0.0,0.0,0.0,0.0,0.0,0.0,0.0,0.0,0.0,0.0,0.0,0.0,0.0,-1.9262,-1.9251,-2.0166,0.0,0.0,0.0,0.0,-2.2814,-2.3054,0.0,0.0,0.0,0.0,0.0,0.0,0.0,0.0,0.0,0.0,0.0,0.0,0.0,0.0,0.0,0.0,0.0,0.0,0.0,0.0,0.0,0.0,0.0,0.0,0.0,0.0,0.0,0.0,0.0,0.0,0.0,0.0,0.0,0.0,0.0,0.0,0.0,0.0,0.0,0.0,0.0,0.0,0.0,0.0,0.0,0.0,0.0,0.0,0.0,0.0,0.0,0.0,0.0,0.0,0.0,0.0,1.4553,0.6034,0.0646,-0.1279,-0.925,-1.471,-1.6983,-1.7497,-1.8509,0.0,0.0,0.0,0.0,0.0,0.0,0.0,0.0,0.0,0.0,0.0,0.0,0.0,0.0,0.0,0.0,0.0,0.0,0.0,0.0,0.0,0.0,0.0,0.0,0.0,0.0,0.0,0.0,0.0,0.0,0.0,0.0,0.0,0.0,0.0,0.0,0.0,0.0,0.0,0.0,0.0,-1.9837,-1.9741,-2.0345,-2.0892,0.0,0.0,-2.2068,-2.2267,-2.3059,0.0,0.0,0.0,0.0,0.0,0.0,0.0,0.0,0.0,0.0,0.0,0.0,0.0,0.0,0.0,0.0,0.0,0.0,0.0,0.0,0.0,0.0,0.0,0.0,0.0,0.0,0.0,0.0,0.0,0.0,0.0,0.0,0.0,0.0,0.0,0.0,0.0,0.0,0.0,0.0,0.0,0.0,0.0,0.0,0.0,0.0,0.0,0.0,0.0,0.0,0.0,0.0,0.0,0.0,0.0,1.5725,1.4899,0.6401,0.1009,-0.0938,-0.9055,-1.4602,-1.7023,-1.7448,-1.8503,0.0,0.0,0.0,0.0,0.0,0.0,0.0,0.0,0.0,0.0,0.0,0.0,0.0,0.0,0.0,0.0,0.0,0.0,0.0,0.0,0.0,0.0,0.0,0.0,0.0,0.0,0.0,0.0,0.0,0.0,0.0,0.0,0.0,0.0,0.0,0.0,0.0,0.0,0.0,0.0,0.0,0.0,-1.8716,-1.9385,0.0,0.0,0.0,-2.1698,-2.1982,0.0,0.0,0.0,0.0,0.0,0.0,0.0,0.0,0.0,0.0,0.0,0.0,0.0,0.0,0.0,0.0,0.0,0.0,0.0,0.0,0.0,0.0,0.0,0.0,0.0,0.0,0.0,0.0,0.0,0.0,0.0,0.0,0.0,0.0,0.0,0.0,0.0,0.0,0.0,0.0,0.0,0.0,0.0,0.0,0.0,0.0,0.0,0.0,0.0,0.0,0.0,0.0,0.0,0.0,0.0,0.0,0.0,1.5353,0.6886,0.1479,-0.0697,-0.8853,-1.4341,-1.6568,-1.7263,0.0,0.0,0.0,0.0,0.0,0.0,0.0,0.0,0.0,0.0,0.0,0.0,0.0,0.0,0.0,0.0,0.0,0.0,0.0,0.0,0.0,0.0,0.0,0.0,0.0,0.0,0.0,-1.929,0.0,0.0,0.0,0.0,0.0,0.0,0.0,0.0,0.0,0.0,0.0,0.0,0.0,0.0,-1.6837,-1.7302,-1.8196,-1.9058,0.0,0.0,-2.1415,-2.1815,-2.2243,-2.3176,0.0,0.0,0.0,0.0,0.0,0.0,0.0,0.0,0.0,0.0,0.0,0.0,0.0,0.0,0.0,0.0,0.0,0.0,0.0,0.0,0.0,0.0,0.0,0.0,0.0,0.0,0.0,0.0,0.0,0.0,0.0,0.0,0.0,0.0,0.0,0.0,0.0,0.0,0.0,0.0,0.0,0.0,0.0,0.0,0.0,0.0,0.0,0.0,0.0,0.0,0.0,0.0,0.0,0.0,1.7112,1.5555,0.7601,0.213,-0.0567,-0.8723,-1.3946,-1.5643,-1.6876,-1.8038,0.0,0.0,0.0,0.0,0.0,0.0,0.0,0.0,0.0,0.0,0.0,0.0,0.0,0.0,0.0,0.0,0.0,0.0,0.0,0.0,0.0,0.0,0.0,0.0,0.0,0.0,0.0,0.0,0.0,0.0,0.0,0.0,0.0,0.0,0.0,0.0,0.0,0.0,0.0,0.0,0.0,-1.5025,-1.5774,-1.7018,-1.8189,0.0,-2.0219,-2.1209,-2.1718,-2.2215,-2.315,-2.5094,0.0,0.0,0.0,0.0,0.0,0.0,0.0,0.0,0.0,0.0,0.0,0.0,0.0,0.0,0.0,0.0,0.0,0.0,0.0,0.0,0.0,0.0,0.0,0.0,0.0,0.0,0.0,0.0,0.0,0.0,0.0,0.0,0.0,0.0,0.0,0.0,0.0,0.0,0.0,0.0,0.0,0.0,0.0,0.0,0.0,0.0,0.0,0.0,0.0,0.0,0.0,0.0,0.0,1.6172,1.2176,0.6479,0.109,-0.4059,-1.0053,-1.3935,-1.5558,-1.6839,-1.8009,0.0,0.0,0.0,0.0,0.0,0.0,0.0,0.0,0.0,0.0,0.0,0.0,0.0,0.0,0.0,0.0,0.0,0.0,0.0,0.0,0.0,0.0,0.0,0.0,0.0,0.0,0.0,0.0,-1.854,-1.8755,-1.9564,0.0,0.0,0.0,0.0,0.0,0.0,0.0,0.0,0.0,0.0,-1.3418,-1.4586,-1.6086,0.0,0.0,-2.0334,-2.1441,-2.2017,-2.2527,-2.3361,-2.4795,-2.5515,0.0,0.0,0.0,0.0,0.0,0.0,0.0,0.0,0.0,0.0,0.0,0.0,0.0,0.0,0.0,0.0,0.0,0.0,0.0,0.0,0.0,0.0,0.0,0.0,0.0,0.0,-1.8447,-1.8397,0.0,0.0,0.0,0.0,0.0,0.0,0.0,0.0,0.0,0.0,0.0,0.0,0.0,0.0,0.0,0.0,0.0,0.0,0.0,0.0,0.0,0.0,0.0,0.0,1.5487,0.9862,0.5658,0.0285,-0.6372,-1.0901,-1.3862,-1.5184,-1.6687,-1.7877,0.0,0.0,0.0,0.0,0.0,0.0,0.0,0.0,0.0,0.0,0.0,0.0,0.0,0.0,0.0,0.0,0.0,0.0,0.0,0.0,0.0,0.0,0.0,0.0,0.0,0.0,0.0,0.0,-1.8365,-1.8451,-1.8631,0.0,0.0,0.0,0.0,0.0,0.0,0.0,0.0,0.0,0.0,-1.2099,-1.371,-1.551,-1.7232,-1.886,-2.0448,-2.1698,-2.2352,-2.2891,-2.367,-2.5012,0.0,0.0,0.0,0.0,0.0,0.0,0.0,0.0,0.0,0.0,0.0,0.0,0.0,0.0,0.0,0.0,0.0,0.0,0.0,0.0,0.0,0.0,0.0,0.0,0.0,0.0,0.0,-1.8785,0.0,0.0,-1.7256,0.0,0.0,0.0,0.0,0.0,0.0,0.0,0.0,0.0,0.0,0.0,0.0,0.0,0.0,0.0,0.0,0.0,0.0,0.0,0.0,0.0,0.0,1.5125,0.955,0.5213,-0.0,-0.6654,-1.1035,-1.3649,-1.4374,-1.6385,-1.7617,-1.7888,0.0,0.0,0.0,0.0,0.0,0.0,0.0,0.0,0.0,0.0,0.0,0.0,0.0,0.0,0.0,0.0,0.0,0.0,0.0,0.0,0.0,0.0,0.0,0.0,0.0,0.0,-1.7217,-1.7433,-1.7516,0.0,0.0,0.0,0.0,0.0,0.0,0.0,0.0,0.0,-0.8943,-0.9765,-1.1106,-1.305,-1.5198,-1.7216,-1.8899,-2.0581,-2.1949,-2.2694,-2.3206,-2.4114,0.0,0.0,0.0,0.0,0.0,0.0,0.0,0.0,0.0,0.0,0.0,0.0,0.0,0.0,0.0,0.0,0.0,0.0,0.0,0.0,0.0,0.0,0.0,0.0,0.0,0.0,0.0,-1.9347,-1.932,0.0,0.0,0.0,0.0,0.0,0.0,0.0,0.0,0.0,0.0,0.0,-2.0387,-2.0378,0.0,0.0,0.0,0.0,0.0,0.0,0.0,0.0,0.0,0.0,0.0,0.0,0.5439,0.0471,-0.1448,-0.5193,-1.0852,-1.304,-1.4171,-1.4302,-1.6365,-1.8138,-1.949,0.0,0.0,0.0,0.0,0.0,0.0,0.0,0.0,0.0,0.0,0.0,0.0,0.0,0.0,0.0,0.0,0.0,0.0,0.0,0.0,0.0,0.0,0.0,0.0,0.0,-1.76,0.0,0.0,0.0,0.0,0.0,0.0,0.0,0.0,0.0,0.0,-0.8843,-0.838,-0.8333,-0.9563,-1.123,-1.3491,-1.5666,-1.7703,0.0,0.0,0.0,0.0,0.0,0.0,0.0,0.0,0.0,0.0,0.0,0.0,0.0,0.0,-2.3128,-2.2949,-2.2625,-2.2289,-2.2063,0.0,0.0,0.0,0.0,0.0,0.0,0.0,0.0,0.0,0.0,0.0,0.0,0.0,0.0,-1.9835,-1.9793,-1.9612,0.0,0.0,0.0,0.0,0.0,0.0,0.0,0.0,-1.992,-2.0225,-2.0382,-2.0385,-2.0355,-2.0298,-2.0325,-2.0357,0.0,0.0,0.0,0.0,0.0,0.0,0.0,0.0,0.0,-0.4639,-0.532,-0.8237,-1.35,-1.4286,-1.4607,-1.4754,-1.6564,-1.8306,-1.9887,-2.0302,-2.0915,0.0,0.0,0.0,0.0,0.0,0.0,0.0,0.0,0.0,0.0,0.0,0.0,0.0,0.0,0.0,0.0,0.0,0.0,0.0,0.0,0.0,0.0,0.0,-1.6963,0.0,0.0,0.0,0.0,0.0,0.0,0.0,0.0,0.0,-0.8367,-0.7903,-0.7868,-0.8317,-0.9881,-1.1856,-1.4306,0.0,0.0,0.0,0.0,0.0,0.0,0.0,-2.5548,-2.5843,-2.6699,-2.7178,-2.6535,-2.5725,-2.4918,-2.4162,0.0,0.0,-2.2601,-2.2177,-2.1888,-2.1746,-2.1561,-2.1326,-2.1138,-2.0636,-2.0226,0.0,0.0,0.0,0.0,-2.0194,0.0,0.0,0.0,-2.0262,-2.0278,0.0,-2.0055,0.0,0.0,0.0,0.0,-1.7633,-1.8072,0.0,0.0,-1.9724,-2.013,-2.0369,-2.039,-2.036,-2.0296,-2.0359,-2.0386,-2.0391,-2.0322,-1.9924,0.0,0.0,0.0,0.0,0.0,-0.1241,-0.5929,-0.6389,-0.9193,-1.4661,-1.4761,-1.4965,-1.5627,-1.6989,-1.8197,-1.9129,-2.0041,-2.0888,-2.172,-2.2503,0.0,0.0,0.0,0.0,0.0,0.0,0.0,0.0,0.0,0.0,0.0,0.0,0.0,0.0,0.0,0.0,0.0,0.0,0.0,0.0,-1.6015,0.0,0.0,0.0,0.0,0.0,0.0,0.0,0.0,0.0,-0.937,-0.7735,-0.7661,-0.8072,-0.8902,0.0,0.0,0.0,0.0,-1.9614,-2.1379,-2.2614,-2.3505,-2.4044,-2.5013,-2.5967,-2.669,0.0,0.0,-2.6628,-2.5947,-2.5221,-2.4313,-2.3852,-2.3377,-2.2589,-2.2156,-2.1848,-2.1698,-2.1602,-2.1423,-2.1222,-2.0908,-2.051,-2.021,0.0,0.0,0.0,0.0,-2.0204,-2.0235,-2.0279,-2.0396,-2.0438,-2.0412,-2.0278,0.0,0.0,0.0,0.0,0.0,0.0,-1.8107,-1.8587,-1.9301,-1.9809,-2.0132,-2.0347,-2.04,-2.03,-2.0328,-2.0352,-2.0387,-2.0328,-2.0046,-1.951,0.0,0.0,0.0,0.0,-1.0497,-1.1647,-1.2164,-1.3262,-1.5077,-1.5811,-1.6605,-1.7532,-1.8156,-1.895,-1.9922,-2.0305,-2.0618,-2.0869,-2.1634,0.0,0.0,0.0,0.0,0.0,0.0,0.0,0.0,0.0,0.0,0.0,0.0,0.0,0.0,0.0,0.0,0.0,0.0,0.0,-1.5514,-1.522,-1.54,0.0,0.0,0.0,0.0,0.0,0.0,0.0,0.0,0.0,-0.9854,-0.9275,-0.9412,0.0,0.0,-1.4844,-1.7141,-1.9162,-2.0912,-2.2374,-2.3367,0.0,-2.4516,-2.5377,-2.6223,-2.6886,-2.7524,-2.7699,-2.6965,-2.6257,-2.5582,-2.4973,-2.4575,-2.4053,-2.3224,-2.2776,-2.2529,-2.2427,-2.2381,-2.2228,-2.2002,-2.1759,-2.1424,-1.9664,-1.9903,-2.018,-2.0245,-2.0169,-2.0162,-2.0198,-2.026,-2.0385,-2.0449,-2.0495,-2.0332,-1.9939,-1.9365,-1.8547,0.0,0.0,0.0,-1.781,-1.8167,-1.8939,-1.9492,-1.9804,-2.0098,-2.0186,-2.0148,-2.0172,-2.0214,-2.029,-2.0199,-2.0015,-1.9686,0.0,-1.7847,-1.6734,-1.5561,-1.4831,-1.4523,-1.4887,-1.5255,-1.5601,-1.6529,-1.73,-1.7823,-1.8429,-1.9096,-1.9767,-2.0238,-2.0506,-2.0506,-2.1273,-2.2032,0.0,0.0,0.0,0.0,0.0,0.0,0.0,0.0,0.0,0.0,0.0,-2.1796,-2.0961,0.0,0.0,0.0,-1.6199,-1.5235,-1.4663,-1.4783,0.0,0.0,0.0,0.0,0.0,0.0,0.0,-1.3352,-1.293,-1.264,-1.2187,-1.2081,-1.2192,-1.276,-1.462,-1.6718,-1.8863,0.0,-2.2091,-2.3243,-2.3971,-2.4511,-2.4837,-2.5584,-2.6318,-2.6849,-2.7132,-2.7068,-2.6398,-2.5783,-2.5279,-2.4854,-2.4547,-2.4191,-2.3654,-2.3405,-2.3067,-2.254,-2.2427,-2.237,-2.2206,-2.2048,-2.1838,-1.8854,-1.9045,-1.974,-2.003,-2.0029,-2.0025,-2.0087,-2.0142,-2.0199,-2.0329,-2.0439,-2.0244,-1.9801,-1.9167,-1.8159,0.0,-1.696,-1.7288,-1.76,-1.7866,-1.86,-1.9105,-1.9451,-1.9655,-1.9774,-1.9841,-1.9935,-1.9993,-2.0044,-1.9998,-1.9858,-1.9637,-1.8993,-1.8262,-1.742,-1.6307,-1.5535,-1.5127,-1.5226,-1.56,-1.625,-1.7012,-1.7353,-1.7197,-1.8204,-1.8883,-1.9117,-2.0007,-2.0497,-2.0537,-2.1207,-2.1917,-2.2601,0.0,0.0,0.0,0.0,0.0,0.0,0.0,0.0,0.0,0.0,0.0,0.0,0.0,0.0,-1.6219,-1.4949,0.0,-1.4274,-1.468,0.0,0.0,0.0,-1.6943,-1.6155,-1.6401,-1.6098,-1.4871,0.0,0.0,-1.453,-1.542,-1.5836,-1.5246,-1.6731,-1.8528,-2.0478,-2.1935,-2.3137,-2.4026,-2.4464,-2.4799,-2.5003,-2.5658,-2.6236,-2.6506,-2.6321,-2.6023,-2.5472,-2.5066,-2.4675,-2.4388,-2.4179,-2.4066,-2.3974,-2.3917,-2.3555,-2.2393,-2.2183,-2.2208,-2.2224,-2.2148,-2.2041,-1.7804,-1.803,-1.7955,-1.8504,-1.9425,-1.9478,-1.9521,-1.9608,-1.9715,-1.9845,-1.9949,-1.9819,-1.9303,-1.8501,-1.7838,-1.7206,-1.6633,-1.6854,-1.7068,-1.7336,-1.7935,-1.8455,-1.891,-1.9134,-1.9332,-1.9444,-1.9562,-1.9634,-1.9648,-1.963,-1.9504,-1.9313,-1.8799,-1.8271,-1.7688,-1.6664,-1.592,-1.5381,-1.5247,-1.5635,-1.6645,-1.7386,-1.8016,-1.8517,-1.9126,-1.9611,-1.9906,-2.0235,-2.0447,-2.0507,-2.0638,-2.1152,-2.2105,-2.2316,0.0,0.0,0.0,0.0,0.0,0.0,0.0,0.0,0.0,-1.9177,-1.8268,0.0,-1.6317,0.0,-1.4628,-1.4408,-1.4834,-1.513,0.0,0.0,-1.709,-1.7396,-1.7544,-1.7533,-1.7189,-1.648,-1.6445,-1.6559,-1.6785,-1.7586,-1.8453,-1.917,-1.9577,-2.0375,-2.19,-2.3057,-2.398,-2.458,-2.4905,-2.5096,-2.5153,-2.5642,-2.5995,-2.5875,-2.6105,-2.6195,-2.5797,-2.5543,-2.534,-2.5197,-2.5126,-2.4882,-2.4374,-2.4285,-2.3979,-2.3224,-2.324,-2.3397,-2.3313,-2.3239,-2.3059,-1.671,-1.6946,-1.6843,-1.7279,-1.8078,-1.8553,-1.8831,-1.8955,-1.9092,-1.9221,-1.9357,-1.9174,-1.8741,-1.8064,-1.7594,-1.7044,-1.6588,-1.6686,-1.6842,-1.7036,-1.7557,-1.7807,-1.7864,-1.8101,-1.8281,-1.8451,-1.8584,-1.8836,-1.9164,-1.921,-1.9129,-1.8919,-1.8462,-1.7943,-1.7397,-1.6661,-1.5948,-1.5285,-1.5022,-1.5338,-1.6344,-1.7139,-1.7947,-1.8795,-1.9332,-1.9794,-2.0183,-2.0317,-2.0433,-2.0506,-2.0433,-2.0887,-2.1876,-2.194,-2.249,0.0,0.0,0.0,0.0,0.0,0.0,0.0,0.0,0.0,0.0,0.0,-1.5738,-1.5051,-1.4783,-1.4823,-1.5361,-1.5706,-1.6223,-1.7106,-1.7668,-1.8079,-1.8239,-1.8444,-1.8382,-1.7912,-1.8086,-1.8414,-1.8811,-1.9546,-2.0464,-2.1538,-2.1863,-2.2259,-2.3043,-2.3897,-2.4576,-2.5005,-2.5191,-2.5233,-2.5138,-2.5285,-2.5346,-2.5105,-2.521,-2.5284,-2.501,-2.49,-2.4845,-2.4855,-2.487,-2.4782,-2.4459,-2.4417,-2.4264,-2.4016,-2.3997,-2.3928,-2.3549,-2.348,-2.3309,-1.5619,-1.5821,-1.6013,-1.6204,-1.6491,-1.738,-1.7932,-1.824,-1.8395,-1.8512,-1.8633,-1.8466,-1.8107,-1.7686,-1.7319,-1.6938,-1.657,-1.663,-1.6755,-1.6868,-1.7182,-1.7107,-1.6748,-1.6848,-1.6987,-1.7179,-1.7302,-1.779,-1.8565,-1.8619,-1.8564,-1.8463,-1.7991,-1.7428,-1.6755,-1.6192,-1.5563,-1.4807,-1.4561,-1.4814,-1.5632,-1.6505,-1.7465,-1.8455,-1.9114,-1.9671,-2.0158,-2.0317,-2.0435,-2.0495,-2.0423,-2.0783,-2.1645,-2.1843,-2.2413,0.0,-2.2928,0.0,0.0,0.0,0.0,0.0,0.0,0.0,0.0,-1.662,-1.5566,-1.5096,-1.5142,-1.5406,-1.5882,-1.6367,-1.6842,-1.7382,-1.8286,-1.876,-1.8633,-1.918,-1.9489,-1.9185,-1.9544,-2.0016,-2.0526,-2.1215,-2.2048,-2.2834,-2.3425,-2.3804,-2.4077,-2.4495,-2.4948,-2.5282,-2.5332,-2.5252,-2.5022,-2.4823,-2.4635,-2.4366,-2.4282,-2.4036,-2.3978,-2.3983,-2.402,-2.4035,-2.4099,-2.4135,-2.4179,-2.4139,-2.4173,-2.4107,-2.4045,-2.3914,-2.3545,-2.3432,-2.328,-1.4551,-1.4748,-1.4991,-1.5203,-1.5419,-1.5839,-1.6521,-1.7357,-1.7533,-1.7683,-1.7808,-1.7656,-1.744,-1.715,-1.6961,-1.6688,-1.6375,-1.6498,-1.657,-1.6644,-1.6395,-1.6321,-1.6373,-1.5994,-1.5857,-1.5942,-1.6146,-1.6592,-1.7329,-1.7285,-1.7486,-1.7841,-1.7292,-1.6631,-1.5917,0.0,0.0,0.0,-1.3663,-1.3991,-1.4755,-1.57,-1.6783,-1.7907,-1.8753,0.0,-2.0,-2.0269,-2.0428,-2.0485,-2.0381,0.0,0.0,0.0,0.0,0.0,0.0,0.0,0.0,0.0,0.0,0.0,-2.0838,-1.99,-1.8721,-1.7385,-1.6342,-1.5848,-1.587,-1.612,-1.6582,-1.7021,-1.7544,-1.809,-1.8736,-1.9197,-1.9529,-1.9884,-2.0227,-2.0426,-2.0815,-2.1215,-2.1636,-2.2285,-2.2946,-2.3514,-2.41,-2.4542,-2.4808,-2.4996,-2.5202,-2.5332,-2.5302,-2.5145,-2.4887,-2.4669,-2.4474,-2.4275,-2.4162,-2.4095,-2.4077,-2.4155,-2.4042,-2.3647,-2.3637,-2.3524,-2.3077,-2.2932,-2.3027,-2.2966,-2.2979,-2.3183,-2.3982,-2.4118,-2.3897,-1.3802,-1.3993,-1.4266,-1.4554,0.0,-1.5134,-1.5615,-1.6281,-1.6684,-1.6969,-1.7101,-1.7036,-1.691,-1.6696,-1.6554,-1.6417,-1.6254,-1.6301,-1.6429,-1.6523,-1.607,-1.5757,-1.5596,-1.5068,-1.483,-1.4925,-1.5095,-1.5722,-1.6756,-1.6698,-1.6863,-1.724,-1.6583,-1.5776,-1.4814,-1.3342,-1.2645,-1.2701,-1.276,-1.3098,-1.3873,-1.4903,-1.606,-1.73,-1.8332,0.0,0.0,0.0,0.0,0.0,0.0,0.0,0.0,-2.2152,-2.3063,-2.373,-2.3378,-2.2914,-2.246,-2.2669,-2.2651,-2.2127,-2.1541,-2.0303,-1.8279,-1.7512,-1.6983,-1.6633,-1.6945,-1.7364,-1.7858,-1.8207,-1.8707,-1.9304,-1.9582,-1.9876,-2.0348,-2.0693,-2.1039,-2.1366,-2.174,-2.2158,-2.253,-2.3067,-2.3577,-2.4024,-2.4435,-2.478,-2.5038,-2.5209,-2.5312,-2.5313,-2.5147,-2.4958,-2.4732,-2.4489,-2.4301,-2.4107,-2.3764,-2.3527,-2.3594,-2.3404,-2.3182,-2.2938,-2.3038,-2.3026,-2.2805,-2.2719,-2.2767,-2.2737,-2.2719,-2.284,-2.3468,-2.3451,-2.3249,-1.1936,-1.2253,-1.3368,-1.4084,-1.4476,-1.4797,-1.5066,-1.5381,-1.5968,0.0,0.0,-1.6455,-1.6409,-1.6289,-1.6214,-1.6166,-1.6166,-1.6194,-1.6316,-1.6443,-1.5937,-1.5471,-1.5055,-1.4533,-1.4318,-1.4372,-1.4507,-1.5249,-1.649,-1.6351,-1.6328,-1.6354,-1.4921,-1.3007,-1.0886,-0.9227,-0.9104,-1.04,-1.14,-1.2318,-1.306,-1.4171,-1.5412,-1.6743,-1.7864,-1.8851,-1.9605,-2.004,-2.0414,-2.071,-2.1345,-2.1869,-2.2235,-2.3075,-2.3732,-2.4168,-2.3795,-2.3379,-2.3039,-2.31,-2.2984,-2.2534,-2.2059,-2.0681,-1.8098,-1.7842,-1.7712,-1.7441,-1.8056,-1.8652,-1.9093,-1.9549,-2.0034,-2.0734,-2.0639,-2.0748,-2.1213,-2.1458,-2.1718,-2.2047,-2.24,-2.2807,-2.3164,-2.3562,-2.397,-2.4329,-2.4588,-2.4847,-2.5025,-2.5208,-2.5282,-2.5161,-2.4965,-2.4756,-2.4566,-2.432,-2.406,-2.3713,-2.3173,-2.2802,-2.2702,-2.2404,-2.214,-2.2152,-2.2336,-2.2365,-2.2359,-2.2251,-2.2479,-2.262,-2.2455,-2.2354,-2.2432,-2.2213,-2.2037,-0.6559,-0.7162,-1.1543,-1.3735,-1.4248,-1.4476,-1.4828,-1.5261,-1.5668,-1.587,-1.5906,-1.5978,-1.5962,-1.5877,-1.5975,-1.6032,-1.6032,-1.6159,-1.6269,-1.6386,-1.5904,-1.5679,-1.5655,-1.5182,-1.4989,-1.506,-1.5126,-1.5574,-1.6231,-1.587,-1.5567,-1.4774,-1.0381,-0.4981,0.0554,0.1519,-0.0209,-0.4251,-0.8933,-1.1746,-1.2584,-1.3657,-1.486,-1.6166,-1.7369,-1.8422,-1.9315,-1.9869,-2.0567,-2.1467,-2.1645,-2.2253,-2.3446,-2.3688,-2.4017,-2.4538,-2.4329,-2.4043,-2.3752,-2.4014,-2.392,-2.3285,-2.2754,-2.1703,-1.9975,-1.9379,-1.8922,-1.8402,-1.8863,-1.9286,-1.9675,-2.056,-2.1359,-2.1941,-2.1894,-2.1968,-2.2279,-2.2109,-2.2113,-2.2379,-2.2721,-2.3086,-2.3394,-2.3744,-2.404,-2.4348,-2.4543,-2.4732,-2.4818,-2.5006,-2.5072,-2.4955,-2.4723,-2.4515,-2.4338,-2.4115,-2.371,-2.2919,-2.2736,-2.2387,-2.2035,-2.187,-2.1693,-2.1351,-2.1445,-2.1339,-2.0856,-2.0563,-2.1113,-2.1671,-2.1329,-2.0919,-2.1493,-2.1089,-2.0735,-0.5212,-0.6163,-1.1097,-1.3555,-1.4104,-1.4529,-1.4675,-1.4623,-1.4841,-1.5161,-1.5566,-1.5639,-1.5675,-1.5704,-1.5812,-1.5926,-1.6004,-1.6131,-1.6289,-1.6416,-1.5945,-1.5783,-1.5862,-1.5416,-1.5238,-1.5259,-1.5325,-1.5619,-1.6009,-1.529,-1.3444,-1.0396,-0.409,0.0824,0.3692,0.1854,-0.0463,-0.2924,-0.5746,-0.8814,-1.2129,-1.3352,-1.4576,-1.5913,-1.707,-1.8127,-1.905,-1.9678,-2.0499,-2.1595,-2.2137,-2.2923,-2.4005,-2.4455,-2.4755,-2.4941,-2.4789,-2.4595,-2.4402,-2.4291,-2.3992,-2.3435,-2.2967,-2.227,-2.1211,-2.0309,-1.9698,-1.9578,-2.007,-2.0616,-2.1222,-2.1921,-2.2534,-2.3125,-2.2654,-2.2451,-2.2698,-2.2497,-2.236,-2.2525,-2.2816,-2.3118,-2.344,-2.3723,-2.399,-2.4257,-2.438,-2.4411,-2.4359,-2.4376,-2.4449,-2.4557,-2.4359,-2.4165,-2.403,-2.3843,-2.3541,-2.3156,-2.2383,-2.1872,-2.1543,-2.1237,-2.0609,-2.0444,-2.0786,-2.1033,-2.0746,-2.11,-2.149,-2.1659,-2.1229,-2.09,-2.1001,-2.0546,-2.0229,-0.4766,-0.5909,-1.1041,-1.3555,-1.4129,-1.4516,-1.4466,-1.412,-1.4012,-1.4421,-1.5125,-1.5264,-1.5411,-1.5617,-1.577,-1.5934,-1.6032,-1.6187,-1.6363,-1.6491,-1.6146,-1.6063,-1.6255,-1.5956,-1.5837,-1.5858,-1.5888,-1.5967,-1.5878,-1.3825,-0.9185,-0.2782,0.3107,0.659,0.7862,0.3498,0.0426,-0.1325,-0.3032,-0.6555,-1.185,-1.3215,-1.4446,-1.5709,-1.6832,-1.7881,-1.8788,-1.9632,-2.0622,-2.1795,-2.2759,-2.3681,-2.4527,-2.5128,-2.5391,-2.5272,-2.5155,-2.5032,-2.486,-2.4476,-2.4072,-2.3629,-2.3215,-2.2712,-2.2096,-2.1101,-2.0451,-2.0497,-2.1002,-2.1727,-2.2362,-2.3125,-2.3693,-2.4187,-2.3581,-2.3285,-2.3496,-2.3173,-2.2963,-2.3084,-2.3301,-2.3543,-2.3691,-2.388,-2.4025,-2.4065,-2.407,-2.3985,-2.3864,-2.3702,-2.3749,-2.3891,-2.3859,-2.375,-2.3689,-2.354,-2.3355,-2.3311,-2.2277,-2.1561,-2.1215,-2.0363,-1.9944,-2.0122,-2.0701,-2.1225,-2.1407,-2.1742,-2.216,-2.2326,-2.18,-2.1238,-2.1262,-2.0687,-2.0098,-0.3827,-0.6224,-1.1103,-1.3683,-1.439,-1.4211,-1.4097,-1.4027,-1.3608,-1.3783,-1.4496,-1.4624,-1.5033,-1.5587,-1.5862,-1.606,-1.6179,-1.6262,-1.644,-1.667,-1.67,-1.6854,-1.7085,-1.7317,-1.7516,-1.7504,-1.7462,-1.7044,-1.6073,-1.0413,-0.1842,0.8632,1.1154,1.3687,1.6796,1.2902,0.811,0.3255,-0.17,-0.6864,-1.1936,-1.3336,-1.445,-1.5598,-1.6664,-1.7671,-1.8619,-1.9926,-2.1242,-2.2509,-2.3527,-2.4498,-2.5342,-2.5556,-2.5559,-2.5486,-2.5401,-2.5281,-2.5082,-2.4869,-2.4559,-2.4226,-2.3731,-2.3206,-2.272,-2.2049,-2.1282,-2.0902,-2.1429,-2.2102,-2.2539,-2.3787,-2.4815,-2.5316,-2.4966,-2.4913,-2.5018,-2.4763,-2.4449,-2.4602,-2.454,-2.4694,-2.4363,-2.4357,-2.4252,-2.3774,-2.3613,-2.3477,-2.3342,-2.3124,-2.2979,-2.3043,-2.3156,-2.3318,-2.3301,-2.3232,-2.2972,-2.2452,-2.2157,-2.1606,-2.0942,-2.0924,-2.1061,-2.0541,-2.1152,-2.1719,-2.1821,-2.1955,-2.2269,-2.2748,-2.2414,-2.181,-2.1801,-2.1258,-2.0629,-0.4904,-0.6387,-1.1326,-1.3927,-1.4564,-1.4326,-1.4026,-1.3689,-1.3158,-1.3423,-1.4135,-1.4377,-1.5004,-1.5919,-1.6143,-1.6309,-1.6444,-1.6641,-1.6807,-1.7002,-1.7126,-1.732,-1.7572,-1.7898,-1.8056,-1.8057,-1.8061,-1.7405,-1.4646,-0.5975,0.3582,1.1764,1.5345,1.6599,1.5371,1.0432,0.507,-0.0504,-0.5971,-1.0215,-1.275,-1.3776,-1.4699,-1.5839,-1.6738,-1.7633,-1.8616,-1.9925,-2.1242,-2.2527,-2.356,-2.4584,-2.5547,-2.5605,-2.5585,-2.5564,-2.5488,-2.5406,-2.5274,-2.5091,-2.4866,-2.4564,-2.4128,-2.3654,-2.3132,-2.2548,-2.2111,-2.2131,-2.2423,-2.2881,-2.3568,-2.4639,-2.5564,-2.5903,-2.5621,-2.5429,-2.5566,-2.5065,-2.4688,-2.4731,-2.4811,-2.4896,-2.473,-2.4515,-2.4035,-2.3404,-2.3087,-2.2914,-2.2695,-2.2494,-2.2368,-2.2294,-2.2404,-2.2599,-2.2833,-2.2859,-2.2711,-2.2532,-2.2153,-2.155,-2.1466,-2.1063,-2.1087,-2.0925,-2.1671,-2.2204,-2.2294,-2.2723,-2.3113,-2.3259,-2.2821,-2.2173,-2.1815,-2.1447,-2.1115,-0.8098,-0.9004,-1.2525,-1.4413,-1.4956,-1.4385,-1.3972,-1.3597,-1.2906,-1.3069,-1.3883,-1.438,-1.5193,-1.615,-1.6486,-1.6693,-1.6841,-1.7068,-1.7264,-1.7407,-1.7593,-1.7752,-1.7975,-1.8309,-1.8427,-1.8356,-1.8307,-1.5821,-1.0796,-0.1676,0.7417,1.4364,1.8432,1.7661,1.2707,0.7419,0.1896,-0.3719,-0.9279,-1.2707,-1.3762,-1.4326,-1.5078,-1.6118,-1.6863,-1.7774,-1.8908,-2.0193,-2.1489,-2.2715,-2.3803,-2.4761,-2.5503,-2.5591,-2.5605,-2.5627,-2.5568,-2.5519,-2.543,-2.5245,-2.5057,-2.4776,-2.4402,-2.3976,-2.3477,-2.2947,-2.2863,-2.3211,-2.3257,-2.3517,-2.4445,-2.5406,-2.606,-2.6342,-2.6142,-2.6017,-2.6038,-2.5615,-2.5354,-2.5311,-2.5447,-2.5159,-2.4878,-2.4339,-2.3649,-2.2859,-2.2511,-2.2315,-2.2074,-2.1899,-2.1794,-2.1738,-2.1768,-2.194,-2.239,-2.2499,-2.2553,-2.2573,-2.2194,-2.2008,-2.2069,-2.1567,-2.1388,-2.1637,-2.2278,-2.2672,-2.2776,-2.3285,-2.3529,-2.348,-2.312,-2.2581,-2.2388,-2.1992,-2.1823,-1.3802,-1.4156,-1.4927,-1.5249,-1.5439,-1.4262,-1.387,-1.3917,-1.2847,-1.2806,-1.3696,-1.4705,-1.5662,-1.653,-1.703,-1.7256,-1.7376,-1.7537,-1.771,-1.7885,-1.8031,-1.8177,-1.8395,-1.8717,-1.8833,-1.8762,-1.8452,-1.209,-0.0465,0.3084,0.9795,1.9438,2.0094,1.7588,1.223,0.6923,0.1391,-0.4747,-1.0035,-1.33,-1.4354,-1.497,-1.5571,-1.6374,-1.7036,-1.816,-1.9642,-2.097,-2.2204,-2.3402,-2.4484,-2.5234,-2.5483,-2.5578,-2.5637,-2.5687,-2.5681,-2.5635,-2.5504,-2.5358,-2.5196,-2.4965,-2.4592,-2.4201,-2.3783,-2.328,-2.3232,-2.3727,-2.3573,-2.3891,-2.4896,-2.573,-2.6395,-2.6665,-2.6896,-2.6959,-2.6991,-2.6775,-2.6847,-2.6672,-2.6487,-2.5836,-2.4759,-2.3939,-2.3158,-2.2389,-2.2019,-2.1849,-2.1589,-2.1405,-2.1348,-2.1342,-2.1357,-2.1495,-2.1911,-2.2121,-2.2161,-2.2241,-2.2293,-2.2193,-2.2168,-2.2111,-2.2102,-2.216,-2.2399,-2.2705,-2.3126,-2.3307,-2.3314,-2.3302,-2.3286,-2.2989,-2.2887,-2.2667,-2.2464,-1.3772,-1.4079,-1.431,-1.4532,-1.4663,-1.3914,-1.368,-1.3769,-1.3063,-1.326,-1.4153,-1.5193,-1.6203,-1.7192,-1.7995,-1.8208,-1.8035,-1.8203,-1.8382,-1.8488,-1.8618,-1.8744,-1.8847,-1.9151,-1.924,-1.9134,-1.8766,-1.174,0.0332,0.3481,0.9947,1.8805,2.0319,1.6281,0.9055,0.5436,-0.019,-0.8383,-1.1844,-1.363,-1.4745,-1.5301,-1.6185,-1.756,-1.8062,-1.8812,-1.9882,-2.1543,-2.2789,-2.347,-2.455,-2.5226,-2.5427,-2.5585,-2.568,-2.5693,-2.5701,-2.5665,-2.5556,-2.5425,-2.5245,-2.5008,-2.4698,-2.4345,-2.3952,-2.354,-2.3459,-2.3824,-2.3834,-2.4173,-2.5026,-2.5811,-2.6256,-2.6464,-2.6923,-2.7195,-2.7158,-2.7023,-2.6893,-2.6717,-2.6496,-2.5815,-2.4553,-2.3936,-2.3169,-2.1931,-2.154,-2.1354,-2.1109,-2.0983,-2.0924,-2.093,-2.0956,-2.1047,-2.1237,-2.1645,-2.189,-2.2019,-2.2068,-2.1876,-2.1789,-2.1635,-2.1572,-2.127,-2.1694,-2.1823,-2.1964,-2.2229,-2.2374,-2.2653,-2.2678,-2.3025,-2.3304,-2.2929,-2.2863,-1.4052,-1.4218,-1.4304,-1.4434,-1.4557,-1.4004,-1.3836,-1.393,-1.3702,-1.382,-1.4401,-1.585,-1.6989,-1.7748,-1.8772,-1.9121,-1.883,-1.8903,-1.8972,-1.9052,-1.9185,-1.926,-1.935,-1.9546,-1.9619,-1.9318,-1.8333,-1.1204,0.0127,0.3388,1.0073,1.9903,2.0577,1.6604,0.9225,0.5758,-0.0243,-0.7864,-1.1784,-1.4033,-1.5343,-1.603,-1.7133,-1.8726,-1.9505,-2.0122,-2.0795,-2.2191,-2.3245,-2.3888,-2.4683,-2.5206,-2.5442,-2.56,-2.5681,-2.5701,-2.5697,-2.5675,-2.5591,-2.5492,-2.5293,-2.5044,-2.4799,-2.4478,-2.4105,-2.3689,-2.3744,-2.4039,-2.3859,-2.4025,-2.4757,-2.5303,-2.5637,-2.5918,-2.6431,-2.6797,-2.6807,-2.6416,-2.5989,-2.5623,-2.5393,-2.4735,-2.3778,-2.3416,-2.2622,-2.1375,-2.1087,-2.0877,-2.069,-2.0573,-2.0551,-2.061,-2.0631,-2.076,-2.0917,-2.1222,-2.1479,-2.1645,-2.1528,-2.1412,-2.1245,-2.1113,-2.0849,-2.058,-2.0502,-2.0558,-2.0752,-2.1051,-2.1379,-2.1723,-2.2115,-2.2504,-2.279,-2.307,-2.2979,-1.4961,-1.4969,-1.5139,-1.5071,-1.5023,-1.4473,-1.4325,-1.4418,-1.4713,-1.446,-1.4373,-1.6678,-1.7862,-1.8195,-1.9226,-1.9809,-1.9753,-1.9538,-1.9491,-1.9585,-1.9661,-1.9724,-1.9804,-1.9922,-1.9867,-1.9585,-1.7096,-1.0143,-0.0071,0.3142,0.9608,1.837,2.0948,1.8621,1.372,0.8386,0.2708,-0.3828,-0.9847,-1.4049,-1.6335,-1.7163,-1.8321,-1.9933,-2.1141,-2.1958,-2.2445,-2.2859,-2.3583,-2.451,-2.4911,-2.5255,-2.5525,-2.5614,-2.5645,-2.5697,-2.57,-2.5673,-2.559,-2.5476,-2.5301,-2.5088,-2.4856,-2.4545,-2.4201,-2.3819,-2.3813,-2.4096,-2.3753,-2.3554,-2.4127,-2.4382,-2.4716,-2.5279,-2.5549,-2.5758,-2.5807,-2.5214,-2.4416,-2.4067,-2.3922,-2.3313,-2.2645,-2.2383,-2.1863,-2.1082,-2.0679,-2.0512,-2.0382,-2.0246,-2.02,-2.0327,-2.0412,-2.0449,-2.0636,-2.0819,-2.1047,-2.1188,-2.0955,-2.0785,-2.0565,-2.037,-1.9959,-1.9658,-1.9641,-1.9697,-1.9791,-2.0105,-2.0595,-2.0965,-2.1432,-2.1933,-2.2321,-2.2615,-2.285,-1.4232,-1.4335,-1.4368,-1.4454,-1.4509,-1.4262,-1.4216,-1.439,-1.5058,-1.5271,-1.552,-1.738,-1.8415,-1.8744,-1.9599,-2.012,-2.0172,-2.0102,-2.0062,-2.0015,-2.0033,-2.0068,-2.0144,-2.0196,-1.9964,-1.9252,-1.7418,-1.2213,-0.4493,0.1221,0.7888,1.4683,1.9661,1.8873,1.4624,1.2129,0.702,-0.2409,-0.6376,-1.0753,-1.6091,-1.7819,-1.9296,-2.0924,-2.175,-2.2516,-2.3469,-2.3805,-2.42,-2.471,-2.4962,-2.5255,-2.5534,-2.5649,-2.5668,-2.5689,-2.5693,-2.5683,-2.56,-2.546,-2.531,-2.5107,-2.4865,-2.4559,-2.4248,-2.391,-2.3754,-2.3841,-2.3525,-2.3463,-2.3556,-2.3636,-2.394,-2.4567,-2.4986,-2.5088,-2.4966,-2.4421,-2.3877,-2.3525,-2.3307,-2.2905,-2.225,-2.1893,-2.144,-2.0686,-2.041,-2.0289,-2.0115,-1.9969,-1.9942,-2.0084,-2.0146,-2.0208,-2.0399,-2.0595,-2.0835,-2.0911,-2.0691,-2.0291,-2.002,-1.9634,-1.9177,-1.8887,-1.886,-1.8879,-1.8964,-1.9233,-1.9688,-2.0204,-2.0676,-2.1223,-2.1798,-2.2229,-2.2548,-1.4136,-1.4243,-1.4255,-1.4332,-1.4421,-1.4372,-1.4569,-1.5014,-1.587,-1.6445,-1.7008,-1.8412,-1.9234,-1.9526,-2.007,-2.0317,-2.0382,-2.0427,-2.0389,-2.0336,-2.0323,-2.0327,-2.0344,-2.0299,-2.0034,-1.932,-1.7843,-1.3478,-0.6684,-0.0094,0.6478,1.2857,1.9003,2.0662,1.735,1.5574,1.0644,0.3834,-0.2206,-0.7957,-1.3067,-1.7089,-1.9899,-2.1636,-2.2318,-2.3016,-2.393,-2.4284,-2.4526,-2.4737,-2.5022,-2.5335,-2.5571,-2.5658,-2.5701,-2.5702,-2.5701,-2.5681,-2.5591,-2.5509,-2.5347,-2.5141,-2.4919,-2.4639,-2.432,-2.403,-2.3801,-2.3603,-2.3453,-2.3378,-2.3298,-2.3241,-2.3406,-2.3667,-2.3971,-2.4007,-2.3655,-2.3356,-2.289,-2.2483,-2.2224,-2.1919,-2.1524,-2.1221,-2.0969,-2.0385,-2.0185,-2.0068,-1.9899,-1.9803,-1.9826,-1.9841,-1.9869,-2.001,-2.0193,-2.0407,-2.0618,-2.059,-2.0494,-2.0059,-1.9661,-1.9136,-1.8643,-1.8303,-1.8158,-1.8214,-1.83,-1.8402,-1.8756,-1.9319,-1.9932,-2.0696,-2.137,-2.2096,-2.2472,-1.4594,-1.471,-1.4728,-1.4752,-1.4799,-1.4809,-1.5252,-1.6131,-1.6973,-1.7669,-1.8421,-1.9508,-2.0215,-2.0408,-2.0443,-2.0475,-2.0498,-2.0471,-2.0476,-2.0456,-2.0458,-2.0447,-2.0392,-2.0337,-2.0092,-1.9556,-1.837,-1.4366,-0.8532,-0.1156,0.5617,1.1496,1.8525,2.2683,2.1296,1.8407,1.6031,1.2136,0.2724,-0.3915,-0.8213,-1.4614,-1.9719,-2.1917,-2.275,-2.3343,-2.3871,-2.4344,-2.4648,-2.4851,-2.5207,-2.5447,-2.5566,-2.5649,-2.5697,-2.5693,-2.5696,-2.5662,-2.5604,-2.5528,-2.5411,-2.5213,-2.4994,-2.4764,-2.4433,-2.4154,-2.3915,-2.3691,-2.3499,-2.3336,-2.3217,-2.3111,-2.3039,-2.2799,-2.2874,-2.2564,-2.1913,-2.2101,-2.1898,-2.1194,-2.0775,-2.0675,-2.0629,-2.0485,-2.0308,-2.0131,-1.9983,-1.9792,-1.9691,-1.9625,-1.9631,-1.9667,-1.9682,-1.9818,-2.0003,-2.0304,-2.0509,-2.056,-2.0456,-2.0058,-1.9455,-1.8837,-1.8434,-1.8051,-1.7928,-1.7859,-1.7849,-1.8135,-1.8177,-1.8504,-1.9269,-2.0145,-2.0914,-2.1608,-2.2262,-1.4873,-1.4997,-1.5053,-1.507,-1.5095,-1.5081,-1.5612,-1.6463,-1.734,-1.8178,-1.8975,-1.9904,-2.0393,-2.0479,-2.0507,-2.0505,-2.0485,-2.0448,-2.043,-2.0422,-2.0424,-2.0453,-2.0457,-2.0392,-2.0211,-1.979,-1.8817,-1.6693,-1.2811,-0.3477,0.3115,0.6888,1.7077,2.2479,2.2371,2.2247,1.9713,1.5618,1.1472,0.2877,-0.6064,-1.0129,-1.5133,-2.0942,-2.2197,-2.299,-2.3636,-2.4448,-2.4965,-2.5163,-2.5358,-2.5503,-2.5591,-2.5661,-2.5693,-2.5694,-2.5693,-2.5674,-2.561,-2.5534,-2.5406,-2.5215,-2.5065,-2.4813,-2.4493,-2.422,-2.3978,-2.3734,-2.3539,-2.333,-2.3153,-2.2995,-2.2729,-2.2398,-2.2298,-2.2073,-2.1719,-2.1446,-2.1214,-2.0801,-2.0592,-2.0475,-2.0365,-2.0254,-2.015,-2.0018,-1.9876,-1.9705,-1.9574,-1.9465,-1.9472,-1.9472,-1.9508,-1.9639,-1.9854,-2.0158,-2.0365,-2.052,-2.047,-2.0271,-1.9551,-1.8814,-1.8511,-1.8236,-1.855,-1.8566,-1.8369,-1.836,-1.8245,-1.8178,-1.9008,-2.0032,-2.0396,-2.0985,-2.1776,-1.5254,-1.5699,-1.577,-1.5987,-1.6257,-1.6266,-1.6747,-1.7538,-1.8064,-1.8805,-1.9617,-2.0144,-2.0449,-2.0502,-2.0474,-2.0459,-2.0438,-2.0389,-2.0371,-2.0334,-2.0296,-2.0337,-2.0421,-2.0409,-2.0287,-2.0027,-1.9335,-1.8,-1.4981,-0.6703,-0.0569,0.5056,1.4037,1.9977,2.2508,2.3659,2.2832,1.8852,1.5493,0.8231,-0.1343,-0.6439,-1.2512,-1.8477,-2.1073,-2.235,-2.3651,-2.4568,-2.5105,-2.531,-2.5467,-2.5566,-2.5634,-2.5661,-2.5648,-2.5668,-2.5677,-2.5662,-2.5605,-2.5553,-2.5454,-2.5293,-2.5138,-2.4892,-2.4604,-2.4301,-2.4028,-2.3728,-2.3526,-2.3289,-2.3036,-2.2808,-2.2552,-2.2313,-2.2081,-2.1848,-2.1511,-2.1222,-2.0933,-2.0669,-2.0509,-2.0407,-2.0296,-2.0227,-2.0123,-2.0025,-1.9841,-1.9669,-1.9531,-1.9384,-1.931,-1.9339,-1.9442,-1.9574,-1.9818,-2.0123,-2.0373,-2.0527,-2.046,-2.0296,-1.9851,-1.9066,-1.8814,-1.8771,-1.9096,-1.921,-1.8901,-1.8692,-1.8616,-1.8806,-1.9391,-1.9799,-2.0228,-2.0705,-2.1466,-1.5739,-1.6509,-1.666,-1.7137,-1.7628,-1.7686,-1.7968,-1.8805,-1.8867,-1.9409,-2.0155,-2.0354,-2.0426,-2.0474,-2.043,-2.039,-2.0392,-2.0327,-2.0267,-2.0219,-2.0139,-2.0127,-2.0216,-2.0297,-2.026,-2.0103,-1.9659,-1.8715,-1.5976,-1.0371,-0.4252,0.2288,1.0039,1.6415,2.0319,2.2884,2.3933,2.2363,1.8464,1.2756,0.5298,-0.1351,-0.837,-1.5192,-2.0059,-2.2065,-2.3683,-2.4665,-2.5139,-2.5409,-2.5528,-2.5614,-2.568,-2.5629,-2.5606,-2.5613,-2.5662,-2.5657,-2.561,-2.5589,-2.5535,-2.5383,-2.5214,-2.5009,-2.4717,-2.4397,-2.4078,-2.3732,-2.3517,-2.3256,-2.291,-2.2659,-2.2487,-2.2302,-2.2052,-2.1751,-2.1402,-2.1111,-2.0844,-2.0595,-2.0535,-2.0475,-2.0381,-2.0304,-2.0227,-2.0131,-1.9912,-1.9669,-1.9531,-1.9384,-1.9339,-1.9295,-1.9398,-1.9537,-1.979,-2.0088,-2.0331,-2.0545,-2.0413,-2.0289,-2.0217,-1.9691,-1.9351,-1.9315,-1.9691,-1.9629,-1.9278,-1.9126,-1.9077,-1.9061,-1.9364,-1.9822,-2.027,-2.0823,-2.1518,-1.6352,-1.6625,-1.7226,-1.753,-1.7596,-1.7529,-1.7992,-1.8787,-1.8846,-1.9422,-2.0107,-2.0352,-2.0395,-2.0419,-2.0398,-2.0382,-2.0305,-2.0254,-2.0144,-1.999,-1.9916,-1.9826,-1.9848,-1.997,-2.008,-2.0026,-1.9912,-1.9309,-1.7066,-1.2635,-0.7432,-0.2824,0.6326,1.404,1.6484,2.1091,2.3858,2.339,2.2039,1.8099,1.1676,0.4937,-0.2574,-1.0561,-1.7752,-2.2055,-2.3593,-2.4578,-2.5139,-2.5421,-2.5554,-2.5595,-2.5613,-2.5605,-2.5591,-2.5595,-2.5615,-2.562,-2.5605,-2.5579,-2.5554,-2.5416,-2.5245,-2.508,-2.4804,-2.4472,-2.4118,-2.3768,-2.3517,-2.3223,-2.2833,-2.2659,-2.2506,-2.2349,-2.2118,-2.189,-2.1625,-2.1325,-2.103,-2.0827,-2.0703,-2.0603,-2.0475,-2.0365,-2.0296,-2.02,-1.999,-1.9705,-1.9567,-1.942,-1.9347,-1.9295,-1.9442,-1.9581,-1.9833,-2.0158,-2.0426,-2.0603,-2.0517,-2.044,-2.0361,-2.0272,-1.9888,-1.9976,-2.0312,-2.0097,-1.9709,-1.9607,-1.9528,-1.9441,-1.9386,-1.9858,-2.0374,-2.0918,-2.1254,-1.7016,-1.7798,-1.813,-1.8426,-1.8679,-1.8592,-1.879,-1.918,-1.9297,-1.9617,-2.0079,-2.0292,-2.0365,-2.0384,-2.039,-2.0357,-2.0277,-2.0134,-1.9979,-1.9821,-1.971,-1.9581,-1.943,-1.9535,-1.9658,-1.9812,-1.9823,-1.9496,-1.8027,-1.5335,-1.16,-0.7327,0.1063,0.7559,1.2856,1.7804,2.0998,2.315,2.3716,2.1068,1.4995,0.8551,-0.1163,-1.0493,-1.82,-2.2174,-2.3566,-2.453,-2.5104,-2.5414,-2.5541,-2.556,-2.5556,-2.5564,-2.5535,-2.5518,-2.555,-2.5558,-2.5553,-2.5543,-2.5522,-2.5416,-2.5274,-2.5084,-2.4851,-2.454,-2.4192,-2.384,-2.3562,-2.3283,-2.2885,-2.272,-2.2587,-2.2453,-2.2268,-2.2061,-2.1789,-2.1472,-2.1167,-2.0998,-2.0924,-2.0793,-2.0652,-2.0527,-2.0399,-2.0339,-2.0103,-1.982,-1.9625,-1.9487,-1.9384,-1.9384,-1.9487,-1.9661,-1.9912,-2.0227,-2.0527,-2.0703,-2.0706,-2.0685,-2.0662,-2.0543,-2.0369,-2.0504,-2.0559,-2.0493,-2.0143,-2.0096,-1.9986,-1.9986,-2.0018,-2.0153,-2.0344,-2.0741,-2.0958,-1.7694,-1.9105,-1.9085,-1.9439,-1.9931,-1.98,-1.9722,-1.9775,-1.9872,-1.9926,-2.0123,-2.0248,-2.0344,-2.0394,-2.0406,-2.0363,-2.0236,-2.006,-1.9891,-1.9688,-1.9574,-1.9413,-1.9256,-1.9204,-1.9239,-1.9492,-1.9573,-1.9478,-1.9229,-1.8349,-1.5143,-1.063,-0.6509,-0.0385,0.7211,1.3453,1.6899,1.9867,2.2762,2.1398,1.5583,0.8962,-0.1665,-1.442,-1.9496,-2.197,-2.3419,-2.4479,-2.5169,-2.5477,-2.5519,-2.5481,-2.5456,-2.5456,-2.545,-2.5394,-2.5432,-2.5452,-2.5459,-2.5466,-2.5452,-2.5393,-2.5255,-2.5086,-2.4851,-2.4566,-2.4238,-2.3901,-2.3585,-2.3315,-2.3047,-2.2834,-2.2694,-2.2606,-2.2443,-2.222,-2.1974,-2.1648,-2.1394,-2.1191,-2.1111,-2.1014,-2.0876,-2.0728,-2.0603,-2.0399,-2.02,-1.9962,-1.9769,-1.9617,-1.9523,-1.9531,-1.9632,-1.9848,-2.0103,-2.0339,-2.0636,-2.0761,-2.0835,-2.0876,-2.0843,-2.0724,-2.063,-2.0586,-2.0599,-2.0524,-2.0449,-2.0299,-2.0307,-2.0452,-2.0398,-2.0226,-2.0364,-2.0553,-2.0636,-1.8185,-1.9156,-1.9744,-1.9998,-1.9979,-1.9861,-1.9822,-1.9813,-1.9888,-1.9974,-2.0116,-2.0246,-2.0357,-2.0438,-2.0425,-2.0334,-2.0219,-2.006,-1.986,-1.9634,-1.9499,-1.9326,-1.9159,-1.9024,-1.8989,-1.8995,-1.9216,-1.9416,-1.9471,-1.9083,-1.7636,-1.4924,-1.0641,-0.5815,-0.1105,0.6173,1.1854,1.3997,1.8507,1.8789,1.408,0.7325,-0.2269,-1.6274,-2.0099,-2.1992,-2.341,-2.4509,-2.5206,-2.5459,-2.5508,-2.5444,-2.5359,-2.5351,-2.5303,-2.5274,-2.5302,-2.5329,-2.5328,-2.5382,-2.5385,-2.5313,-2.5172,-2.5024,-2.4809,-2.4515,-2.4183,-2.3849,-2.3486,-2.3144,-2.3079,-2.2885,-2.2764,-2.2685,-2.2552,-2.2396,-2.222,-2.2003,-2.1743,-2.1487,-2.134,-2.123,-2.1135,-2.0958,-2.0794,-2.0595,-2.0365,-2.0166,-1.9955,-1.9841,-1.9733,-1.9741,-1.9777,-2.0033,-2.0285,-2.0517,-2.0752,-2.086,-2.0933,-2.0941,-2.0941,-2.0876,-2.081,-2.0769,-2.0662,-2.0496,-2.0444,-2.0407,-2.0331,-2.0289,-2.0247,-2.0212,-2.0254,-2.0339,-2.0339,-1.858,-1.9789,-2.012,-2.0179,-2.0056,-1.9935,-1.9903,-1.9914,-1.9982,-2.0079,-2.0196,-2.0298,-2.0397,-2.0468,-2.0482,-2.0381,-2.0244,-2.0106,-1.993,-1.9707,-1.9522,-1.9368,-1.9207,-1.9075,-1.8974,-1.899,-1.9148,-1.9294,-1.94,-1.9516,-1.909,-1.8038,-1.4901,-1.2245,-0.8706,-0.2488,0.3154,0.5834,0.9954,1.1589,0.8249,0.2029,-0.7819,-1.5594,-2.0527,-2.2389,-2.3708,-2.4687,-2.5279,-2.5488,-2.5516,-2.5423,-2.5322,-2.523,-2.5176,-2.5138,-2.5172,-2.5204,-2.5185,-2.5234,-2.5214,-2.5136,-2.5012,-2.4883,-2.4676,-2.4399,-2.405,-2.3719,-2.3481,-2.3201,-2.3146,-2.2944,-2.2868,-2.2782,-2.265,-2.2499,-2.24,-2.2298,-2.2081,-2.1819,-2.1648,-2.1503,-2.1396,-2.123,-2.0982,-2.0786,-2.0561,-2.0365,-2.0173,-2.0061,-1.9983,-2.001,-2.0053,-2.0262,-2.0483,-2.0644,-2.0851,-2.0966,-2.1023,-2.1071,-2.1079,-2.1014,-2.099,-2.0957,-2.0769,-2.0579,-2.0433,-2.0423,-2.0262,-2.015,-2.0143,-2.0143,-2.0088,-2.0096,-1.9997,-1.8893,-2.0366,-2.036,-2.0258,-2.0113,-2.006,-2.0048,-2.0043,-2.009,-2.0171,-2.0309,-2.0365,-2.0399,-2.0449,-2.0449,-2.0391,-2.0291,-2.0175,-2.0038,-1.9865,-1.9684,-1.9531,-1.939,-1.9286,-1.9182,-1.9194,-1.928,-1.9265,-1.9306,-1.9517,-1.9692,-1.9374,-1.8922,-1.7316,-1.3146,-0.9358,-0.6423,-0.3572,0.0213,0.0841,-0.19,-0.7199,-1.3307,-1.9171,-2.1616,-2.3143,-2.4235,-2.4929,-2.5356,-2.5517,-2.5539,-2.5452,-2.5303,-2.5177,-2.5072,-2.5006,-2.5041,-2.505,-2.5035,-2.5019,-2.4975,-2.4911,-2.4809,-2.4685,-2.4493,-2.4183,-2.3849,-2.3544,-2.3345,-2.321,-2.313,-2.2987,-2.2893,-2.2842,-2.2738,-2.2588,-2.2536,-2.2463,-2.2379,-2.2155,-2.1953,-2.1806,-2.1664,-2.1466,-2.1222,-2.103,-2.081,-2.0636,-2.0441,-2.0339,-2.0262,-2.0289,-2.0357,-2.0527,-2.0662,-2.0753,-2.0958,-2.1103,-2.1159,-2.1199,-2.1207,-2.1183,-2.1151,-2.1111,-2.0941,-2.072,-2.0577,-2.0388,-2.0277,-2.0166,-2.0115,-1.9924,-1.9629,-1.9473,-1.9375,-1.9161,-2.0321,-2.0422,-2.0361,-2.0193,-2.0175,-2.0177,-2.0173,-2.0166,-2.0234,-2.0269,-2.0301,-2.0302,-2.0311,-2.0312,-2.0297,-2.028,-2.0257,-2.0173,-2.0042,-1.9993,-1.9934,-1.9744,-1.9582,-1.9828,-1.9882,-1.9822,-1.9497,-1.966,-1.9804,-1.9773,-1.9904,-2.0614,-2.0565,-1.9211,-1.4923,-1.1113,-0.9739,-0.4151,-0.3327,-0.8745,-1.4958,-1.8958,-2.122,-2.279,-2.3873,-2.4643,-2.5165,-2.5454,-2.5575,-2.5592,-2.5489,-2.5339,-2.5242,-2.5096,-2.4987,-2.4907,-2.4894,-2.4851,-2.4784,-2.4717,-2.4654,-2.4566,-2.4469,-2.4211,-2.3921,-2.3571,-2.3342,-2.3184,-2.3119,-2.3038,-2.2893,-2.2842,-2.279,-2.2738,-2.2659,-2.2615,-2.2589,-2.2543,-2.2479,-2.2268,-2.2089,-2.1915,-2.1694,-2.1466,-2.127,-2.1079,-2.0876,-2.0736,-2.0603,-2.0543,-2.0561,-2.0603,-2.0777,-2.0893,-2.0974,-2.1111,-2.1262,-2.1325,-2.1356,-2.1388,-2.1427,-2.1356,-2.1285,-2.1087,-2.0893,-2.0744,-2.0551,-2.032,-2.0181,-2.0088,-1.9584,-1.8966,-1.8891,-1.9038,-1.9544,-2.0171,-2.0243,-2.0225,-2.0138,-2.0135,-2.0138,-2.0143,-2.0127,-2.0145,-2.0119,-2.007,-2.0068,-2.0084,-2.0101,-2.0147,-2.0191,-2.0253,-2.027,-2.0419,-2.0563,-2.0754,-2.0871,-2.1098,-2.1306,-2.1166,-2.1309,-2.1429,-2.1092,-2.066,-2.0556,-2.0759,-2.1749,-2.2431,-2.2868,-2.0023,-1.8934,-1.7679,-1.5326,-1.4491,-1.718,-2.0029,-2.2217,-2.3007,-2.3888,-2.4545,-2.5007,-2.5347,-2.5553,-2.5636,-2.5623,-2.5544,-2.5418,-2.5303,-2.5189,-2.5025,-2.4898,-2.478,-2.4644,-2.4566,-2.4459,-2.4337,-2.4248,-2.4087,-2.3834,-2.358,-2.333,-2.3126,-2.302,-2.2944,-2.2919,-2.2808,-2.2799,-2.2773,-2.2756,-2.2756,-2.2703,-2.2703,-2.2677,-2.2632,-2.256,-2.2352,-2.2147,-2.1924,-2.1694,-2.1542,-2.1317,-2.1127,-2.103,-2.0933,-2.0901,-2.0868,-2.0916,-2.0998,-2.1063,-2.1175,-2.1301,-2.1442,-2.1542,-2.1565,-2.1625,-2.1625,-2.1595,-2.1472,-2.1317,-2.1127,-2.0941,-2.0677,-2.0407,-2.0235,-2.0103,-1.9606,-1.9166,-1.9201,-1.9361,-1.9366,-1.9597,-1.983,-1.997,-1.9998,-2.0,-2.0007,-1.9993,-1.9967,-1.993,-1.9859,-1.9741,-1.9692,-1.9752,-1.98,-1.9857,-1.9973,-2.0142,-2.0381,-2.0731,-2.1187,-2.1586,-2.1847,-2.2359,-2.2539,-2.2673,-2.2284,-2.223,-2.2086,-2.1889,-2.1571,-2.1607,-2.255,-2.3027,-2.3138,-2.2788,-2.2573,-2.2142,-2.1736,-2.1635,-2.2407,-2.285,-2.3615,-2.4132,-2.4652,-2.5099,-2.5333,-2.5502,-2.5631,-2.5648,-2.5623,-2.5558,-2.5471,-2.5376,-2.5264,-2.5091,-2.4942,-2.4723,-2.4551,-2.4414,-2.4257,-2.4095,-2.3908,-2.3728,-2.3403,-2.3247,-2.3126,-2.2919,-2.2816,-2.2782,-2.2773,-2.2712,-2.2721,-2.2747,-2.2773,-2.279,-2.2816,-2.2799,-2.2782,-2.2738,-2.2667,-2.2587,-2.2352,-2.2126,-2.1953,-2.1768,-2.1587,-2.1402,-2.1309,-2.1214,-2.1159,-2.1127,-2.1135,-2.1183,-2.1302,-2.1411,-2.1534,-2.1648,-2.1746,-2.1806,-2.1819,-2.1857,-2.1814,-2.1694,-2.1534,-2.1325,-2.1103,-2.0802,-2.0501,-2.0296,-2.01,-1.9831,-1.9589,-1.9572,-1.9404,-1.8175,-1.8227,-1.9158,-1.9578,-1.9684,-1.9709,-1.9732,-1.9714,-1.967,-1.9598,-1.9481,-1.9285,-1.9245,-1.9322,-1.9365,-1.9466,-1.964,-1.9823,-2.0437,-2.105,-2.1572,-2.218,-2.2636,-2.2939,-2.3017,-2.293,-2.2853,-2.2555,-2.1784,-2.0816,-2.1594,-2.2566,-2.2373,-2.2609,-2.2739,-2.284,-2.3001,-2.2923,-2.2959,-2.3341,-2.3589,-2.3962,-2.4313,-2.4635,-2.5024,-2.5349,-2.5469,-2.5548,-2.5605,-2.5624,-2.5615,-2.5581,-2.5509,-2.5441,-2.5321,-2.5172,-2.4962,-2.4757,-2.4567,-2.4337,-2.4161,-2.3978,-2.3727,-2.3449,-2.3151,-2.302,-2.2851,-2.2694,-2.2614,-2.2632,-2.2632,-2.2632,-2.2703,-2.2782,-2.2833,-2.2876,-2.2876,-2.2902,-2.2859,-2.2816,-2.2747,-2.2694,-2.2614,-2.2388,-2.2192,-2.2011,-2.1894,-2.1708,-2.1548,-2.1456,-2.1371,-2.1348,-2.1317,-2.1388,-2.1559,-2.1642,-2.1724,-2.1835,-2.1953,-2.1966,-2.2007,-2.2023,-2.2028,-2.1827,-2.1639,-2.1433,-2.123,-2.0925,-2.0628,-2.0365,-2.0147,-1.9958,-1.963,-1.9402,-1.9079,-1.8454,-1.848,-1.8947,-1.8967,-1.8761,-1.9304,-1.9509,-1.9453,-1.9382,-1.9231,-1.9059,-1.8928,-1.8851,-1.8867,-1.8925,-1.9041,-1.9323,-2.0048,-2.0614,-2.1445,-2.2221,-2.3046,-2.3585,-2.3925,-2.4266,-2.3949,-2.3632,-2.2961,-2.2131,-1.861,-1.5667,-1.6171,-1.9226,-2.2228,-2.2483,-2.1706,-2.1971,-2.2207,-2.2504,-2.2894,-2.3417,-2.3835,-2.4218,-2.46,-2.4934,-2.5195,-2.5352,-2.5493,-2.5547,-2.5586,-2.5605,-2.5581,-2.555,-2.5489,-2.54,-2.5274,-2.5039,-2.4827,-2.4589,-2.4318,-2.4007,-2.3687,-2.3453,-2.3208,-2.2961,-2.2816,-2.2667,-2.2542,-2.2487,-2.2525,-2.2533,-2.2614,-2.272,-2.2851,-2.2919,-2.2961,-2.2986,-2.3011,-2.297,-2.2919,-2.2877,-2.2825,-2.2747,-2.2641,-2.2451,-2.2248,-2.2163,-2.204,-2.1878,-2.1743,-2.17,-2.1648,-2.1648,-2.1648,-2.1784,-2.1844,-2.1903,-2.2011,-2.2155,-2.2175,-2.2166,-2.22,-2.216,-2.1974,-2.1751,-2.1503,-2.1262,-2.1023,-2.0761,-2.046,-2.0281,-2.0104,-1.9749,-1.9371,-1.9221,-1.8202,-1.8248,-1.8386,-1.8435,-1.8447,-1.9039,-1.9277,-1.9227,-1.918,-1.8999,-1.8734,-1.8613,-1.8528,-1.85,-1.8501,-1.8634,-1.9039,-1.9782,-2.0566,-2.1517,-2.2587,-2.3619,-2.4165,-2.4468,-2.4575,-2.4519,-2.3534,-2.2518,-1.7951,-1.3267,-0.9883,-0.9596,-1.2427,-1.4867,-1.8261,-2.0083,-2.0719,-2.1226,-2.1734,-2.2237,-2.2799,-2.3324,-2.3822,-2.4263,-2.4654,-2.4983,-2.5201,-2.5374,-2.5514,-2.5571,-2.561,-2.5605,-2.5586,-2.5553,-2.5471,-2.533,-2.5141,-2.493,-2.4651,-2.4283,-2.3894,-2.3576,-2.3321,-2.307,-2.2842,-2.2685,-2.2587,-2.2496,-2.2468,-2.2515,-2.2596,-2.2747,-2.2893,-2.3045,-2.3095,-2.3135,-2.3144,-2.3168,-2.3095,-2.302,-2.297,-2.2919,-2.2928,-2.2851,-2.2712,-2.2525,-2.2396,-2.2304,-2.224,-2.2138,-2.2101,-2.2061,-2.2011,-2.204,-2.2061,-2.2106,-2.2172,-2.224,-2.2332,-2.2341,-2.2377,-2.2366,-2.2231,-2.196,-2.1728,-2.1548,-2.1294,-2.1038,-2.0802,-2.0553,-2.0376,-2.017,-2.0151,-1.9855,-1.9947,-1.7153,-1.716,-1.7423,-1.8075,-1.8873,-1.9048,-1.9115,-1.9141,-1.9043,-1.887,-1.8619,-1.8397,-1.8249,-1.8237,-1.8205,-1.8272,-1.8647,-1.9445,-2.0351,-2.1451,-2.261,-2.3558,-2.408,-2.4398,-2.4172,-2.3685,-2.23,-1.8715,-1.1977,-0.8454,-0.4622,-0.0942,-0.1907,-0.5831,-0.9756,-1.6195,-1.9534,-2.0447,-2.1134,-2.1724,-2.231,-2.2867,-2.3368,-2.3924,-2.4358,-2.4732,-2.5055,-2.5291,-2.5444,-2.5553,-2.5596,-2.561,-2.5595,-2.5579,-2.5502,-2.5365,-2.5174,-2.4955,-2.4686,-2.4201,-2.3828,-2.3539,-2.3298,-2.3045,-2.2833,-2.2685,-2.2614,-2.2569,-2.2605,-2.2685,-2.279,-2.2944,-2.3102,-2.3223,-2.3271,-2.3327,-2.3351,-2.3321,-2.325,-2.3168,-2.3061,-2.3011,-2.3045,-2.302,-2.2944,-2.279,-2.2667,-2.2587,-2.2552,-2.2516,-2.2463,-2.2426,-2.2379,-2.2379,-2.2371,-2.2396,-2.2432,-2.2479,-2.2506,-2.2506,-2.246,-2.2413,-2.2217,-2.1942,-2.174,-2.1542,-2.1278,-2.103,-2.0736,-2.0486,-2.0365,-2.0262,-2.027,-2.0235,-2.02,-1.7539,-1.7591,-1.7876,-1.829,-1.8798,-1.9009,-1.9119,-1.9152,-1.9035,-1.8878,-1.865,-1.8428,-1.8243,-1.8129,-1.8023,-1.803,-1.8323,-1.9658,-2.0661,-2.1132,-2.2454,-2.3369,-2.3826,-2.3712,-2.3352,-2.2457,-2.0749,-1.5935,-0.8937,-0.3427,0.3724,0.8108,0.4605,-0.1734,-0.9311,-1.5741,-1.933,-2.0405,-2.1055,-2.1515,-2.2059,-2.2512,-2.3034,-2.3684,-2.4164,-2.457,-2.4952,-2.5206,-2.5398,-2.5518,-2.5566,-2.5605,-2.5591,-2.5579,-2.5469,-2.5311,-2.5099,-2.4743,-2.4394,-2.3978,-2.3786,-2.3543,-2.3336,-2.3111,-2.2936,-2.2859,-2.279,-2.2764,-2.2867,-2.2969,-2.3068,-2.3259,-2.3413,-2.3482,-2.3535,-2.3562,-2.3571,-2.3476,-2.3392,-2.3304,-2.3208,-2.3223,-2.3256,-2.3342,-2.3286,-2.323,-2.3133,-2.2986,-2.2936,-2.2902,-2.2859,-2.2773,-2.2738,-2.2729,-2.2712,-2.2667,-2.2667,-2.2703,-2.2659,-2.2614,-2.2569,-2.246,-2.2212,-2.1936,-2.173,-2.1513,-2.1199,-2.0907,-2.0603,-2.0384,-2.0262,-2.0158,-2.0158,-2.0088,-2.0068,-1.776,-1.7749,-1.8027,-1.8333,-1.8623,-1.8949,-1.9137,-1.9202,-1.9102,-1.8948,-1.8762,-1.8556,-1.8377,-1.8192,-1.8031,-1.7922,-1.808,-1.9215,-2.0315,-2.0751,-2.2016,-2.281,-2.3085,-2.294,-2.2306,-2.0841,-1.6751,-1.1423,-0.3112,0.4424,1.1145,1.3897,0.8804,0.0953,-0.7111,-1.3268,-1.9358,-2.0469,-2.126,-2.1748,-2.2164,-2.2573,-2.2996,-2.3595,-2.409,-2.4503,-2.4853,-2.5135,-2.5372,-2.5476,-2.555,-2.561,-2.5586,-2.555,-2.5424,-2.5226,-2.4856,-2.4494,-2.4144,-2.3931,-2.3764,-2.3638,-2.3407,-2.3241,-2.3135,-2.3102,-2.3075,-2.31,-2.3197,-2.3321,-2.3418,-2.361,-2.3726,-2.381,-2.3798,-2.3846,-2.3768,-2.3691,-2.3544,-2.3458,-2.3435,-2.3435,-2.3495,-2.3607,-2.3664,-2.3642,-2.362,-2.3449,-2.3304,-2.3247,-2.319,-2.3111,-2.302,-2.2995,-2.2936,-2.2859,-2.2885,-2.2902,-2.2833,-2.272,-2.2569,-2.2468,-2.218,-2.1919,-2.1642,-2.1341,-2.1046,-2.075,-2.0509,-2.0289,-2.0088,-2.0053,-2.001,-1.9947,-1.9884,-1.7646,-1.7641,-1.7803,-1.8089,-1.8454,-1.8887,-1.9179,-1.9291,-1.9166,-1.904,-1.8904,-1.8707,-1.8547,-1.8394,-1.8147,-1.8018,-1.8128,-1.8816,-1.9602,-2.0323,-2.1217,-2.1924,-2.2237,-2.2038,-2.1108,-1.7822,-1.3056,-0.6242,0.3337,1.1489,1.8036,1.836,0.9377,0.2498,-0.4387,-1.2632,-1.8859,-2.1052,-2.1731,-2.2183,-2.2547,-2.2805,-2.3279,-2.3796,-2.421,-2.457,-2.4908,-2.5186,-2.5379,-2.5493,-2.558,-2.559,-2.5607,-2.5611,-2.5378,-2.5022,-2.4554,-2.4256,-2.4005,-2.3833,-2.379,-2.3674,-2.3544,-2.3407,-2.3351,-2.3348,-2.3376,-2.3464,-2.3575,-2.3708,-2.3824,-2.3983,-2.4136,-2.4136,-2.4117,-2.4087,-2.4007,-2.3873,-2.3725,-2.366,-2.3638,-2.3673,-2.3783,-2.3887,-2.3958,-2.3987,-2.3946,-2.3852,-2.3703,-2.3549,-2.3472,-2.3365,-2.3304,-2.325,-2.3168,-2.3086,-2.3036,-2.3036,-2.2885,-2.2764,-2.2614,-2.2432,-2.2172,-2.1873,-2.1503,-2.1199,-2.0859,-2.06,-2.0381,-2.0166,-1.9912,-1.9833,-1.979,-1.9726,-1.9661,-1.778,-1.7687,-1.7827,-1.8023,-1.8322,-1.8816,-1.9144,-1.9277,-1.9261,-1.9196,-1.9088,-1.8955,-1.878,-1.8597,-1.8379,-1.8225,-1.837,-1.8751,-1.9488,-2.0066,-2.0381,-2.117,-2.1309,-2.0834,-1.9704,-1.6187,-1.0486,-0.2297,0.5839,1.5459,2.1568,2.1386,0.9563,0.3144,-0.4168,-1.3866,-1.8808,-2.1821,-2.2396,-2.2695,-2.2986,-2.3284,-2.3698,-2.4091,-2.4428,-2.4761,-2.5069,-2.5319,-2.5489,-2.557,-2.56,-2.561,-2.5608,-2.5466,-2.5206,-2.4642,-2.4264,-2.4007,-2.3819,-2.3748,-2.3745,-2.3774,-2.3734,-2.3703,-2.3651,-2.3664,-2.3723,-2.383,-2.3964,-2.4081,-2.4219,-2.4363,-2.4441,-2.4441,-2.4399,-2.4311,-2.421,-2.4075,-2.3926,-2.3864,-2.3843,-2.3917,-2.4048,-2.4106,-2.4173,-2.4257,-2.4247,-2.4143,-2.4005,-2.3852,-2.3712,-2.358,-2.3499,-2.3439,-2.3392,-2.3313,-2.3217,-2.3144,-2.297,-2.2782,-2.2614,-2.2424,-2.2155,-2.1789,-2.1394,-2.1007,-2.0628,-2.0433,-2.0235,-1.9955,-1.9705,-1.9617,-1.9545,-1.9435,-1.9332,-1.7923,-1.7856,-1.7934,-1.81,-1.8319,-1.8752,-1.9017,-1.9212,-1.9317,-1.9323,-1.9286,-1.9168,-1.903,-1.8885,-1.867,-1.8506,-1.8385,-1.853,-1.9058,-1.9546,-1.9596,-2.0045,-2.0078,-1.9594,-1.8374,-1.4334,-0.7595,0.096,0.8476,1.7764,2.4936,2.3157,0.9819,0.314,-0.3602,-1.3332,-2.1193,-2.2767,-2.3193,-2.3333,-2.3538,-2.3803,-2.4136,-2.4454,-2.4741,-2.501,-2.5255,-2.5469,-2.5556,-2.5605,-2.5604,-2.5591,-2.5505,-2.5282,-2.4879,-2.4372,-2.4099,-2.3919,-2.3801,-2.3789,-2.3798,-2.3861,-2.3976,-2.4016,-2.4027,-2.4037,-2.4088,-2.4164,-2.4317,-2.447,-2.4595,-2.4725,-2.4716,-2.4731,-2.4632,-2.4528,-2.4392,-2.4247,-2.4163,-2.4077,-2.4115,-2.4192,-2.4275,-2.433,-2.4366,-2.4393,-2.4348,-2.4247,-2.4134,-2.4016,-2.3861,-2.373,-2.3665,-2.3607,-2.353,-2.3415,-2.3289,-2.3144,-2.3011,-2.2808,-2.2632,-2.2369,-2.2077,-2.167,-2.1222,-2.0877,-2.0527,-2.0296,-2.0061,-1.9777,-1.9442,-1.925,-1.9139,-1.9064,-1.8957,-1.8128,-1.8048,-1.8082,-1.8215,-1.8403,-1.8648,-1.8887,-1.9082,-1.928,-1.9416,-1.9466,-1.9374,-1.9274,-1.9162,-1.8964,-1.8798,-1.8633,-1.8577,-1.8827,-1.9167,-1.8819,-1.9042,-1.9142,-1.8379,-1.6139,-1.1044,-0.3671,0.5261,1.084,1.9145,2.5145,2.4213,1.0141,0.2098,-0.1757,-1.4743,-2.2248,-2.3819,-2.3938,-2.398,-2.4082,-2.4321,-2.4578,-2.4832,-2.5038,-2.5225,-2.5403,-2.5523,-2.5605,-2.5611,-2.5613,-2.5599,-2.5347,-2.5063,-2.4595,-2.4304,-2.406,-2.395,-2.3887,-2.3887,-2.3948,-2.4057,-2.4191,-2.4303,-2.4339,-2.433,-2.4355,-2.4458,-2.4595,-2.4727,-2.4851,-2.4921,-2.4938,-2.4879,-2.4794,-2.4657,-2.4512,-2.4383,-2.4294,-2.4247,-2.4275,-2.4366,-2.4445,-2.4506,-2.447,-2.4497,-2.4445,-2.4357,-2.421,-2.4095,-2.3955,-2.3816,-2.3718,-2.3598,-2.3499,-2.3383,-2.3265,-2.3135,-2.2986,-2.2808,-2.2614,-2.2313,-2.2036,-2.1587,-2.1103,-2.0786,-2.0501,-2.0227,-1.9912,-1.9589,-1.9258,-1.8882,-1.8728,-1.8651,-1.8535,-1.8529,-1.8365,-1.8185,-1.8147,-1.8266,-1.8426,-1.8632,-1.8877,-1.9082,-1.9317,-1.9522,-1.9522,-1.9508,-1.9446,-1.9249,-1.9097,-1.8947,-1.8761,-1.8961,-1.8884,-1.8492,-1.8336,-1.8406,-1.7208,-1.396,-0.6998,0.0971,0.9877,1.8115,2.3425,2.5071,2.3601,1.0712,0.2221,-0.0478,-1.4385,-2.2516,-2.4341,-2.461,-2.4524,-2.4557,-2.4729,-2.4974,-2.5159,-2.533,-2.541,-2.5541,-2.5617,-2.5659,-2.5679,-2.5685,-2.5541,-2.5261,-2.4914,-2.4625,-2.4369,-2.4183,-2.4078,-2.402,-2.405,-2.4155,-2.4238,-2.4381,-2.4538,-2.4596,-2.4587,-2.4626,-2.4725,-2.4837,-2.4953,-2.5051,-2.5091,-2.5106,-2.5019,-2.4926,-2.4774,-2.461,-2.4513,-2.4438,-2.4429,-2.4445,-2.4523,-2.4599,-2.4615,-2.458,-2.4538,-2.4504,-2.4418,-2.421,-2.4065,-2.3896,-2.3747,-2.3665,-2.3553,-2.3453,-2.3304,-2.316,-2.3011,-2.2859,-2.2712,-2.2533,-2.2192,-2.1844,-2.1464,-2.1055,-2.0728,-2.0426,-2.008,-1.9762,-1.9442,-1.9101,-1.8728,-1.8379,-1.8261,-1.8149,-1.8816,-1.8591,-1.831,-1.8176,-1.8184,-1.8278,-1.8489,-1.8689,-1.8903,-1.918,-1.9455,-1.9555,-1.9634,-1.9642,-1.9508,-1.9385,-1.924,-1.8996,-1.8959,-1.8799,-1.8413,-1.792,-1.7286,-1.6426,-1.4122,-0.7883,0.2055,1.1896,2.3307,2.5416,2.4959,2.275,1.1258,0.2089,-0.124,-1.3308,-2.2615,-2.4384,-2.4813,-2.4966,-2.49,-2.5085,-2.5223,-2.5401,-2.5459,-2.5532,-2.5586,-2.564,-2.5657,-2.5664,-2.566,-2.5517,-2.5272,-2.5001,-2.4766,-2.4547,-2.4381,-2.4257,-2.4256,-2.43,-2.4422,-2.4522,-2.4626,-2.4818,-2.4832,-2.4823,-2.4865,-2.497,-2.5006,-2.5122,-2.5132,-2.5168,-2.5134,-2.506,-2.4959,-2.4813,-2.4692,-2.4582,-2.4541,-2.4532,-2.454,-2.4556,-2.4599,-2.4573,-2.453,-2.4445,-2.4428,-2.4284,-2.4116,-2.3935,-2.3792,-2.3633,-2.3504,-2.343,-2.3336,-2.316,-2.2986,-2.2859,-2.2729,-2.248,-2.2231,-2.1974,-2.1648,-2.1301,-2.099,-2.0695,-2.0384,-2.001,-1.9617,-1.9295,-1.892,-1.8567,-1.8221,-1.7949,-1.7835,-1.8991,-1.8751,-1.8432,-1.8227,-1.8155,-1.8234,-1.8371,-1.852,-1.8744,-1.9014,-1.9265,-1.9484,-1.9647,-1.9722,-1.969,-1.9613,-1.9467,-1.925,-1.9099,-1.8807,-1.833,-1.7819,-1.7041,-1.598,-1.2271,-0.5801,0.3732,1.3994,2.4668,2.5192,2.4213,2.1579,1.3121,0.2875,-0.3323,-1.2265,-2.1653,-2.359,-2.4516,-2.4977,-2.5166,-2.5332,-2.5387,-2.5439,-2.5478,-2.5505,-2.5554,-2.559,-2.5605,-2.5627,-2.5623,-2.5497,-2.5332,-2.5115,-2.4956,-2.4761,-2.4666,-2.4586,-2.4582,-2.4674,-2.4761,-2.4865,-2.4974,-2.5016,-2.5037,-2.5068,-2.5108,-2.5139,-2.5184,-2.518,-2.5189,-2.5177,-2.5132,-2.507,-2.4945,-2.4846,-2.4742,-2.4631,-2.4615,-2.4599,-2.4573,-2.4589,-2.4547,-2.4513,-2.4445,-2.4339,-2.421,-2.4041,-2.3885,-2.3723,-2.3553,-2.3385,-2.3214,-2.316,-2.3144,-2.2986,-2.2773,-2.2703,-2.2543,-2.2251,-2.1966,-2.173,-2.1495,-2.1206,-2.0885,-2.0595,-2.0296,-1.9919,-1.956,-1.9191,-1.8851,-1.8464,-1.8128,-1.7855,-1.759,-1.9067,-1.8622,-1.8397,-1.8275,-1.8256,-1.8227,-1.8301,-1.8437,-1.8623,-1.8869,-1.9086,-1.9331,-1.9555,-1.9804,-1.9782,-1.9738,-1.9688,-1.9485,-1.9261,-1.8993,-1.8506,-1.7834,-1.6969,-1.5588,-0.8022,-0.0667,0.7016,1.6418,2.0649,2.2764,2.2203,1.7189,0.9974,0.1024,-0.6687,-1.4921,-2.104,-2.2956,-2.4189,-2.4704,-2.4976,-2.5153,-2.5342,-2.5382,-2.5408,-2.5432,-2.5459,-2.5486,-2.5546,-2.559,-2.5593,-2.5522,-2.5394,-2.5245,-2.5113,-2.5015,-2.4926,-2.4885,-2.4901,-2.4974,-2.5053,-2.5098,-2.5173,-2.5195,-2.5216,-2.5225,-2.5254,-2.5233,-2.5232,-2.5172,-2.5158,-2.5091,-2.5044,-2.4963,-2.4851,-2.4787,-2.4704,-2.4647,-2.4606,-2.4564,-2.4538,-2.4495,-2.4417,-2.4374,-2.4284,-2.4172,-2.4047,-2.3881,-2.3651,-2.3477,-2.3301,-2.3126,-2.2919,-2.2936,-2.2919,-2.2694,-2.2508,-2.2462,-2.2324,-2.2023,-2.1759,-2.1587,-2.1309,-2.1047,-2.0761,-2.0467,-2.0166,-1.9891,-1.9494,-1.9123,-1.8781,-1.8432,-1.8095,-1.7808,-1.7584]}]]